[[{"header":{"parameterUnit":"m.s-1","parameterCategory":1,"la1":30.6,"la2":29.2853,"lo1":-89.7004,"lo2":-87.6739,"dx":0.0162,"dy":0.0183,"nx":112,"ny":82,"refTime":"2023-01-29T06:00:00:Z","depth":0,"parameterNumber":2,"parameterNumberName":"U-component_of_WINDS"},"data":[0.0,0.0,0.0,0.0,0.0,0.0,0.0,0.0,0.0,0.0,0.0,0.0,0.0,0.0,0.0,0.0,0.0,0.0,0.0,0.0,0.0,0.0,0.0,0.0,0.0,0.0,0.0,0.0,0.0,0.0,0.0,0.0,0.0,0.0,0.0,0.0,0.0,0.0,0.0,0.0,0.0,0.0,0.0,0.0,0.0,0.0,0.0,0.0,0.0,0.0,0.0,0.0,0.0,0.0,0.0,0.0,0.0,0.0,0.0,0.0,0.0,0.0,0.0,0.0,0.0,0.0,0.0,0.0,0.0,0.0,0.0,0.0,0.0,0.0,0.0,0.0,0.0,0.0,0.0,0.0,0.0,0.0,0.0,0.0,0.0,0.0,0.0,0.0,0.0,0.0,0.0,2.3346,2.361,2.3774,2.3774,2.3165,2.2772,2.2772,0.0,0.0,0.0,0.0,0.0,0.0,0.0,0.0,0.0,0.0,0.0,0.0,0.0,0.0,0.0,0.0,0.0,0.0,0.0,0.0,0.0,0.0,0.0,0.0,0.0,0.0,0.0,0.0,0.0,0.0,0.0,0.0,0.0,0.0,0.0,0.0,0.0,0.0,0.0,0.0,0.0,0.0,0.0,0.0,0.0,0.0,0.0,0.0,0.0,0.0,0.0,0.0,0.0,0.0,0.0,0.0,0.0,0.0,0.0,0.0,0.0,0.0,0.0,0.0,0.0,0.0,0.0,0.0,0.0,0.0,0.0,0.0,0.0,0.0,0.0,0.0,0.0,0.0,0.0,0.0,0.0,0.0,0.0,0.0,0.0,0.0,0.0,0.0,0.0,0.0,0.0,0.0,0.0,0.0,0.0,0.0,0.0,0.0,0.0,0.0,0.0,0.0,0.0,0.0,2.3735,2.4016,2.4094,2.4113,2.4113,2.3522,2.3117,2.3117,0.0,0.0,0.0,0.0,0.0,0.0,0.0,0.0,0.0,0.0,0.0,0.0,0.0,0.0,0.0,0.0,0.0,0.0,0.0,0.0,0.0,0.0,0.0,0.0,0.0,0.0,0.0,0.0,0.0,0.0,0.0,0.0,0.0,0.0,0.0,0.0,0.0,0.0,0.0,0.0,0.0,0.0,0.0,0.0,0.0,0.0,0.0,0.0,0.0,0.0,0.0,0.0,0.0,0.0,0.0,0.0,0.0,0.0,0.0,0.0,0.0,0.0,0.0,0.0,0.0,0.0,0.0,0.0,0.0,0.0,0.0,0.0,0.0,0.0,0.0,0.0,0.0,0.0,0.0,0.0,0.0,0.0,0.0,0.0,0.0,0.0,0.0,0.0,0.0,0.0,0.0,0.0,0.0,0.0,0.0,0.0,0.0,0.0,0.0,0.0,0.0,0.0,0.0,2.361,2.3816,2.417,2.4054,2.3876,2.3671,2.3369,2.3063,2.2721,2.1828,0.0,0.0,0.0,0.0,0.0,0.0,0.0,0.0,0.0,0.0,0.0,0.0,0.0,0.0,0.0,0.0,0.0,0.0,0.0,0.0,0.0,0.0,0.0,0.0,0.0,0.0,0.0,0.0,0.0,0.0,0.0,0.0,0.0,0.0,0.0,0.0,0.0,0.0,0.0,0.0,0.0,0.0,0.0,0.0,0.0,0.0,0.0,0.0,0.0,0.0,0.0,0.0,0.0,0.0,0.0,0.0,0.0,0.0,0.0,0.0,0.0,0.0,0.0,0.0,0.0,0.0,0.0,0.0,0.0,0.0,0.0,0.0,0.0,0.0,0.0,0.0,0.0,0.0,0.0,0.0,0.0,0.0,0.0,0.0,0.0,0.0,0.0,0.0,0.0,0.0,0.0,0.0,0.0,0.0,0.0,0.0,0.0,0.0,0.0,0.0,0.0,0.0,2.3976,2.3917,2.417,2.3976,2.3714,2.3459,2.3369,2.3087,2.2561,2.1886,0.0,0.0,0.0,0.0,0.0,0.0,0.0,0.0,0.0,0.0,0.0,0.0,0.0,0.0,0.0,0.0,0.0,0.0,0.0,0.0,0.0,0.0,0.0,0.0,0.0,0.0,0.0,0.0,0.0,0.0,0.0,0.0,0.0,0.0,0.0,0.0,0.0,0.0,0.0,0.0,0.0,0.0,0.0,0.0,0.0,0.0,0.0,0.0,0.0,0.0,0.0,0.0,0.0,0.0,0.0,0.0,0.0,0.0,0.0,0.0,0.0,0.0,0.0,0.0,0.0,0.0,0.0,0.0,0.0,0.0,0.0,0.0,0.0,0.0,0.0,0.0,0.0,0.0,0.0,0.0,0.0,0.0,0.0,0.0,0.0,0.0,0.0,0.0,0.0,0.0,0.0,0.0,0.0,0.0,0.0,0.0,0.0,0.0,0.0,0.0,0.0,0.0,2.417,2.417,2.4208,2.417,2.4151,2.4113,2.3837,2.3522,2.3159,2.2101,0.0,0.0,0.0,0.0,0.0,0.0,0.0,0.0,0.0,0.0,0.0,0.0,0.0,0.0,0.0,0.0,0.0,0.0,0.0,0.0,0.0,0.0,0.0,0.0,0.0,0.0,0.0,0.0,0.0,0.0,0.0,0.0,0.0,0.0,0.0,0.0,0.0,0.0,0.0,0.0,0.0,0.0,0.0,0.0,0.0,0.0,0.0,0.0,0.0,0.0,0.0,0.0,0.0,0.0,0.0,0.0,0.0,0.0,0.0,0.0,0.0,0.0,0.0,0.0,0.0,0.0,0.0,0.0,0.0,0.0,0.0,0.0,0.0,0.0,0.0,0.0,0.0,0.0,0.0,0.0,0.0,0.0,0.0,0.0,0.0,0.0,0.0,0.0,0.0,0.0,0.0,0.0,0.0,0.0,0.0,0.0,0.0,0.0,0.0,0.0,0.0,0.0,2.4559,2.4528,0.0,2.4393,2.4248,2.3917,2.3958,2.3692,2.2947,0.0,0.0,0.0,0.0,0.0,0.0,0.0,0.0,0.0,0.0,0.0,0.0,0.0,0.0,0.0,0.0,0.0,0.0,0.0,0.0,0.0,0.0,0.0,0.0,0.0,0.0,0.0,0.0,0.0,0.0,0.0,0.0,0.0,0.0,0.0,0.0,0.0,0.0,0.0,0.0,0.0,0.0,0.0,0.0,0.0,0.0,0.0,0.0,0.0,0.0,0.0,0.0,0.0,0.0,0.0,0.0,0.0,0.0,0.0,0.0,0.0,0.0,0.0,0.0,0.0,0.0,0.0,0.0,0.0,0.0,0.0,0.0,0.0,0.0,0.0,0.0,0.0,0.0,0.0,0.0,0.0,0.0,0.0,0.0,0.0,0.0,0.0,0.0,0.0,0.0,0.0,0.0,0.0,0.0,0.0,0.0,0.0,0.0,0.0,0.0,0.0,0.0,2.4804,2.4804,2.4746,0.0,2.461,2.4424,2.3983,2.4154,2.3862,2.2923,0.0,0.0,0.0,0.0,0.0,0.0,0.0,0.0,0.0,0.0,0.0,0.0,0.0,0.0,0.0,0.0,0.0,0.0,0.0,0.0,0.0,0.0,0.0,0.0,0.0,0.0,0.0,0.0,0.0,0.0,0.0,0.0,0.0,0.0,0.0,0.0,0.0,0.0,0.0,0.0,0.0,0.0,0.0,0.0,0.0,0.0,0.0,0.0,0.0,0.0,0.0,0.0,0.0,0.0,0.0,0.0,0.0,0.0,0.0,0.0,0.0,0.0,0.0,0.0,0.0,0.0,0.0,0.0,0.0,0.0,0.0,0.0,0.0,0.0,0.0,0.0,0.0,0.0,0.0,0.0,0.0,0.0,0.0,0.0,0.0,0.0,0.0,0.0,0.0,0.0,0.0,0.0,0.0,0.0,0.0,0.0,0.0,0.0,0.0,0.0,0.0,0.0,2.4804,2.4804,2.4804,2.4804,2.4804,2.4716,2.4528,2.4512,2.4137,0.0,0.0,0.0,0.0,0.0,0.0,0.0,0.0,0.0,0.0,0.0,0.0,0.0,0.0,0.0,0.0,0.0,0.0,0.0,0.0,0.0,0.0,0.0,0.0,0.0,0.0,0.0,0.0,0.0,0.0,0.0,0.0,0.0,0.0,0.0,0.0,0.0,0.0,0.0,0.0,0.0,0.0,0.0,0.0,0.0,0.0,0.0,0.0,0.0,0.0,0.0,0.0,0.0,0.0,0.0,0.0,0.0,0.0,0.0,0.0,0.0,0.0,0.0,0.0,0.0,0.0,0.0,0.0,0.0,0.0,0.0,0.0,0.0,0.0,0.0,0.0,0.0,0.0,0.0,0.0,0.0,0.0,0.0,0.0,0.0,0.0,0.0,0.0,0.0,0.0,0.0,0.0,0.0,0.0,0.0,0.0,0.0,0.0,0.0,0.0,0.0,0.0,0.0,2.5225,2.5225,2.5168,2.5034,2.4979,2.4877,2.4731,2.4716,2.4454,2.3812,0.0,0.0,0.0,0.0,0.0,0.0,0.0,0.0,0.0,0.0,0.0,0.0,0.0,0.0,0.0,0.0,0.0,0.0,0.0,0.0,0.0,0.0,0.0,0.0,0.0,0.0,0.0,0.0,0.0,0.0,0.0,0.0,0.0,0.0,0.0,0.0,0.0,0.0,0.0,0.0,0.0,0.0,0.0,0.0,0.0,0.0,0.0,0.0,0.0,0.0,0.0,0.0,0.0,0.0,0.0,0.0,0.0,0.0,0.0,0.0,0.0,0.0,0.0,0.0,0.0,0.0,0.0,0.0,0.0,0.0,0.0,0.0,0.0,0.0,0.0,0.0,0.0,0.0,0.0,0.0,0.0,0.0,0.0,0.0,0.0,0.0,0.0,0.0,0.0,0.0,0.0,0.0,0.0,0.0,0.0,0.0,0.0,0.0,0.0,0.0,0.0,0.0,2.5437,2.5434,2.5401,2.5274,2.5222,2.5115,2.4943,2.493,2.4686,2.4153,0.0,0.0,0.0,0.0,0.0,0.0,0.0,0.0,0.0,0.0,0.0,0.0,0.0,0.0,0.0,0.0,0.0,0.0,0.0,0.0,0.0,0.0,0.0,0.0,0.0,0.0,0.0,0.0,0.0,0.0,0.0,0.0,0.0,0.0,0.0,0.0,0.0,0.0,0.0,0.0,0.0,0.0,0.0,0.0,0.0,0.0,0.0,0.0,0.0,0.0,0.0,0.0,0.0,0.0,0.0,0.0,0.0,0.0,0.0,0.0,0.0,0.0,0.0,0.0,0.0,0.0,0.0,0.0,0.0,0.0,0.0,0.0,0.0,0.0,0.0,0.0,0.0,0.0,0.0,0.0,0.0,0.0,0.0,0.0,0.0,0.0,0.0,0.0,0.0,0.0,0.0,0.0,0.0,0.0,0.0,0.0,0.0,0.0,0.0,0.0,0.0,0.0,2.5493,2.5503,2.5521,2.552,2.5495,2.5399,2.5168,2.5139,2.4912,2.4417,0.0,0.0,0.0,0.0,0.0,0.0,0.0,0.0,0.0,0.0,0.0,0.0,0.0,0.0,0.0,0.0,0.0,0.0,0.0,0.0,0.0,0.0,0.0,0.0,0.0,0.0,0.0,0.0,0.0,0.0,0.0,0.0,0.0,0.0,0.0,0.0,0.0,0.0,0.0,0.0,0.0,0.0,0.0,0.0,0.0,0.0,0.0,0.0,0.0,0.0,0.0,0.0,0.0,0.0,0.0,0.0,0.0,0.0,0.0,0.0,2.4682,0.0,0.0,0.0,0.0,0.0,0.0,0.0,0.0,0.0,0.0,0.0,0.0,0.0,0.0,0.0,0.0,0.0,0.0,0.0,0.0,0.0,0.0,0.0,0.0,0.0,0.0,0.0,0.0,0.0,0.0,0.0,0.0,0.0,0.0,0.0,0.0,0.0,0.0,0.0,0.0,0.0,2.5508,2.5559,2.5579,2.5588,2.5526,2.5485,2.5426,2.5401,2.5292,2.5023,2.4931,0.0,0.0,0.0,0.0,0.0,0.0,0.0,0.0,0.0,0.0,0.0,0.0,0.0,0.0,0.0,0.0,0.0,0.0,0.0,0.0,0.0,0.0,0.0,0.0,0.0,0.0,0.0,0.0,0.0,0.0,0.0,0.0,0.0,0.0,0.0,0.0,0.0,0.0,0.0,0.0,0.0,0.0,0.0,0.0,0.0,0.0,0.0,0.0,0.0,0.0,0.0,0.0,0.0,0.0,0.0,0.0,0.0,0.0,0.0,0.0,2.4654,0.0,0.0,0.0,0.0,0.0,0.0,0.0,0.0,0.0,0.0,0.0,0.0,0.0,0.0,0.0,0.0,0.0,0.0,0.0,0.0,0.0,0.0,0.0,0.0,0.0,0.0,0.0,0.0,0.0,0.0,0.0,0.0,0.0,0.0,0.0,0.0,0.0,0.0,0.0,0.0,2.6074,2.582,2.5605,2.5605,2.5597,2.5581,2.5542,2.5554,2.549,2.5348,2.5224,0.0,0.0,0.0,0.0,0.0,0.0,0.0,0.0,0.0,0.0,0.0,0.0,0.0,0.0,0.0,0.0,0.0,0.0,0.0,0.0,0.0,0.0,0.0,0.0,0.0,0.0,0.0,0.0,0.0,0.0,0.0,0.0,0.0,0.0,0.0,0.0,0.0,0.0,0.0,0.0,0.0,0.0,0.0,0.0,0.0,0.0,0.0,0.0,0.0,0.0,0.0,0.0,0.0,2.4016,2.4054,2.4113,2.4113,2.4133,2.4209,2.4375,2.4444,2.4444,2.4444,0.0,0.0,0.0,0.0,0.0,0.0,0.0,0.0,0.0,0.0,0.0,0.0,0.0,0.0,0.0,0.0,0.0,0.0,0.0,0.0,0.0,0.0,0.0,0.0,2.4516,2.4535,2.4591,0.0,0.0,0.0,0.0,0.0,0.0,0.0,0.0,0.0,0.0,0.0,2.6417,2.5951,2.5577,2.5583,2.5644,2.5664,2.5605,2.5605,2.5581,2.5547,2.5364,2.524,0.0,0.0,0.0,0.0,0.0,0.0,0.0,0.0,0.0,0.0,0.0,0.0,0.0,0.0,0.0,0.0,0.0,0.0,0.0,0.0,0.0,0.0,0.0,0.0,0.0,0.0,0.0,0.0,0.0,0.0,0.0,0.0,2.4177,2.3804,0.0,0.0,0.0,0.0,0.0,0.0,0.0,0.0,0.0,0.0,0.0,0.0,0.0,2.4264,2.4215,2.4264,2.3975,2.3346,2.3346,2.3482,2.3774,2.3774,2.3917,2.419,2.4228,0.0,2.4247,2.4247,0.0,0.0,0.0,0.0,0.0,0.0,0.0,0.0,0.0,0.0,0.0,0.0,0.0,0.0,0.0,0.0,0.0,0.0,0.0,0.0,0.0,0.0,2.3406,2.3406,2.3406,2.3406,0.0,2.4155,2.4818,2.4842,2.4855,0.0,0.0,0.0,0.0,0.0,0.0,0.0,2.5331,2.5425,2.5515,2.5503,2.5574,2.5605,2.5605,2.5644,2.5683,2.5662,2.5584,2.5466,2.5286,2.5147,0.0,0.0,0.0,0.0,0.0,0.0,0.0,0.0,0.0,0.0,0.0,0.0,0.0,0.0,0.0,0.0,0.0,0.0,0.0,0.0,0.0,0.0,0.0,0.0,0.0,0.0,0.0,0.0,0.0,2.3724,2.3909,2.3458,2.3945,2.4056,0.0,0.0,0.0,0.0,0.0,0.0,0.0,0.0,0.0,2.317,2.3498,2.3809,2.406,2.3809,2.3731,2.3819,2.3401,2.3277,2.3414,2.3414,2.35,2.3649,2.3649,2.3649,2.3649,2.3837,2.3917,2.3896,0.0,0.0,0.0,0.0,2.3649,2.3628,2.3459,2.3522,2.3588,2.33,0.0,0.0,0.0,0.0,0.0,0.0,0.0,0.0,0.0,0.0,2.3189,2.3189,2.3189,2.3189,2.3189,2.3581,2.3931,0.0,2.4226,2.44,2.4495,0.0,0.0,0.0,0.0,2.5197,2.5552,2.542,2.5274,2.5279,2.5441,2.5532,2.5534,2.56,2.5644,2.5644,2.5644,2.5605,2.5469,2.5417,2.5318,0.0,0.0,0.0,0.0,0.0,0.0,0.0,0.0,0.0,0.0,0.0,0.0,0.0,0.0,0.0,0.0,0.0,0.0,0.0,0.0,0.0,0.0,0.0,0.0,0.0,0.0,0.0,0.0,2.3605,2.3811,2.3144,2.3831,2.4016,0.0,0.0,0.0,0.0,0.0,0.0,2.2398,2.2527,2.2586,2.2581,2.3015,2.3432,2.376,2.3424,2.343,2.3772,2.322,2.3014,2.3069,2.3069,2.3117,2.3189,2.3189,2.3189,2.3212,2.3459,2.3566,2.3544,2.33,2.3189,2.3189,2.3189,2.3189,2.3189,2.3093,2.3052,2.301,2.2855,2.2737,2.2591,2.2344,0.0,0.0,0.0,0.0,2.2643,2.2643,2.2643,2.2669,2.2762,2.2805,2.283,2.294,2.3021,2.313,0.0,2.3611,2.3833,2.3989,0.0,0.0,0.0,0.0,2.4997,2.554,2.5298,2.506,2.506,2.5312,2.5464,2.546,2.5543,2.5566,2.5579,2.5643,2.5644,2.5605,2.5584,2.5542,2.5498,0.0,0.0,0.0,0.0,0.0,0.0,0.0,0.0,0.0,0.0,0.0,0.0,0.0,0.0,0.0,0.0,0.0,0.0,0.0,0.0,0.0,0.0,0.0,0.0,0.0,0.0,0.0,0.0,0.0,2.2868,2.3785,0.0,0.0,0.0,0.0,2.2695,2.2695,2.2695,2.2669,2.2436,2.2615,2.3325,2.3354,2.3401,2.3422,2.3401,2.3061,2.2417,2.2366,2.2463,2.2721,2.2721,2.2898,2.3189,2.3189,2.3189,2.3189,2.3212,2.323,2.3212,2.3212,2.3189,2.3189,2.3189,2.3189,2.3141,2.2848,2.2694,2.2539,2.1886,2.1413,2.1118,2.1086,2.1086,0.0,0.0,2.1118,2.1102,2.1102,2.1102,2.1197,2.1582,2.1672,2.1807,2.2248,2.2554,2.2822,0.0,2.3236,2.3259,2.3241,0.0,2.3967,2.3834,2.4371,2.4749,2.4582,2.4823,2.5022,2.5022,2.5231,2.5409,2.5409,2.5476,2.5503,2.5513,2.5574,2.5605,2.5605,2.5531,2.5507,2.55,2.5366,0.0,0.0,0.0,0.0,0.0,0.0,0.0,0.0,0.0,0.0,0.0,0.0,0.0,0.0,0.0,0.0,0.0,0.0,0.0,0.0,0.0,0.0,0.0,0.0,0.0,0.0,0.0,0.0,2.3272,2.4381,0.0,2.3955,2.3852,2.3647,2.3187,2.3153,2.2931,2.247,2.2349,2.2429,2.2682,2.2699,2.2919,2.3393,2.2936,2.2801,2.3004,2.253,2.2349,2.2436,2.2436,2.2517,2.2624,2.2624,2.2624,2.2624,2.2624,2.2704,2.2873,2.2669,2.2624,2.2624,2.2624,2.2624,2.2598,2.249,2.222,2.1869,2.1383,2.1118,2.0991,2.0991,2.0991,2.0991,2.0991,2.0991,2.0991,2.0991,2.0991,2.1039,2.1181,2.1213,2.1244,2.1415,2.1535,2.1711,2.2113,2.2548,2.2873,2.2873,2.3034,2.3206,2.3369,2.3602,2.381,2.3963,2.4209,2.4428,2.4663,2.4962,2.5138,2.5138,2.532,2.5447,2.5437,2.5505,2.5546,2.5545,2.5516,2.5504,2.5503,2.5446,2.5381,0.0,0.0,0.0,0.0,0.0,0.0,0.0,0.0,0.0,0.0,0.0,0.0,0.0,0.0,0.0,0.0,0.0,0.0,0.0,0.0,0.0,0.0,0.0,0.0,0.0,0.0,2.4235,2.3477,2.4712,2.5321,2.456,2.4255,2.3917,2.3427,2.3173,2.2743,2.2094,2.2061,2.2061,2.2061,2.2312,2.2622,2.3021,2.3038,2.3038,2.3038,2.2784,2.2547,2.231,2.231,2.231,2.231,2.231,2.231,2.231,2.231,2.2398,2.2537,2.236,2.231,2.2282,2.2106,2.2061,2.2032,2.1735,2.143,2.1102,2.0698,2.0565,2.0565,2.0565,2.0565,2.0565,2.0565,2.0565,2.0565,2.0565,2.0565,2.0614,2.0731,2.0748,2.0797,2.0959,2.0991,2.1086,2.1337,2.1903,2.2378,2.252,2.2634,2.2859,2.3365,2.3294,2.3412,2.3988,2.4032,2.4137,2.4459,2.4766,2.4949,2.4998,2.5149,2.5282,2.536,2.5428,2.5464,2.5467,2.5473,2.5468,2.5466,2.5447,2.5412,2.5404,0.0,0.0,0.0,0.0,0.0,0.0,0.0,0.0,0.0,0.0,0.0,0.0,0.0,0.0,0.0,0.0,0.0,0.0,0.0,0.0,0.0,0.0,0.0,2.2282,2.3545,2.4218,2.3511,2.4729,2.5338,2.4659,2.3917,2.3465,2.3431,2.2789,2.2161,2.1694,2.1631,2.1631,2.1648,2.232,2.2571,2.2321,2.3735,2.3735,2.2321,2.3059,2.3009,2.2288,2.2316,2.2299,2.2254,2.2282,2.2282,2.2282,2.2254,2.2282,2.2282,2.2282,2.231,2.2237,2.1794,2.1612,2.1491,2.0601,2.0314,2.0212,1.9839,1.969,1.969,1.969,1.969,1.969,1.969,1.969,1.969,1.969,1.969,1.9818,2.0193,2.028,2.0416,2.0862,2.0975,2.0959,2.0959,2.1275,2.1718,2.2209,2.25,2.2946,2.3777,2.3508,0.0,2.4639,2.4335,2.4118,2.4442,2.467,2.4842,2.4974,2.4979,2.5088,2.5264,2.536,2.538,2.538,2.538,2.538,2.5399,2.5322,2.5322,2.537,0.0,0.0,0.0,0.0,0.0,0.0,0.0,0.0,0.0,0.0,0.0,0.0,0.0,0.0,0.0,0.0,0.0,0.0,0.0,0.0,0.0,0.0,2.233,2.186,2.2895,2.3816,2.4167,2.5033,2.5727,2.6048,2.5581,2.5028,2.4448,2.393,2.3469,2.3129,2.2346,2.2281,2.3112,2.2524,2.2408,2.2797,2.3219,2.3219,2.2797,2.3358,2.3062,2.2102,2.2805,2.2475,2.1354,2.1675,2.1794,2.1764,2.1477,2.1524,2.1823,2.218,2.231,2.2282,2.2152,2.1899,2.1491,2.0601,2.0314,2.0212,1.9839,1.969,1.969,1.969,1.969,1.969,1.969,1.969,1.969,1.969,1.969,1.9726,1.9839,1.9874,1.9909,2.0015,2.005,2.0139,2.0431,2.0583,2.0894,2.1658,2.213,2.2654,2.3403,2.342,0.0,2.4086,2.4204,2.4159,2.3955,2.4319,2.4607,2.4636,2.4858,2.4974,2.4936,2.5179,2.5262,2.5107,2.5262,2.5262,2.5107,2.5088,2.503,0.0,0.0,0.0,0.0,0.0,0.0,0.0,0.0,0.0,0.0,0.0,0.0,0.0,0.0,0.0,0.0,0.0,0.0,0.0,0.0,0.0,0.0,2.2683,2.2752,2.1874,2.2762,2.3754,2.4425,2.4738,2.528,2.6301,2.5643,2.4952,2.4541,2.4142,2.3681,2.3157,2.2493,2.2426,2.309,2.2762,2.2706,2.2992,2.3601,2.3601,2.3008,2.3568,2.3199,2.2013,2.254,2.2164,2.0991,2.1244,2.1337,2.1337,2.1103,2.115,0.0,0.0,0.0,0.0,0.0,2.1181,2.0715,2.0227,2.007,2.0,1.9782,1.9566,1.9369,1.9369,1.9207,1.908,1.9281,1.9369,1.9406,1.9639,1.969,1.969,1.969,1.969,1.969,1.969,1.969,1.9782,2.0,2.0177,0.0,2.1244,2.1705,2.2312,2.3245,2.3139,2.3181,2.3836,2.3755,2.3654,2.3685,2.3981,2.4247,2.4478,2.4678,0.0,0.0,0.0,2.5061,2.501,2.5184,0.0,0.0,0.0,2.4924,2.4804,2.4716,0.0,0.0,2.4741,2.459,0.0,0.0,0.0,0.0,0.0,0.0,0.0,0.0,0.0,0.0,0.0,0.0,0.0,0.0,0.0,0.0,2.3028,2.3389,2.2356,2.3059,2.3819,2.4264,2.4015,2.4329,2.5678,2.4689,2.4005,2.4111,2.3877,2.3366,2.2585,0.0,0.0,0.0,0.0,2.3297,2.3159,2.4458,2.4506,2.3285,2.3957,2.3512,2.2191,2.2216,2.1802,2.1067,2.1053,2.1038,2.1006,2.0893,2.0862,2.0862,2.0959,2.0991,2.0926,2.0483,2.0054,1.9747,1.9726,0.0,0.0,1.969,1.9281,1.8817,1.8968,1.8612,1.8302,1.8765,1.8893,1.9006,1.9406,1.9566,1.9603,1.9603,1.9639,1.969,1.969,1.969,1.969,1.969,2.0,2.0382,2.0829,2.1306,2.1996,2.3216,2.2852,2.2762,2.3729,2.3257,2.3035,2.3584,0.0,0.0,2.4426,2.4495,2.462,2.4879,2.4809,2.4842,2.4979,2.5152,2.5141,2.4949,2.493,2.4872,2.4731,2.4543,2.4461,2.4461,2.4444,2.4391,0.0,0.0,0.0,0.0,0.0,0.0,0.0,0.0,0.0,0.0,0.0,0.0,0.0,0.0,0.0,2.2571,2.3381,2.3874,2.3439,2.3363,2.3285,2.306,2.316,2.3581,2.4475,2.4417,2.4327,2.4349,2.3876,2.3718,2.3962,2.3138,2.3051,2.3946,2.3244,2.3311,2.429,2.4591,2.4864,2.5092,0.0,0.0,2.3288,2.3588,2.2901,2.1554,2.1327,2.1241,2.1159,2.0299,1.9945,2.0015,2.0731,2.0991,2.0926,2.0483,2.0246,2.0158,1.9803,1.9406,1.9132,1.9566,1.9043,1.8419,1.9281,1.9169,0.0,1.8855,1.8893,1.8817,1.8496,1.8727,1.9043,1.9043,1.9406,1.969,1.969,1.969,1.969,1.969,1.9747,1.9945,2.0348,2.1102,2.1996,2.3216,2.3274,2.327,2.3476,2.3612,2.358,2.3307,2.3544,2.3858,2.4228,2.441,2.4461,2.4356,2.4476,2.4678,2.4998,2.493,2.4799,2.4588,2.4588,2.4493,2.4321,2.4266,2.4266,2.4247,2.3979,2.3699,0.0,0.0,0.0,0.0,0.0,0.0,0.0,0.0,0.0,0.0,0.0,2.061,0.0,0.0,2.2765,2.2964,2.3707,2.4074,2.3585,2.3418,2.3349,2.3412,2.2996,2.3117,2.4216,2.4076,2.3952,2.4002,2.3991,2.4143,2.4493,2.3934,2.407,2.4952,2.4431,2.4462,2.5106,2.5121,2.5285,2.56,2.5183,2.4517,2.358,2.3442,2.2799,2.168,2.1576,2.1303,2.0938,2.0053,1.969,1.9747,2.0174,2.0345,2.0311,2.0104,2.0,1.9965,1.9782,1.9369,1.893,1.9207,1.8574,1.7787,1.8341,1.8145,1.7747,1.8027,1.8106,1.8106,1.8106,1.8302,1.8574,1.8855,1.9095,1.9369,1.9639,1.969,1.969,1.969,1.969,1.9854,2.0212,2.0667,2.131,2.2335,2.2702,2.2852,2.2852,2.3005,2.3118,2.3194,2.3346,2.3649,2.4151,2.4393,2.4409,2.4209,2.4478,2.4682,2.4752,2.4785,2.47,2.4512,2.4495,2.441,2.419,2.419,2.4113,2.3937,2.3628,2.3437,0.0,0.0,0.0,0.0,0.0,0.0,0.0,0.0,1.9914,2.0049,2.0528,2.1001,2.1299,2.2169,2.2925,2.3255,2.3915,2.4203,2.3597,2.3465,2.363,2.4123,2.3126,2.2832,2.3948,2.3794,2.3692,2.3803,2.4326,2.4673,2.4792,2.4776,2.5061,2.56,2.5615,2.5674,2.5794,2.5794,2.5869,2.5974,2.533,2.4657,2.3969,2.334,2.2697,2.2054,2.1934,2.144,2.0677,2.0124,1.9809,1.969,1.969,1.969,1.969,1.9566,1.953,1.953,1.9442,1.9043,1.8612,1.8688,1.8027,1.7188,1.7394,1.7076,1.6752,1.7188,1.7312,1.7394,1.7706,1.7867,1.8066,1.8612,1.8817,1.9043,1.9566,1.969,1.969,1.969,1.969,1.9899,2.0431,2.0584,2.0857,2.1507,2.1928,2.2209,2.2282,2.231,2.2535,2.3135,2.3189,2.3459,2.4151,2.4339,2.4393,2.4284,2.4528,2.4623,2.4512,2.4607,2.4607,2.4444,2.4426,2.4339,2.4094,2.4094,2.3917,2.3588,2.3259,2.3236,1.969,1.969,1.969,1.969,1.969,1.9854,0.0,0.0,2.0767,2.135,2.153,2.159,2.1654,2.2552,2.3343,2.3382,2.3955,2.4358,2.4296,2.3884,2.3844,2.4461,2.3438,2.2746,2.2881,2.3846,2.4477,2.4507,2.5092,2.5452,2.5495,2.5495,2.554,2.5615,2.5615,2.5899,2.6482,2.6482,2.6782,2.7385,2.6692,2.6033,2.536,2.4702,2.4029,2.3355,2.2802,2.1859,2.0707,2.0632,2.0243,1.969,1.969,1.969,1.9639,1.9169,1.9006,1.893,1.8458,1.7947,1.7544,1.8027,1.7463,1.6752,1.7706,1.7626,1.7229,1.7271,1.7312,1.7188,1.6795,1.7034,1.7504,1.8066,1.8535,1.9043,1.9566,1.969,1.969,1.969,1.969,2.005,2.1166,2.1663,2.1826,2.162,2.1642,2.1823,2.2254,2.231,2.2535,2.3135,2.3189,2.3459,2.4151,2.4228,2.4303,2.4461,2.4339,2.4339,2.4495,2.4339,2.4266,2.4228,2.4228,2.4075,2.3774,2.3774,2.3588,2.3236,2.2923,2.2772,1.969,1.969,0.0,0.0,2.0288,2.0468,2.1141,2.1291,2.1365,2.1635,2.1994,2.2263,2.2263,2.2964,2.3496,0.0,2.3724,2.3906,2.3906,2.3767,2.3699,2.3999,2.3909,2.3969,2.4343,2.4881,2.5196,2.5196,2.545,2.5779,2.6153,2.6183,2.6363,2.6737,2.6752,2.6886,2.7156,2.7156,2.7305,2.761,2.6901,2.6437,2.6153,2.5106,2.4253,2.3565,2.2936,2.2368,2.1799,2.1036,2.0767,2.0782,1.9664,1.9478,1.9786,1.9479,1.9169,1.8855,1.865,1.8027,1.7353,1.7544,1.7105,1.6595,1.7034,1.7281,1.7273,1.6927,1.7081,1.7229,1.664,1.6909,1.7422,1.7987,1.8496,1.9043,1.9566,1.969,1.969,1.969,2.0004,2.0452,2.0946,2.1729,2.2334,2.2457,2.2566,2.2727,2.2907,2.2581,2.2535,2.3135,2.3369,2.3692,2.417,2.419,2.4247,2.4321,2.4247,2.4247,2.4321,2.4247,2.419,2.419,2.419,2.4113,2.3996,2.3795,2.3522,2.3189,2.2873,2.2625,1.9639,0.0,0.0,2.0303,2.0423,2.0602,2.1276,2.156,2.1739,2.1934,2.2473,2.2936,2.2936,2.3295,2.3595,2.3595,2.3595,2.3595,2.3595,2.3595,2.3744,2.4103,2.4597,2.5226,2.6063,2.5989,2.5884,2.5884,2.6048,2.6363,2.6841,2.6856,2.7081,2.761,2.7625,2.7625,2.7625,2.7625,2.7625,2.756,2.7096,2.6677,2.6273,2.4956,2.4073,2.358,2.3131,2.2832,2.2607,2.165,2.1425,2.1535,1.9846,1.9454,1.9839,1.9418,1.893,1.8458,1.8302,1.7747,1.7076,1.7076,1.6837,1.6522,1.6522,1.6923,1.73,1.6873,1.7061,1.7287,1.6861,1.691,1.7229,1.7947,1.8419,1.8855,1.9566,1.969,1.9735,1.9929,2.0378,2.0888,2.1561,2.2366,2.3185,2.3967,2.3881,2.363,2.3427,2.2819,2.2581,2.3021,2.3437,2.3795,2.4036,2.4151,2.419,2.419,2.419,2.419,2.419,2.419,2.4151,2.4074,2.4151,2.4074,2.3795,2.3649,2.3346,2.2958,2.2704,2.249,0.0,0.0,1.969,1.972,1.972,1.9899,2.0587,2.1231,2.1874,2.2559,2.3131,2.3565,2.3565,2.3595,2.3595,2.3595,2.3595,2.3595,2.3595,2.3595,2.4088,2.539,2.557,2.6093,0.0,2.6931,2.6557,2.6557,2.7156,2.7565,2.7595,2.7595,2.7595,2.7625,2.7625,2.7625,2.7625,2.7625,2.7625,2.7625,2.7595,2.6871,2.56,2.4238,2.3625,2.3595,2.358,2.3236,2.2724,2.2679,2.2248,2.158,2.0356,1.9857,1.976,1.8579,1.7827,1.7271,1.6752,1.6552,1.6522,1.6522,1.6522,1.6522,1.6522,1.6923,1.7388,1.7363,1.7363,1.7388,1.7363,1.6936,1.6795,1.7867,1.8106,1.8419,1.9479,1.969,1.9884,2.0557,2.0707,2.1424,2.3692,2.4115,2.47,2.632,2.5389,2.4218,2.3477,2.2973,2.2695,2.2721,2.3323,2.3692,2.3714,2.4016,2.419,2.419,2.419,2.419,2.419,2.419,2.4054,2.3714,2.4036,2.3714,2.2746,2.3069,2.2908,2.2338,2.231,2.231,0.0,0.0,1.9794,2.0258,2.0363,2.0662,2.1754,2.2188,2.2517,2.3161,2.3131,2.2981,2.2981,2.2981,2.2847,2.2413,2.3056,2.346,2.3041,2.334,2.3939,2.4852,2.5345,0.0,0.0,0.0,0.0,2.7889,2.7694,2.7769,2.8233,2.7814,2.7625,2.7625,2.7625,2.7625,2.7625,2.7625,2.7625,2.756,2.7126,2.6228,2.4896,2.4492,2.4029,2.3595,2.3595,2.3475,2.3251,2.2847,2.2787,2.2763,2.0698,2.0175,2.0396,1.8742,1.8055,1.7881,1.7674,1.7626,1.7639,1.7639,1.7639,1.7639,1.7639,1.8028,1.8317,1.7589,1.7652,1.7752,1.7011,1.7505,1.8193,1.8109,1.8977,1.9918,2.0288,2.0363,2.0557,2.1231,2.1724,2.237,2.3498,2.4322,2.496,2.5192,2.4828,2.4052,2.2835,2.2541,2.2581,2.2996,2.3236,2.3544,2.3996,2.4151,2.419,2.419,2.419,2.419,2.419,2.3996,2.3816,2.3692,2.3588,2.3369,2.3021,2.2923,2.2764,2.2563,2.2388,2.231,0.0,1.969,1.9794,2.0243,2.0348,2.0632,2.1724,2.2158,2.2443,2.2832,2.2787,2.2649,2.2368,2.2559,2.2499,2.1799,2.2577,2.3131,2.2727,2.3206,2.3939,2.4866,2.5555,2.6318,0.0,0.0,0.0,2.8547,2.7964,2.7874,2.8562,2.7949,2.7625,2.7625,2.7625,2.7625,2.7625,2.7625,2.7625,2.761,2.6662,2.5794,2.4956,2.4477,2.4029,2.3595,2.3595,2.3465,2.326,2.2861,2.2775,2.273,2.0709,2.0225,2.0373,1.8806,1.8329,1.8465,1.8254,1.8214,1.8204,1.8204,1.8204,1.8204,1.8204,1.8455,1.8581,1.7877,1.7928,1.8041,1.7313,1.793,1.8771,1.8755,1.9591,2.0538,2.0974,2.1066,2.1261,2.1919,2.2424,2.3016,2.3889,2.4976,2.5532,2.4987,2.4881,2.4272,2.253,2.2388,2.2607,2.2972,2.3117,2.3414,2.3958,2.4016,2.4074,2.419,2.419,2.419,2.419,2.3996,2.3774,2.3522,2.3414,2.3206,2.2883,2.2764,2.266,2.2563,2.2388,2.231,1.9406,1.969,1.969,1.969,1.969,1.9869,2.0557,2.1201,2.1665,2.168,2.2188,2.2443,0.0,0.0,2.2473,2.1844,2.2293,2.2753,2.2724,2.3236,2.4148,0.0,0.0,0.0,0.0,0.0,0.0,2.8592,0.0,2.7889,2.8607,2.7964,2.7625,2.7625,2.7625,2.7625,2.7625,2.7625,2.7595,2.7455,2.6165,2.5523,2.5465,2.4134,2.3551,2.3595,2.3551,2.3231,2.2694,2.2694,2.23,2.1594,2.0462,2.0025,1.9911,1.8707,1.8618,1.8945,1.8468,1.8292,1.8292,1.8292,1.8292,1.8292,1.8292,1.8292,1.8279,1.8254,1.8242,1.8242,1.8216,1.8276,1.858,1.9653,1.9972,2.0358,2.151,2.1739,2.1934,2.2607,2.281,2.3331,2.4916,2.6052,2.6437,2.571,2.5609,2.4831,2.2699,2.263,2.2799,2.2773,2.3074,2.3382,2.3692,2.3732,2.3858,2.417,2.419,2.419,2.419,2.417,2.3837,2.3212,2.3477,2.3194,2.231,2.2563,2.2537,2.231,2.231,2.231,1.953,1.969,1.969,1.969,1.969,1.9869,2.0557,2.0842,2.1111,2.1605,2.1829,2.2039,0.0,0.0,0.0,2.2458,2.2951,0.0,2.2742,2.3655,0.0,0.0,0.0,2.6916,2.7754,2.773,0.0,0.0,2.8233,2.8083,2.9265,2.8269,2.7625,2.7625,2.7625,2.7625,2.7625,2.7625,2.7081,2.6108,2.5305,2.4629,2.4059,2.2749,2.2696,2.3551,2.3098,2.283,2.2694,2.2694,2.23,2.1649,2.0917,2.0584,2.0509,1.9686,1.9484,1.9585,1.9447,1.9397,1.9397,1.9397,1.9397,1.9397,1.9397,1.9397,1.9309,1.8932,1.8819,1.8719,1.8304,1.9224,2.0148,1.9968,2.0969,2.2052,2.2372,2.2428,2.2607,2.3236,2.4035,2.4705,2.5112,2.6052,2.6437,2.571,2.5609,2.5203,2.4069,2.399,2.3996,2.3901,2.3957,2.4034,2.4071,2.4074,2.4113,2.419,2.419,2.419,2.419,2.3714,2.3369,2.3189,2.2849,2.2535,2.231,2.236,2.2377,2.231,2.231,2.231,1.9479,1.969,1.969,1.969,1.969,1.9869,2.0557,2.0722,2.0902,2.156,2.1695,0.0,0.0,0.0,0.0,0.0,0.0,0.0,2.2768,2.3535,2.4537,0.0,2.6183,0.0,2.7934,2.8023,2.8562,0.0,2.8487,2.821,2.9505,2.8308,2.7625,2.7625,2.7625,2.7625,2.7625,2.7625,2.7051,2.6033,2.5716,2.4988,2.3999,2.3281,2.3076,2.3201,0.0,2.2374,2.1894,2.1894,2.15,2.0855,2.0484,2.0346,2.0308,1.9952,1.9798,1.9798,1.9798,1.9798,1.9798,1.9798,1.9798,1.9798,1.9798,1.9648,1.9397,1.9058,1.9204,1.9359,1.905,2.0094,2.1222,2.1159,2.1946,2.2773,2.3029,2.3325,2.3801,2.4724,2.529,2.5741,2.5972,2.6391,2.6556,2.615,2.6082,2.593,2.5507,2.5019,2.4586,2.4174,2.4224,2.4201,2.399,2.3976,2.4036,2.419,2.419,2.4113,2.3996,2.361,2.3277,2.2996,2.2669,2.2426,2.231,2.231,2.231,2.231,2.231,2.231,1.9406,1.969,1.969,1.969,1.9639,1.9752,2.04,2.0519,2.0665,2.1307,0.0,0.0,2.1813,0.0,2.2637,2.2158,0.0,2.2802,2.2802,2.3415,2.4298,2.5465,2.6273,2.7171,2.8353,2.8547,2.9101,3.0298,2.8727,2.8263,2.9505,2.8308,2.7625,2.7625,2.7625,2.7625,2.7625,2.7535,2.7111,2.6452,2.6404,2.5714,2.4582,2.4431,2.3833,2.296,2.2869,2.2105,2.0944,2.1023,2.0562,1.9798,1.9798,1.9849,1.9911,1.9911,1.9962,2.0024,2.0024,1.9974,1.9911,1.9823,1.9798,1.9798,1.9798,1.9484,1.9133,1.9133,1.9538,1.9996,2.0091,2.0914,2.1852,2.2543,2.274,2.2994,2.3584,2.4208,2.4957,2.6143,2.6178,2.6278,2.6972,2.6868,2.6691,2.6691,2.6691,2.6691,2.6691,2.5826,2.4931,2.414,2.4296,2.4235,2.3743,2.3692,2.3837,2.417,2.417,2.4016,2.3774,2.3692,2.3369,2.2772,2.2686,2.2537,2.231,2.231,2.231,2.231,2.231,2.231,1.9406,1.969,1.969,1.969,1.9369,1.9199,1.9752,1.9546,0.0,0.0,0.0,2.1888,2.2424,2.3053,0.0,2.4044,0.0,0.0,0.0,0.0,2.5345,0.0,0.0,0.0,0.0,0.0,0.0,0.0,0.0,2.8757,2.9549,2.8308,2.7625,2.7625,2.7625,2.7625,2.7625,2.7036,2.6437,2.5779,2.5257,2.4861,2.4582,2.3488,2.3478,2.4222,2.372,0.0,2.1609,2.213,2.1356,1.9798,1.9798,2.0087,2.0514,2.0514,2.0803,2.1192,2.1192,2.0891,2.0439,1.9962,1.9798,1.9798,1.9798,1.9748,1.966,1.966,1.9762,1.9952,2.0502,2.1178,2.1852,2.2543,2.3054,2.3613,2.4283,2.4507,2.4822,2.554,2.5535,2.576,2.6911,2.6868,2.6691,2.6691,2.6691,2.6691,2.6691,2.6538,2.6002,2.4925,2.5102,2.4857,2.3797,2.3692,2.3837,2.417,2.3937,2.3896,2.4094,2.3566,2.3212,2.3117,2.2634,2.2349,2.231,2.231,2.231,2.231,2.231,2.231,1.908,1.9281,1.9207,1.893,1.865,1.8612,1.9169,0.0,0.0,0.0,0.0,2.2322,2.2639,0.0,0.0,0.0,0.0,0.0,0.0,0.0,0.0,0.0,0.0,0.0,0.0,0.0,0.0,0.0,0.0,2.8891,2.9549,2.8308,2.746,2.7066,2.7445,2.7245,2.6557,2.6572,2.6093,2.5106,2.5139,2.4769,2.4059,2.3827,2.3659,2.3596,2.3688,2.2738,2.1299,2.1957,2.1259,1.9798,1.9798,2.0162,2.0718,2.0718,2.1016,2.1493,2.1493,2.1129,2.0668,2.0338,2.0049,1.9798,1.9798,1.9798,1.9798,1.9798,2.0055,2.0497,2.1113,2.1724,2.2477,2.3447,2.4163,2.4822,2.551,2.5644,2.6,2.7303,2.6814,2.6638,2.7894,2.7313,2.6691,2.6691,2.6691,2.6691,2.6691,2.6691,2.6334,2.5419,2.5276,2.4839,2.3901,2.375,2.3692,2.3671,2.3692,2.3628,2.3414,2.3117,2.2865,2.2721,2.2443,2.231,2.231,2.231,2.231,2.231,2.231,2.231,1.8612,1.8727,1.8612,1.8224,1.8027,1.8066,1.8612,1.9143,0.0,0.0,0.0,2.2294,2.2275,0.0,0.0,0.0,0.0,0.0,0.0,0.0,0.0,0.0,0.0,0.0,0.0,0.0,0.0,0.0,0.0,0.0,2.9131,2.8023,2.7126,2.6602,2.6961,2.6662,2.5615,2.5974,2.5644,2.4597,2.5151,2.4911,2.4044,2.4448,2.4072,2.3187,2.3677,2.279,2.1033,2.1703,2.1199,1.9974,1.9849,2.0162,2.0731,2.0857,2.1192,2.1656,2.1656,2.1305,2.0869,2.0756,2.0275,1.9798,1.9798,1.9798,1.9875,2.0143,2.0628,2.1179,2.1904,2.2644,2.3426,2.4566,2.5241,2.5749,2.6273,2.6497,2.7046,2.8665,2.7917,2.7381,2.859,2.7636,2.6691,2.6691,2.6691,2.6691,2.6691,2.6691,2.642,2.5693,2.5236,2.4642,2.3707,2.3626,2.3477,2.323,2.3455,2.3369,2.2822,2.2746,2.2599,2.2388,2.2321,2.231,2.231,2.231,2.231,2.231,2.231,2.231,1.8185,1.8185,1.8185,1.8106,1.7747,1.7504,1.8066,0.0,0.0,0.0,2.0187,2.0975,2.0979,0.0,0.0,0.0,0.0,0.0,0.0,0.0,0.0,0.0,0.0,0.0,0.0,0.0,0.0,0.0,0.0,0.0,2.7835,2.7081,2.6647,2.6587,2.6078,2.5734,2.5615,2.5076,2.4701,2.4582,2.4642,2.4971,2.5405,2.4821,2.4574,2.4505,2.4465,2.332,0.0,2.226,2.1744,2.0539,2.0012,2.0162,2.0781,2.123,2.1757,2.2234,2.2234,2.1882,2.133,2.0882,2.0275,1.9798,1.9798,1.9798,2.0054,2.1275,2.1676,2.1982,2.3212,2.4024,2.4679,2.5354,2.557,2.563,2.5689,2.6168,2.6829,2.7535,2.693,2.6696,2.7941,2.7353,2.6691,2.6691,2.6691,2.6691,2.6691,2.6691,2.642,2.5693,2.5236,2.44,2.2937,2.308,2.3236,2.3189,2.3212,2.3212,2.3165,2.2873,2.2695,2.2643,2.2426,2.231,2.231,2.231,2.231,2.231,2.231,2.231,1.7626,1.7626,1.7544,1.7229,1.6993,1.6951,1.7504,0.0,0.0,1.9445,2.0514,2.1245,2.0845,2.1259,0.0,0.0,0.0,0.0,0.0,0.0,0.0,0.0,0.0,0.0,0.0,0.0,0.0,0.0,0.0,0.0,2.6408,2.6512,2.6228,2.5435,2.554,2.542,2.5016,2.4716,2.4582,2.4582,2.4208,2.4148,2.4388,2.4133,2.3821,2.3519,2.3846,2.2923,0.0,2.181,2.1355,2.0125,1.9886,2.0363,2.1154,2.1041,2.1556,2.2259,2.1933,2.1669,2.1455,2.123,2.1004,2.0752,2.0426,2.0668,2.1172,2.2009,2.2587,2.3137,2.4061,2.5087,2.5878,2.615,2.6497,2.6782,2.6782,2.6991,2.7379,2.7899,2.7338,2.705,2.779,2.7246,2.6691,2.6691,2.6691,2.6691,2.6691,2.6691,2.6251,2.505,2.4798,2.4274,2.3215,2.2972,2.284,2.266,2.2815,2.284,2.266,2.2544,2.2463,2.2463,2.2332,2.231,2.231,2.231,2.231,2.231,2.231,2.231,1.7118,1.7076,1.6951,1.6595,1.6522,1.6595,0.0,0.0,1.8963,1.9311,2.0328,2.1002,2.0597,2.0978,2.1472,0.0,0.0,0.0,0.0,0.0,0.0,0.0,0.0,0.0,0.0,0.0,0.0,0.0,0.0,0.0,2.5615,2.5869,2.5585,2.4612,2.4881,2.4792,2.4328,2.4313,2.4313,2.4313,2.3834,2.3699,2.3894,2.3684,2.3393,2.2997,2.3255,2.2512,0.0,2.1341,2.0914,2.0037,1.9874,2.0288,2.0966,2.074,2.1154,2.1794,2.1568,2.1493,2.1493,2.1493,2.1493,2.1443,2.1217,2.145,2.1931,2.2871,2.3823,2.4683,2.5398,2.5923,2.6393,2.6782,2.7081,2.7335,2.758,2.7425,2.7421,2.7734,2.7316,2.7009,2.7296,2.6974,2.6691,2.6691,2.6691,2.6691,2.6691,2.6691,2.6116,2.4675,2.4709,2.434,2.3173,2.3052,2.2831,2.231,2.2563,2.2573,2.231,2.231,2.231,2.231,2.231,2.231,2.231,2.231,2.231,2.231,2.231,2.231,1.6637,1.6522,1.6522,1.6522,1.6522,1.6522,0.0,0.0,1.8204,1.8204,1.9058,1.9798,1.9798,2.0275,2.1097,0.0,0.0,0.0,0.0,0.0,0.0,0.0,0.0,0.0,0.0,0.0,0.0,0.0,0.0,0.0,2.5615,2.5001,2.4597,2.4582,2.3969,2.361,2.361,2.361,2.361,2.361,2.3595,2.3954,2.4552,2.3909,2.3629,2.363,2.2944,2.22,0.0,2.096,2.0718,2.0655,2.0024,1.9811,1.9886,2.0451,2.0731,2.0806,2.1305,2.1493,2.1493,2.1493,2.1493,2.1594,2.2133,2.1907,2.1903,2.3906,2.5502,2.6722,2.738,2.6587,2.5944,2.7245,2.7066,2.6782,2.749,2.7066,2.6602,2.6636,2.6388,2.6206,2.623,2.6475,2.6691,2.6691,2.6691,2.6691,2.6691,2.6691,2.6116,2.4675,2.5152,2.4712,2.2513,2.3292,2.3433,2.2389,2.2563,2.2573,2.231,2.231,2.231,2.231,2.231,2.231,2.231,2.231,2.231,2.231,2.231,2.231,1.6552,1.6522,1.6522,1.6522,1.6522,1.6522,1.6522,0.0,1.8204,1.8204,1.9058,1.9798,1.9798,2.0275,2.0822,0.0,0.0,0.0,0.0,0.0,0.0,0.0,0.0,0.0,0.0,0.0,0.0,0.0,0.0,2.4238,2.4238,2.4044,2.4148,2.4567,2.4418,2.4253,2.4253,2.4253,2.4253,2.4298,2.3819,2.3714,2.3924,2.3699,2.3393,2.2997,2.23,2.1627,2.1022,2.0322,2.0075,2.0062,1.9874,2.0037,2.0363,2.0162,2.0326,2.0693,2.0413,2.0589,2.0928,2.0928,2.1179,2.1518,2.1694,2.1997,2.2697,2.4727,2.6272,2.7305,2.7515,2.726,2.6946,2.6901,2.6737,2.6647,2.6856,2.6737,2.6733,2.7084,2.7431,2.7416,2.6772,2.7125,2.7283,2.6776,2.6691,2.6691,2.6691,2.6691,2.6319,2.5355,2.5913,2.5253,2.2547,2.3085,2.3187,2.2361,2.2388,2.2388,2.231,2.231,2.231,2.231,2.231,2.231,2.231,2.231,2.231,2.231,2.231,2.231,0.0,1.6522,1.6522,1.6522,1.6522,0.0,0.0,0.0,1.8267,1.848,1.9196,1.9874,2.0087,2.0589,2.1041,2.1255,0.0,0.0,0.0,0.0,0.0,0.0,0.0,0.0,0.0,0.0,0.0,0.0,0.0,2.3714,2.3969,2.3744,2.3924,2.4567,2.4328,2.4238,2.4238,2.4238,2.4238,2.4238,2.3804,2.3595,2.3595,2.3595,2.329,2.2649,2.1993,2.1342,0.0,2.0105,1.9798,1.9798,1.9798,2.0024,2.0288,1.9936,2.0024,2.0326,2.0175,2.0363,2.0756,2.097,2.1369,2.1873,2.1912,2.2406,2.328,2.4818,2.6217,2.72,2.72,2.72,2.7096,2.6692,2.6587,2.6587,2.6587,2.6587,2.6766,2.7334,2.769,2.7788,2.7437,2.7618,2.762,2.7182,2.6877,2.6691,2.6691,2.6691,2.642,2.5693,2.6251,2.5727,2.3325,2.3799,2.3917,2.3173,2.2868,2.2733,2.2733,2.2462,2.231,2.231,2.231,2.231,2.231,2.231,2.231,2.231,2.231,2.231,0.0,0.0,0.0,0.0,0.0,0.0,0.0,0.0,0.0,0.0,1.9447,1.9962,2.0555,2.1091,2.1644,0.0,0.0,0.0,0.0,0.0,0.0,0.0,0.0,0.0,0.0,0.0,0.0,0.0,2.3969,2.3879,2.4477,2.3939,2.3894,2.4492,2.3924,2.3595,2.3595,2.3655,2.3655,2.3595,2.3595,2.3595,2.3595,2.3595,2.3275,0.0,2.1993,2.139,2.0795,2.0093,1.9798,1.9798,1.9798,1.9798,1.9798,1.9798,1.9798,1.9874,2.0413,2.0655,2.0743,2.1259,2.1838,2.2353,2.256,2.3114,2.378,2.4276,2.5443,2.6527,2.6572,2.6557,2.6527,2.6572,2.6557,2.6527,2.6572,2.6636,2.6814,2.7427,2.7541,2.7671,2.8162,2.8076,2.7892,2.7789,2.7182,2.6691,2.6691,2.6691,2.6437,2.5761,2.6285,2.6133,2.4777,2.5236,2.5287,2.4557,2.3799,2.3393,2.3393,2.2699,2.231,2.231,2.2361,2.2361,2.231,2.2361,2.2361,2.231,2.231,2.2344,0.0,0.0,0.0,0.0,0.0,0.0,0.0,0.0,0.0,0.0,0.0,1.9849,1.9987,2.0815,2.1393,0.0,0.0,0.0,0.0,0.0,0.0,0.0,0.0,0.0,0.0,0.0,0.0,0.0,2.3684,2.367,2.3834,2.3684,2.367,2.3834,2.3684,2.3595,2.3595,2.4118,2.4118,2.3595,2.3595,2.3595,2.3595,2.3595,2.3508,2.3334,2.2179,2.1615,2.1376,2.0283,1.9798,1.9798,1.9798,1.9798,1.9798,1.9798,1.9798,1.9823,1.9962,2.0012,2.0128,2.0772,2.1066,2.1366,2.2395,2.345,2.4234,2.3942,2.4817,2.5959,2.6452,2.6213,2.5959,2.6467,2.6213,2.5974,2.6482,2.699,2.7489,2.817,2.8978,2.9477,2.9041,2.8824,2.8501,2.7874,2.7182,2.6691,2.6691,2.6691,2.6623,2.6454,2.659,2.6556,2.6201,2.5828,2.5287,2.4557,2.3799,2.3393,2.3393,2.2699,2.231,2.231,2.2852,2.2868,2.231,2.2868,2.2852,2.231,2.231,2.2598,0.0,0.0,0.0,0.0,0.0,0.0,0.0,0.0,0.0,0.0,0.0,0.0,2.0526,0.0,0.0,0.0,0.0,0.0,0.0,0.0,0.0,0.0,0.0,0.0,0.0,0.0,0.0,2.4073,2.3774,2.3595,2.3595,2.3595,2.3595,2.3595,2.3595,2.3595,2.3595,2.3969,2.3969,2.3595,2.3595,2.3595,2.3595,2.3595,2.3465,2.3143,2.2483,2.1993,2.1615,2.0683,2.0258,2.0245,1.9901,1.9798,1.9798,1.9798,1.9798,1.9798,1.9798,1.9798,1.9952,2.0917,2.1197,2.1438,2.2725,2.3582,2.4019,2.3728,2.4385,2.5241,2.56,2.542,2.533,2.5989,2.5869,2.5794,2.6452,2.7313,2.814,2.8794,2.9673,3.0261,3.0125,2.9765,2.9364,2.8941,2.7926,2.7199,2.7199,2.6911,2.6691,2.6691,2.6691,2.6691,2.6691,2.6336,2.593,2.5524,2.4814,2.4408,2.4408,2.3697,2.3308,2.3308,2.3038,2.2868,2.2801,2.2868,2.2868,2.2801,2.2801,2.319,0.0,0.0,0.0,0.0,0.0,0.0,0.0,0.0,0.0,0.0,0.0,0.0,0.0,0.0,0.0,0.0,0.0,0.0,0.0,0.0,0.0,0.0,0.0,0.0,0.0,0.0,2.4537,2.4433,2.3924,2.3595,2.3595,2.3595,2.3595,2.3595,2.3595,2.3595,2.3595,2.3595,2.3595,2.3595,2.3595,2.3595,2.3595,2.3595,2.3334,2.283,0.0,0.0,2.1805,2.121,2.0894,2.0746,2.0144,1.9901,1.9798,1.9798,1.9798,1.9798,1.9798,1.9798,1.9991,2.128,2.1697,2.1932,2.3216,2.3595,2.3595,2.3595,2.4029,2.4448,2.4552,2.4507,2.4657,2.5435,2.5615,2.5794,2.6452,2.7618,2.8701,2.9271,2.9908,3.0477,3.1112,3.0598,3.0108,3.0108,2.8805,2.7789,2.7789,2.7165,2.6691,2.6691,2.6691,2.6691,2.6691,2.6691,2.6691,2.6691,2.6015,2.5558,2.5439,2.4814,2.4506,2.4506,2.3376,2.3054,2.3562,2.3054,2.3071,2.3562,2.3485,2.3874,1.6438,1.6512,0.0,0.0,0.0,0.0,0.0,0.0,0.0,0.0,0.0,0.0,0.0,0.0,0.0,0.0,0.0,0.0,0.0,0.0,0.0,0.0,0.0,0.0,0.0,0.0,2.4343,2.3804,2.3655,2.3595,2.3595,2.3595,2.3595,2.3595,2.3595,2.3595,2.3595,2.3595,2.3595,2.3595,2.3595,2.3595,2.3595,2.3595,2.3551,2.3421,0.0,2.2649,2.2498,2.1805,2.1245,2.0795,2.0696,2.0295,1.9798,1.9798,1.9798,1.9798,1.9798,1.9798,1.9991,2.128,2.1697,2.1932,2.3216,2.3595,2.3595,2.3595,2.367,2.3894,2.4433,2.4193,2.4073,2.5315,2.5615,2.5794,2.6452,2.7618,2.8701,2.9271,2.9908,3.0477,3.1112,3.0598,3.0108,3.0108,2.8805,2.7789,2.7789,2.7165,2.6691,2.6691,2.6691,2.6691,2.6691,2.6691,2.6691,2.6691,2.6015,2.5321,2.4678,2.4574,2.4506,2.4506,2.4898,2.4847,2.4337,2.4847,2.4831,2.4306,2.3881,2.428,1.5429,1.5733,0.0,0.0,0.0,0.0,0.0,0.0,0.0,0.0,0.0,0.0,0.0,0.0,0.0,0.0,0.0,0.0,0.0,0.0,0.0,0.0,0.0,0.0,0.0,2.4492,2.3939,2.3625,2.3595,2.3595,2.3595,2.3595,2.3595,2.3595,2.3595,2.3595,2.3595,2.3595,2.3595,2.3595,2.3595,2.3595,2.3595,2.3595,2.3595,2.3595,0.0,2.3201,2.3098,2.2132,2.152,2.1197,2.0534,2.0055,1.9798,1.9798,1.9798,1.9798,1.9798,1.9798,1.9991,2.128,2.1697,2.1932,2.3216,2.3595,2.3595,2.3595,2.3595,2.367,2.3984,2.3834,2.3849,2.4852,2.536,2.5794,2.6452,2.7618,2.8606,2.8873,2.9673,3.0293,3.0251,3.0473,3.0566,3.0256,2.9547,2.9059,2.9059,2.8027,2.73,2.73,2.6945,2.6691,2.6691,2.6691,2.6691,2.6691,2.6387,2.6031,2.5693,2.5304,2.527,2.5676,2.5236,2.4873,2.4679,2.4613,2.4481,2.4277,2.4037,2.4427,1.4468,1.505,1.5683,0.0,0.0,0.0,0.0,0.0,0.0,0.0,0.0,0.0,0.0,0.0,0.0,0.0,0.0,0.0,0.0,0.0,0.0,0.0,0.0,0.0,2.53,2.4448,2.3774,2.361,2.3595,2.3595,2.3595,2.3595,2.3595,2.3595,2.3595,2.3595,2.3595,2.3595,2.3595,2.3595,2.3595,2.3595,2.3595,2.3595,2.3595,2.3595,2.3595,2.3508,2.3319,2.2331,2.1758,2.1376,2.0434,1.9952,1.9798,1.9798,1.9798,1.9798,1.9798,1.9901,2.0245,2.1328,2.1805,2.2132,2.326,2.3595,2.3595,2.3595,2.3595,2.3595,2.3595,2.3595,2.3729,2.4253,2.5016,2.5749,2.6243,2.7367,2.8334,2.8463,2.9225,2.9761,2.9451,3.0166,3.0617,3.0166,2.9962,2.9883,2.9883,2.8834,2.8027,2.7806,2.73,2.6894,2.6708,2.6691,2.6691,2.6691,2.6691,2.6691,2.6691,2.6167,2.6116,2.6674,2.5575,2.5028,2.5069,2.451,2.4284,2.4361,2.4249,2.4519,1.3862,1.4721,1.5466,1.4971,0.0,0.0,0.0,0.0,0.0,0.0,0.0,0.0,0.0,0.0,0.0,0.0,0.0,0.0,0.0,0.0,0.0,0.0,0.0,0.0,2.4701,2.4567,2.4283,2.3655,2.3595,2.3595,2.3595,2.3595,2.3595,2.3595,2.3595,2.3595,2.3595,2.3595,2.3595,2.3595,2.3595,2.3595,2.3595,2.3595,2.3595,2.3595,2.3595,2.3275,2.2754,2.2649,2.1941,2.0845,2.0746,2.0359,1.9798,1.9798,1.9798,1.9798,1.9798,2.0194,2.0845,2.1472,2.21,2.274,2.3421,2.3595,2.3595,2.3595,2.3595,2.3595,2.3595,2.3595,2.361,2.3655,2.4657,2.5615,2.5674,2.6726,2.781,2.8367,2.8559,2.8779,2.9316,2.9451,2.9496,2.9451,2.9358,2.9246,2.9246,2.9047,2.8619,2.7857,2.7739,2.7452,2.6759,2.6691,2.6691,2.6691,2.6691,2.6691,2.6691,2.664,2.664,2.6691,2.659,2.6336,2.5931,2.5865,2.5595,2.5102,2.4594,2.4665,1.3238,1.3873,0.0,1.419,0.0,0.0,0.0,0.0,0.0,0.0,0.0,0.0,0.0,0.0,0.0,0.0,0.0,0.0,0.0,0.0,0.0,0.0,0.0,2.4433,2.4567,2.4238,2.3879,2.3625,2.3595,2.3595,2.3595,2.3595,2.3595,2.3595,2.3595,2.3595,2.3595,2.3595,2.3595,2.3595,2.3595,2.3595,2.3595,2.3595,2.3595,2.3595,2.3595,2.3246,2.2649,2.2253,2.1582,2.0746,2.0346,2.0003,1.9798,1.9798,2.0055,2.0396,2.0396,2.0818,2.1486,2.21,2.2498,2.283,2.3421,2.3595,2.3595,2.3595,2.3595,2.3595,2.3595,2.3595,2.3595,2.3595,2.4627,2.5615,2.5615,2.6632,2.7675,2.791,2.8222,2.8463,2.8319,2.8904,2.9271,2.8919,2.9138,2.9442,2.9839,2.9417,2.9159,2.9225,2.8112,2.737,2.7384,2.6704,2.6401,2.6691,2.6691,2.659,2.6262,2.6262,2.6104,2.5783,2.5783,2.5524,2.5028,2.5028,2.4752,2.4184,2.3991,2.3991,1.2881,1.3334,0.0,0.0,0.0,0.0,0.0,0.0,0.0,0.0,0.0,0.0,0.0,0.0,0.0,0.0,0.0,0.0,0.0,0.0,0.0,0.0,2.4163,2.3789,2.4253,2.3879,2.3595,2.3595,2.3595,2.3595,2.3595,2.3595,2.3595,2.3595,2.3595,2.3595,2.3595,2.3595,2.3595,2.3595,2.3595,2.3595,2.3595,2.3595,2.3595,2.3595,2.3595,2.3246,2.2649,2.1993,2.1342,2.0746,2.0055,2.0042,2.0383,2.0194,2.0534,2.1064,2.1064,2.1486,2.21,2.2543,2.283,2.3054,2.3465,2.3595,2.3595,2.3595,2.3595,2.3595,2.3595,2.3759,2.3924,2.3924,2.4941,2.5914,2.5914,2.6782,2.7625,2.7625,2.7944,2.8091,2.7675,2.8255,2.867,2.8271,2.8732,2.9271,2.9673,2.9469,2.9428,2.9766,2.8184,2.723,2.7559,2.6445,2.5872,2.621,2.6245,2.6175,2.6013,2.5852,2.5561,2.5221,2.5221,2.495,2.4389,2.4389,2.4116,2.3595,2.3595,2.3595,1.2881,0.0,0.0,0.0,0.0,0.0,0.0,0.0,0.0,0.0,0.0,0.0,0.0,0.0,0.0,0.0,0.0,0.0,0.0,0.0,0.0,2.3595,2.3595,2.3595,2.3595,2.3595,2.3595,2.3595,2.3595,2.3595,2.3595,2.3595,2.3595,2.3595,2.3595,2.3595,2.3595,2.3595,2.3595,2.3595,2.3595,2.3595,2.3595,2.3595,2.3595,2.3595,2.3595,2.3246,2.2649,2.1993,2.1342,2.0746,2.0105,2.0607,2.1615,2.1028,2.121,2.1697,2.1697,2.2146,2.2694,2.2694,2.3098,2.3595,2.3595,2.3595,2.3595,2.3595,2.3595,2.3595,2.3595,2.4118,2.4582,2.4582,2.563,2.6587,2.6587,2.7111,2.7625,2.7625,2.7625,2.7625,2.7625,2.7625,2.7625,2.7625,2.8091,2.8511,2.8511,2.9012,2.9355,2.9206,2.7937,2.7097,2.7097,2.5924,2.5182,2.5221,2.5182,2.5411,2.5961,2.5486,2.5182,2.5182,2.5182,2.4934,2.4389,2.4389,2.4116,2.3595,2.3595,2.3595,1.3242,0.0,0.0,0.0,0.0,0.0,0.0,0.0,0.0,0.0,0.0,0.0,0.0,0.0,0.0,0.0,0.0,0.0,0.0,0.0,2.3595,2.3595,2.3595,2.3595,2.3595,2.3595,2.3595,2.3595,2.3595,2.3595,2.3595,2.3595,2.3595,2.3595,2.3595,2.3595,2.3595,2.3595,2.3595,2.3595,2.3595,2.3595,2.3595,2.3595,2.3595,2.3595,2.3595,2.3246,2.2649,2.1993,2.1615,2.1424,2.1232,2.1363,2.1697,2.152,2.1866,2.2406,2.2406,2.2815,2.3334,2.3334,2.3465,2.3595,2.3595,2.3595,2.3595,2.3595,2.3595,2.3595,2.3595,2.4118,2.4582,2.4582,2.563,2.6587,2.6587,2.7111,2.7625,2.7625,2.7625,2.7625,2.7625,2.7625,2.7625,2.7625,2.776,2.7993,2.8463,2.9012,2.9371,2.9323,2.8184,2.754,2.7895,2.6335,2.5507,2.5871,2.51,2.4712,2.4871,2.4712,2.4471,2.4074,2.4074,2.4006,2.3837,2.3837,2.3767,2.3595,2.3595,2.3595,0.0,0.0,0.0,0.0,0.0,0.0,0.0,0.0,0.0,0.0,0.0,0.0,0.0,0.0,0.0,0.0,0.0,0.0,0.0,0.0,2.3595,2.3595,2.3595,2.3595,2.3595,2.3595,2.3595,2.3595,2.3595,2.3595,2.3595,2.3595,2.3595,2.3595,2.3595,2.3595,2.3595,2.3595,2.3595,2.3595,2.3595,2.3595,2.3595,2.3595,2.3595,2.3595,2.3595,2.3246,2.2649,2.2253,2.21,2.2053,2.1805,2.2025,2.2409,2.2193,2.2483,2.3054,2.3054,2.329,2.3595,2.3595,2.3595,2.3595,2.3595,2.3595,2.3595,2.3595,2.3595,2.3595,2.3595,2.4118,2.4642,2.491,2.5824,2.6662,2.6916,2.729,2.7625,2.7625,2.7625,2.7625,2.7625,2.7625,2.7625,2.7625,2.7625,2.771,2.8091,2.8685,2.9042,2.9042,2.8092,2.7625,2.7939,2.6174,2.5201,2.5528,2.4887,2.4487,2.4487,2.4487,2.4453,2.4388,2.4403,2.4403,2.4403,2.4403,2.4403,2.4403,2.4403,2.4403,0.0,0.0,0.0,0.0,0.0,0.0,0.0,0.0,0.0,0.0,0.0,0.0,0.0,0.0,0.0,0.0,0.0,0.0,0.0,0.0,2.358,2.352,2.3565,2.3595,2.3595,2.3595,2.3595,2.3595,2.3595,2.3595,2.3595,2.3595,2.3595,2.3595,2.3595,2.3595,2.3595,2.3595,2.3595,2.3595,2.3595,2.3595,2.3595,2.3595,2.3595,2.3595,2.3595,2.3246,2.2694,2.2694,2.2649,2.2543,2.2007,2.2515,2.3465,2.2965,2.3143,2.3595,2.3595,2.3595,2.3595,2.3535,2.355,2.3595,2.3535,2.355,2.3595,2.3595,2.3595,2.3595,2.3595,2.4059,2.4672,2.5435,2.6108,2.6767,2.7475,2.7625,2.7625,2.7625,2.7625,2.7625,2.7625,2.7625,2.7625,2.7625,2.7625,2.7625,2.7625,2.8091,2.8415,2.8415,2.7891,2.7504,2.7504,2.5819,2.4761,2.4761,2.4701,2.4701,2.4761,2.4701,2.5001,2.56,2.5615,2.5615,2.5615,2.5615,2.5615,2.5615,2.5615,2.5615,0.0,0.0,0.0,0.0,0.0,0.0,0.0,0.0,0.0,0.0,0.0,0.0,0.0,0.0,0.0,0.0,0.0,0.0,0.0,0.0,2.3415,2.2936,2.3295,2.3595,2.3595,2.3595,2.3595,2.3595,2.3595,2.3595,2.3595,2.3595,2.3595,2.3595,2.3595,2.3595,2.3595,2.3595,2.3595,2.3595,2.3595,2.3595,2.3595,2.3595,2.3595,2.3595,2.3595,2.3246,2.2694,2.2694,2.2392,2.1946,2.2346,2.2649,2.2934,2.329,2.3508,2.3595,2.3595,2.3595,2.352,2.3041,2.3206,2.3505,2.3026,2.3206,2.3595,2.3595,2.3595,2.3595,2.3595,2.3714,2.4118,2.533,2.6108,2.6767,2.7475,2.7625,2.7625,2.7625,2.7625,2.7625,2.7625,2.7625,2.7625,2.7625,2.7625,2.7625,2.7625,2.771,2.781,2.781,2.7674,2.7584,2.7584,2.6714,2.6168,2.6168,2.5689,2.563,2.6153,2.5674,2.5465,2.5615,2.5615,2.5615,2.5615,2.5615,2.5615,2.5615,2.5615,2.5615,0.0,0.0,0.0,0.0,0.0,0.0,0.0,0.0,0.0,0.0,0.0,0.0,0.0,0.0,0.0,0.0,0.0,0.0,0.0,0.0,2.3146,2.3116,2.34,2.3595,2.3595,2.3595,2.3595,2.3595,2.3595,2.3595,2.3595,2.3595,2.3595,2.3595,2.3595,2.3595,2.3595,2.3595,2.3595,2.3595,2.3595,2.3595,2.3595,2.3595,2.3595,2.3595,2.3275,2.2965,2.2694,2.2346,2.2007,2.1758,2.2452,2.2694,2.2785,2.3377,2.3595,2.3595,2.3595,2.34,2.3101,2.2787,2.2682,2.2622,2.2308,2.2652,2.3161,2.3161,2.337,2.3595,2.3595,2.3595,2.3939,2.5285,2.5869,2.6378,2.7415,2.7625,2.7625,2.7625,2.7625,2.7625,2.7625,2.7625,2.7625,2.7625,2.7625,2.7625,2.7625,2.7625,2.7625,2.7625,2.7625,2.7625,2.7625,2.6976,2.6587,2.6587,2.6273,2.6243,2.6572,2.6557,2.6557,2.6557,2.6557,2.6557,2.6557,2.6557,2.6557,2.6557,2.6557,2.6557,0.0,0.0,0.0,0.0,0.0,0.0,0.0,0.0,0.0,0.0,0.0,0.0,0.0,0.0,0.0,0.0,0.0,0.0,0.0,0.0,2.2903,2.3385,2.3535,2.3595,2.3595,2.3595,2.3595,2.3595,2.3595,2.3595,2.3595,2.3595,2.3595,2.3595,2.3595,2.3595,2.3595,2.3595,2.3595,2.3595,2.3595,2.3595,2.3595,2.3595,2.3551,2.3421,2.277,2.2452,2.2314,2.1771,2.1472,2.1472,2.2207,2.2558,2.2589,2.3319,2.3535,2.343,2.343,2.3026,2.2488,2.2368,2.2054,2.1695,2.1695,2.2158,2.2739,2.2843,2.3206,2.3595,2.3595,2.3595,2.3909,2.5151,2.5525,2.5974,2.729,2.7625,2.7625,2.7625,2.7625,2.7625,2.7625,2.7625,2.7625,2.7625,2.7625,2.7625,2.7625,2.7625,2.7625,2.7625,2.7625,2.7625,2.7625,2.7066,2.6752,2.6752,2.6752,2.6752,2.6752,2.7325,2.7625,2.7625,2.7625,2.7625,2.7625,2.7625,2.7625,2.7625,2.7625,2.7625,0.0,0.0,0.0,0.0,0.0,0.0,0.0,0.0,0.0,0.0,0.0,0.0,0.0,0.0,0.0,0.0,0.0,0.0,0.0,2.2724,2.2753,2.2787,2.3266,2.3595,2.3595,2.3595,2.3595,2.3595,2.3595,2.3595,2.3595,2.3595,2.3595,2.3595,2.3595,2.3595,2.3595,2.3595,2.3595,2.3595,2.3595,2.3595,2.3595,2.3595,2.3334,2.2785,2.2146,2.1534,2.1042,2.0944,2.0584,2.0181,2.1376,2.1852,2.1993,2.3172,2.3266,2.2802,2.2802,2.2383,2.1739,2.1156,2.1306,2.1695,2.1695,2.2158,2.2787,2.3325,2.3535,2.3595,2.3595,2.3595,2.3789,2.4522,2.5196,2.5974,2.729,2.7625,2.7625,2.7625,2.7625,2.7625,2.7625,2.7625,2.7625,2.7625,2.7625,2.7625,2.7625,2.7625,2.7625,2.7625,2.7625,2.7625,2.7625,2.7535,2.749,2.749,2.749,2.749,2.749,2.7565,2.7625,2.7625,2.7625,2.7625,2.7625,2.7625,2.7625,2.7625,2.7625,2.7625,0.0,0.0,0.0,0.0,0.0,0.0,0.0,0.0,0.0,0.0,0.0,0.0,0.0,0.0,0.0,0.0,0.0,0.0,0.0,2.2724,2.2843,2.3146,2.343,2.3595,2.3595,2.3595,2.3595,2.3595,2.3595,2.3595,2.3595,2.3595,2.3595,2.3595,2.3595,2.3595,2.3595,2.3595,2.3595,2.3595,2.3595,2.3595,2.3595,2.3246,2.3157,2.3157,2.2543,2.1913,2.1293,2.0944,2.066,2.0446,2.1328,2.169,2.1863,2.3142,2.2966,2.2173,2.2547,2.2009,2.1096,2.0812,2.0647,2.0647,2.1036,2.1605,2.2263,2.2906,2.3325,2.3595,2.3595,2.3595,2.3774,2.4418,2.5136,2.5869,2.6811,2.7305,2.7625,2.7625,2.7625,2.7625,2.7625,2.7625,2.7625,2.7625,2.7625,2.7625,2.7625,2.7625,2.7625,2.7625,2.7625,2.7625,2.7625,2.7625,2.7625,2.7625,2.7625,2.7625,2.7625,2.7625,2.7625,2.7625,2.7625,2.7625,2.7625,2.7625,2.7625,2.7625,2.7625,2.7625,0.0,0.0,0.0,0.0,0.0,0.0,0.0,0.0,0.0,0.0,0.0,0.0,0.0,0.0,0.0,0.0,0.0,0.0,0.0,2.2787,2.2906,2.3535,2.3595,2.3595,2.3595,2.3595,2.3595,2.3595,2.3595,2.3595,2.3595,2.3595,2.3595,2.3595,2.3595,2.3595,2.3595,2.3595,2.3595,2.3595,2.3595,2.352,2.337,2.2922,2.2966,2.3327,2.2712,2.2067,2.1424,2.082,2.0677,2.0832,2.1308,2.1594,2.1816,2.2962,2.2547,2.1515,2.2009,2.1425,2.0453,2.0453,2.0109,1.9854,2.0707,2.1306,2.1859,2.2682,2.3236,2.3595,2.3595,2.3595,2.3729,2.4238,2.5001,2.5839,2.6662,2.723,2.7625,2.7625,2.7625,2.7625,2.7625,2.7625,2.7625,2.7625,2.7625,2.7625,2.7625,2.7625,2.7625,2.7625,2.7625,2.7509,2.7357,2.7306,2.724,2.7071,2.7019,2.7137,2.7306,2.7306,2.7408,2.7625,2.7625,2.7625,2.7625,2.7625,2.7625,2.7625,2.7408,2.7306,0.0,0.0,0.0,0.0,0.0,0.0,0.0,0.0,0.0,0.0,0.0,0.0,0.0,0.0,0.0,0.0,0.0,0.0,2.3475,2.3041,2.2906,2.3535,2.3595,2.3595,2.3595,2.3595,2.3595,2.3595,2.3595,2.3595,2.3595,2.3595,2.3595,2.3595,2.3595,2.3595,2.3595,2.3595,2.3595,2.3595,2.3595,2.3295,2.2768,2.2727,2.2727,2.2715,2.203,2.139,2.0805,2.025,2.0356,2.0792,2.0885,2.1243,2.1816,2.2488,2.1889,2.0782,2.0797,2.0348,1.9735,1.9735,1.972,1.9929,2.1246,2.1665,2.1964,2.3191,2.358,2.3595,2.3595,2.3595,2.361,2.364,2.4657,2.5959,2.7295,2.7595,2.7625,2.7625,2.7625,2.7625,2.7625,2.7625,2.7625,2.7625,2.7625,2.7625,2.7625,2.7625,2.7625,2.7625,2.7625,2.7306,2.6616,2.6563,2.6283,2.5563,2.5508,2.5837,2.651,2.6563,2.6878,2.7575,2.7625,2.7625,2.7625,2.7625,2.7625,2.7575,2.6878,2.6563,0.0,0.0,0.0,0.0,0.0,0.0,0.0,0.0,0.0,0.0,0.0,0.0,0.0,0.0,0.0,0.0,0.0,0.0,2.3565,2.34,2.3355,2.3565,2.3595,2.3595,2.3595,2.3595,2.3595,2.3595,2.3595,2.3595,2.3595,2.3595,2.3595,2.3595,2.3595,2.3595,2.3595,2.3595,2.3595,2.3595,2.3191,2.2892,2.2709,2.2233,2.2278,2.2697,2.2452,2.2001,2.1342,2.0753,2.0594,2.0798,2.1232,2.1281,2.1182,2.2271,2.156,2.0124,2.0557,2.0258,1.969,1.969,1.969,1.9854,2.0782,2.1365,2.1874,2.2757,2.3295,2.3595,2.3595,2.3595,2.3819,2.4687,2.5585,2.6482,2.743,2.7625,2.7625,2.7625,2.7625,2.7625,2.7625,2.7625,2.7458,2.6982,2.6878,2.6707,2.6269,2.6602,2.6878,2.6878,2.7306,2.7306,2.6563,2.651,2.6176,2.5453,2.5398,2.5508,2.5783,2.5783,2.5892,2.6162,2.6215,2.6428,2.6878,2.6878,2.6654,2.6162,2.5892,2.5783,0.0,0.0,0.0,0.0,0.0,0.0,0.0,0.0,0.0,0.0,0.0,0.0,0.0,0.0,0.0,0.0,0.0,0.0,2.3595,2.3595,2.3595,2.3595,2.3595,2.3595,2.3595,2.3595,2.3595,2.3595,2.3595,0.0,2.3595,2.3595,2.3595,2.3595,2.34,2.3385,2.3595,2.3176,2.3071,2.3281,2.2652,2.2137,2.1736,2.1481,2.1511,2.1736,2.1729,2.1698,2.1642,2.1078,2.0682,2.0486,2.0934,2.0826,2.0567,2.1655,2.1021,1.975,2.0213,2.0064,1.969,1.969,1.9839,2.0124,2.0572,2.1335,2.2113,2.2547,2.3116,2.3595,2.3595,2.3595,2.3939,2.5285,2.5738,2.6125,2.7062,2.7408,2.7524,2.7306,2.7408,2.7458,2.6967,2.7086,2.6982,2.6229,2.6122,2.596,2.5453,2.5837,2.6122,2.6122,2.6549,2.6534,2.5837,2.5728,2.5453,2.4667,2.461,2.4724,2.5007,2.5007,2.5119,2.5398,2.5398,2.5508,2.5728,2.6014,2.5892,2.5398,2.5119,2.4894,0.0,0.0,0.0,0.0,0.0,0.0,0.0,0.0,0.0,0.0,0.0,0.0,0.0,0.0,0.0,0.0,0.0,0.0,2.3551,2.3595,2.3595,2.3595,2.3595,2.3595,2.3595,2.3595,2.3595,2.3595,2.3595,2.3595,2.3595,2.3595,2.3551,2.3551,2.2954,2.2924,2.3507,2.2282,2.1968,2.2637,2.1939,2.1045,1.9915,2.0425,2.0386,1.9872,1.9745,2.045,2.1571,2.1053,2.0457,1.9877,1.99,1.9886,1.9937,2.0502,2.0288,1.969,1.969,1.969,1.969,1.969,2.0139,2.0677,2.0677,2.1605,2.2694,2.2694,2.3101,2.3595,2.3595,2.3566,2.391,2.5239,2.4999,2.4855,2.6184,2.7034,2.7306,2.6616,2.7034,2.7071,2.5673,2.6014,2.6229,2.5453,2.5342,2.5342,2.5342,2.5342,2.5342,2.5342,2.5398,2.5119,2.435,2.4292,2.3943,2.3125,2.3078,2.3424,2.4234,2.4292,2.4624,2.5342,2.5342,2.4951,2.4292,2.5007,2.5342,2.5287,2.4624,2.3826,1.7191,0.0,0.0,0.0,0.0,0.0,0.0,0.0,0.0,0.0,0.0,0.0,0.0,0.0,0.0,0.0,0.0,0.0,2.3009,2.3334,2.3595,2.3595,2.3595,2.3595,2.3595,2.3595,2.3595,0.0,2.3595,2.3595,2.3595,2.3201,2.2725,2.2225,2.1705,2.1478,2.1634,2.0912,2.0642,2.0813,2.0117,1.9864,1.9908,1.9543,1.9585,1.9908,1.9866,1.9823,1.9796,1.9545,1.9332,1.9234,1.9726,1.9595,1.9301,2.0324,2.0288,1.969,1.969,1.969,1.969,1.969,1.9809,1.9974,1.9974,2.0902,2.1964,2.1964,2.2757,2.3508,2.3054,2.3314,2.3775,2.4063,2.432,2.4735,2.556,2.5837,2.5946,2.5728,2.5892,2.5892,2.5453,2.5563,2.5453,2.4738,2.4624,2.4394,2.3813,2.4221,2.4624,2.4624,2.5063,2.5119,2.435,2.4292,2.3943,2.3125,2.3078,2.3198,2.3424,2.3424,2.3531,2.3695,2.3754,2.3649,2.3424,2.4221,2.4337,2.3695,2.3531,2.3305,0.0,0.0,0.0,0.0,0.0,0.0,2.0677,2.0815,2.079,0.0,1.966,0.0,0.0,0.0,0.0,0.0,0.0,2.2696,2.2346,2.2815,2.3143,2.2831,2.326,2.3508,2.3246,2.3465,2.3508,2.3246,2.3231,2.3098,2.2831,2.2469,2.21,2.1697,2.0896,2.0637,2.09,1.9821,1.9391,1.967,1.9003,1.8728,1.8805,1.8618,1.8659,1.8818,1.9072,1.8948,1.8671,1.8344,1.8369,1.8644,1.9487,1.9448,1.9011,1.9938,2.0034,1.969,1.969,1.969,1.969,1.969,1.9884,2.0072,1.9767,2.0828,2.2058,2.1783,2.2422,2.3098,2.2438,2.2569,2.2946,2.315,2.3259,2.3513,2.4381,2.4348,2.4259,2.4854,2.5175,2.5175,2.4553,2.4724,2.4681,2.3884,2.3826,2.3649,2.3125,2.3543,2.3826,2.3826,2.415,2.4266,2.3826,2.3826,2.359,2.3138,2.3078,2.3078,2.3078,2.3078,2.3078,2.3078,2.3078,2.3078,2.3078,2.3603,2.3543,2.3078,2.3078,2.3078,0.0,0.0,0.0,0.0,0.0,0.0,1.9798,2.01,2.0278,1.8317,1.8706,0.0,0.0,0.0,0.0,0.0,0.0,2.1589,2.1615,2.2253,2.2498,2.1899,2.2891,2.3377,2.283,2.3231,2.329,2.274,2.2649,2.23,2.1663,2.1615,2.1568,2.1506,2.0379,2.0096,2.0658,1.8933,1.8317,1.8907,1.8235,1.7707,1.7334,1.7815,1.7774,1.7334,1.7815,1.8002,1.7987,1.7544,1.7666,1.8185,1.9169,1.9281,1.8968,1.9479,1.969,1.969,1.969,1.969,1.969,1.969,2.0094,2.0489,1.9986,2.1076,2.2369,2.1874,2.2128,2.2452,2.1758,2.1615,2.1767,2.235,2.1961,2.1812,2.2942,2.2693,2.2622,2.3864,2.4684,2.4724,2.3365,2.3708,2.3943,2.3185,2.3078,2.3078,2.3078,2.3078,2.3078,2.3078,2.3078,2.3078,2.3078,2.3078,2.3078,2.3078,2.3078,2.3078,2.3078,2.3078,2.3078,2.3078,2.3078,2.3078,2.3078,2.3078,2.3078,2.3078,2.3078,2.3078,0.0,0.0,0.0,0.0,0.0,0.0,2.1468,2.1493,2.133,0.0,2.1518,0.0,0.0,0.0,0.0,0.0,0.0,2.0927,2.0947,2.1988,2.2649,2.2498,2.3143,2.3551,2.3421,2.3098,2.283,2.2694,2.2193,2.1629,2.1028,2.0979,2.0733,2.0181,1.9504,1.9223,1.9387,1.817,1.7606,1.7696,1.7119,1.7007,1.7378,1.7511,1.7466,1.7378,1.7511,1.7518,1.7463,1.7827,1.8027,1.8145,1.8341,1.8612,1.8968,1.9479,1.969,1.969,1.969,1.969,1.969,1.969,1.9779,1.9989,2.0376,2.0768,2.1182,2.1591,2.1801,2.1758,2.1113,2.0979,2.0977,2.1082,2.096,2.1056,2.1716,2.211,2.2405,2.2622,2.3165,2.3471,2.3125,2.3245,2.3305,2.3138,2.3078,2.3078,2.3078,2.3078,2.3078,2.3078,2.3078,2.3078,2.3078,2.3078,2.3078,2.3078,2.3078,2.3078,2.3078,2.3078,2.3078,2.3078,2.3078,2.3078,2.3078,2.3078,2.3078,2.3078,2.3078,2.3078,0.0,0.0,0.0,2.0097,0.0,0.0,0.0,2.128,2.133,2.079,0.0,0.0,0.0,0.0,0.0,0.0,2.079,2.0484,2.1067,2.1502,2.1657,2.1293,2.2086,2.2515,2.2239,2.2193,2.2067,2.1799,2.1148,2.062,2.0295,2.0295,2.0156,1.9798,1.9296,1.8983,1.8983,1.794,1.7388,1.7375,1.6798,1.6672,1.6948,1.6948,1.6948,1.6948,1.7229,1.7307,1.7353,1.7867,1.8106,1.8145,1.838,1.8817,1.9281,1.9281,1.9479,1.9735,2.0079,2.0198,2.0198,2.0198,2.0423,2.0623,2.0327,2.047,2.0813,2.1179,2.1245,2.1113,2.0497,2.0295,2.0271,2.0267,2.0238,2.0388,2.0953,2.1506,2.1983,2.2259,2.2761,2.3078,2.3078,2.3078,2.3078,2.3078,2.3078,2.3078,2.3078,2.3078,2.3078,2.3078,2.3078,2.3078,2.3078,2.3078,2.3078,2.3078,2.3078,2.3078,2.3078,2.3078,2.2884,2.2506,2.2051,2.1865,2.1865,2.1865,2.231,2.3078,2.2702,2.2506,0.0,0.0,0.0,0.0,0.0,2.0727,0.0,0.0,0.0,0.0,0.0,0.0,0.0,0.0,0.0,0.0,0.0,0.0,0.0,2.108,0.0,2.036,2.1135,2.1561,2.1189,2.1469,2.1367,2.0646,2.0207,1.9924,1.9811,1.9798,1.9798,1.9798,1.9397,1.9171,1.9171,1.8091,1.7539,1.7539,1.6848,1.6522,1.6522,1.6522,1.6522,1.6522,1.7076,1.7312,1.7353,1.7867,1.8185,1.8302,1.8727,1.9169,1.953,1.9169,1.9332,1.9765,2.0318,2.0513,2.0543,2.0677,2.1153,2.1439,2.0166,2.0295,2.0746,2.0646,2.0597,2.0497,1.9952,1.9798,1.9798,1.9798,1.9798,1.9962,2.0592,2.1104,2.1656,2.2209,2.2761,2.3078,2.3078,2.3078,2.3078,2.3078,2.3078,2.3078,2.3078,2.3078,2.3078,2.3078,2.3078,2.3078,2.3078,2.3078,2.3078,2.3078,2.2944,2.2884,2.2884,2.2689,2.231,2.1678,2.0974,2.059,2.059,2.059,2.129,2.2628,2.1939,2.1616,0.0,0.0,0.0,0.0,1.8844,0.0,0.0,0.0,0.0,0.0,0.0,0.0,0.0,0.0,0.0,0.0,0.0,0.0,2.1468,2.1062,2.1049,2.2007,2.188,2.187,2.2336,2.1904,2.1146,1.999,2.0328,2.0338,1.9823,1.9798,1.9798,1.9798,1.9748,1.971,1.971,1.8656,1.8116,1.8103,1.7024,1.6522,1.6522,1.6522,1.6522,1.6522,1.7076,1.7312,1.7353,1.7867,1.838,1.8817,1.8893,1.893,1.9043,1.9442,1.9639,1.969,1.9779,1.9794,1.9899,2.0513,2.1156,2.1469,2.0207,2.0246,2.0696,2.0105,1.9901,1.9901,1.9798,1.9798,1.9798,1.9798,1.9798,1.9962,2.0592,2.1104,2.1656,2.2209,2.2761,2.3078,2.3078,2.3078,2.3078,2.3078,2.3078,2.3078,2.3078,2.3078,2.3078,2.3078,2.3078,2.3078,2.3078,2.3078,2.3078,2.3078,2.2445,2.2075,2.2075,2.129,2.0846,2.0719,2.0655,2.059,2.059,2.059,2.0719,2.091,2.0782,2.0719,0.0,0.0,0.0,0.0,0.0,0.0,2.0803,0.0,2.2485,0.0,0.0,0.0,0.0,0.0,0.0,0.0,2.2058,0.0,0.0,0.0,2.0974,0.0,0.0,0.0,2.1524,2.1263,2.0717,1.9836,2.0338,2.0413,1.9836,1.9798,1.9798,1.9798,1.9798,1.9798,1.9798,1.9058,1.8518,1.8191,1.74,1.6848,1.6522,1.6522,1.6522,1.6522,1.7076,1.7312,1.7353,1.7867,1.8224,1.8458,1.8779,1.9095,1.9369,1.9281,1.9694,2.0348,2.0722,2.0848,2.0925,2.1198,2.0971,2.0555,2.043,2.0315,2.0156,1.9901,1.9798,1.9798,1.9798,1.9798,1.9798,1.9798,1.9798,1.9874,2.0112,2.0865,2.1556,2.1794,2.2535,2.3078,2.3078,2.3078,2.3078,2.3078,2.3078,2.3078,2.3078,2.3078,2.3078,2.3078,2.3078,2.2884,2.2445,2.2384,2.2187,2.1667,2.1353,2.1175,2.1175,2.0333,1.9814,1.9814,1.9561,1.9303,1.911,1.9303,1.9292,1.911,1.9628,1.9814,1.6632,0.0,0.0,0.0,0.0,0.0,0.0,0.0,0.0,0.0,0.0,0.0,0.0,0.0,0.0,0.0,0.0,0.0,0.0,0.0,0.0,0.0,0.0,0.0,0.0,2.1029,2.0815,2.0087,2.0577,2.0577,1.9849,1.9798,1.9798,1.9798,1.9798,1.9798,1.9798,1.9133,1.8606,1.8191,1.7488,1.6923,1.6522,1.6522,1.6522,1.6522,1.7076,1.7229,1.7105,1.7827,1.8106,1.8145,1.8535,1.9197,1.9922,1.9522,1.9958,2.0812,2.147,2.1674,2.1641,2.1277,2.0697,2.0109,2.0429,2.0207,1.9798,1.9798,1.9798,1.9798,1.9798,1.9798,1.9798,1.9798,1.9798,1.9849,1.9999,2.0803,2.1531,2.1681,2.2485,2.3078,2.3078,2.3078,2.3078,2.3078,2.3078,2.3078,2.3078,2.3078,2.3005,2.2823,2.2763,2.2445,2.1616,2.1553,2.1164,2.0268,2.0268,2.0139,1.989,1.9299,1.8911,1.8911,1.8755,1.8428,1.8008,1.8428,1.8418,1.8008,1.8654,1.8911,0.0,0.0,0.0,1.9357,0.0,0.0,0.0,0.0,2.1543,0.0,0.0,0.0,0.0,0.0,0.0,0.0,0.0,0.0,0.0,0.0,0.0,0.0,0.0,0.0,0.0,2.1945,2.1807,2.0769,2.1154,2.0978,1.9861,1.9798,1.9798,1.9798,1.9798,1.9798,1.9798,1.8756,1.8229,1.8191,1.7074,1.6534,1.6522,1.6522,1.6522,1.6522,1.7076,1.6993,1.6595,1.7666,1.8106,1.8106,1.8145,1.9165,2.0677,2.0639,2.0654,2.0812,2.147,2.1674,2.1495,2.0281,2.0285,2.0633,1.9991,1.9798,1.9798,1.9798,1.9798,1.9798,1.9798,1.9798,1.9798,1.9798,1.9798,1.9962,2.0567,2.1091,2.1644,2.2184,2.2749,2.3078,2.3078,2.3078,2.3078,2.3078,2.3078,2.3078,2.3078,2.3078,2.2823,2.2002,2.1939,2.1565,2.0719,2.0655,2.0268,1.9431,1.9365,1.8977,1.8144,1.8076,1.8008,1.8008,1.8418,1.8428,1.8008,1.8428,1.8418,1.8008,1.8008,1.8008,0.0,0.0,1.7835,1.8811,0.0,0.0,0.0,0.0,0.0,0.0,0.0,0.0,0.0,0.0,0.0,0.0,0.0,0.0,0.0,0.0,0.0,0.0,0.0,0.0,0.0,0.0,2.1066,2.0743,2.0489,2.0213,1.9823,1.9798,1.9798,1.9798,1.9798,1.9798,1.9798,1.9108,1.8568,1.8191,1.7451,1.6886,1.6522,1.6522,1.6522,1.6522,1.668,1.668,1.6522,1.6879,1.7229,1.7666,1.8453,1.9339,2.0177,2.0177,2.0971,2.1977,2.1772,2.1439,2.0975,2.0062,1.9952,2.0105,1.985,1.9798,1.9798,1.9798,1.9798,1.9886,2.0275,2.0087,1.9899,2.0288,2.0075,1.9962,2.0592,2.1104,2.1656,2.2209,2.2761,2.3078,2.3078,2.2628,2.2506,2.3005,2.2641,2.2322,2.2322,2.1803,2.1353,2.1037,2.1049,2.0778,2.0178,1.9614,1.9026,1.8482,1.8462,1.8466,1.8418,1.8154,1.7925,1.7814,1.7962,1.7451,1.6393,1.6832,1.6701,1.6158,1.6158,1.6793,1.598,1.6937,0.0,1.8815,1.9548,0.0,2.063,0.0,0.0,0.0,0.0,0.0,0.0,0.0,0.0,0.0,0.0,0.0,0.0,2.2623,0.0,0.0,0.0,0.0,0.0,0.0,2.1142,2.0162,2.01,1.9936,1.9547,1.9522,1.961,1.9798,1.9798,1.9798,1.9798,1.9284,1.8744,1.8191,1.7652,1.7074,1.6522,1.6522,1.6522,1.6522,1.6522,1.6522,1.6522,1.671,1.7109,1.771,1.8728,1.971,2.0549,2.0808,2.1645,2.2571,2.168,2.1113,2.0696,2.0003,1.9798,1.9798,1.9798,1.9798,1.9798,1.9798,1.9798,1.9886,2.0263,2.0075,1.9899,2.0275,2.0238,2.0213,2.0643,2.102,2.1399,2.1743,2.2067,2.2175,2.2175,2.1803,2.1753,2.2567,2.2002,2.1428,2.1428,2.0974,2.0462,2.0139,2.0292,2.0114,1.9479,1.8904,1.8525,1.8252,1.8096,1.8054,1.8256,1.7887,1.7539,1.7275,1.7229,1.6723,1.5929,1.6046,1.5799,1.5353,1.5221,1.5877]},{"header":{"parameterUnit":"m.s-1","parameterCategory":1,"la1":30.6,"la2":29.2853,"lo1":-89.7004,"lo2":-87.6739,"dx":0.0162,"dy":0.0183,"nx":112,"ny":82,"refTime":"2023-01-29T06:00:00:Z","depth":0,"parameterNumber":3,"parameterNumberName":"V-component_of_WINDS"},"data":[0.0,0.0,0.0,0.0,0.0,0.0,0.0,0.0,0.0,0.0,0.0,0.0,0.0,0.0,0.0,0.0,0.0,0.0,0.0,0.0,0.0,0.0,0.0,0.0,0.0,0.0,0.0,0.0,0.0,0.0,0.0,0.0,0.0,0.0,0.0,0.0,0.0,0.0,0.0,0.0,0.0,0.0,0.0,0.0,0.0,0.0,0.0,0.0,0.0,0.0,0.0,0.0,0.0,0.0,0.0,0.0,0.0,0.0,0.0,0.0,0.0,0.0,0.0,0.0,0.0,0.0,0.0,0.0,0.0,0.0,0.0,0.0,0.0,0.0,0.0,0.0,0.0,0.0,0.0,0.0,0.0,0.0,0.0,0.0,0.0,0.0,0.0,0.0,0.0,0.0,0.0,-1.0517,-0.9961,-0.9666,-0.9666,-1.0864,-1.1665,-1.1665,0.0,0.0,0.0,0.0,0.0,0.0,0.0,0.0,0.0,0.0,0.0,0.0,0.0,0.0,0.0,0.0,0.0,0.0,0.0,0.0,0.0,0.0,0.0,0.0,0.0,0.0,0.0,0.0,0.0,0.0,0.0,0.0,0.0,0.0,0.0,0.0,0.0,0.0,0.0,0.0,0.0,0.0,0.0,0.0,0.0,0.0,0.0,0.0,0.0,0.0,0.0,0.0,0.0,0.0,0.0,0.0,0.0,0.0,0.0,0.0,0.0,0.0,0.0,0.0,0.0,0.0,0.0,0.0,0.0,0.0,0.0,0.0,0.0,0.0,0.0,0.0,0.0,0.0,0.0,0.0,0.0,0.0,0.0,0.0,0.0,0.0,0.0,0.0,0.0,0.0,0.0,0.0,0.0,0.0,0.0,0.0,0.0,0.0,0.0,0.0,0.0,0.0,0.0,0.0,-0.971,-0.9159,-0.9008,-0.8956,-0.8956,-1.0167,-1.0965,-1.0965,0.0,0.0,0.0,0.0,0.0,0.0,0.0,0.0,0.0,0.0,0.0,0.0,0.0,0.0,0.0,0.0,0.0,0.0,0.0,0.0,0.0,0.0,0.0,0.0,0.0,0.0,0.0,0.0,0.0,0.0,0.0,0.0,0.0,0.0,0.0,0.0,0.0,0.0,0.0,0.0,0.0,0.0,0.0,0.0,0.0,0.0,0.0,0.0,0.0,0.0,0.0,0.0,0.0,0.0,0.0,0.0,0.0,0.0,0.0,0.0,0.0,0.0,0.0,0.0,0.0,0.0,0.0,0.0,0.0,0.0,0.0,0.0,0.0,0.0,0.0,0.0,0.0,0.0,0.0,0.0,0.0,0.0,0.0,0.0,0.0,0.0,0.0,0.0,0.0,0.0,0.0,0.0,0.0,0.0,0.0,0.0,0.0,0.0,0.0,0.0,0.0,0.0,0.0,-0.9961,-0.9562,-0.8857,-0.9113,-0.9465,-0.9865,-1.0466,-1.1124,-1.1891,-1.3311,0.0,0.0,0.0,0.0,0.0,0.0,0.0,0.0,0.0,0.0,0.0,0.0,0.0,0.0,0.0,0.0,0.0,0.0,0.0,0.0,0.0,0.0,0.0,0.0,0.0,0.0,0.0,0.0,0.0,0.0,0.0,0.0,0.0,0.0,0.0,0.0,0.0,0.0,0.0,0.0,0.0,0.0,0.0,0.0,0.0,0.0,0.0,0.0,0.0,0.0,0.0,0.0,0.0,0.0,0.0,0.0,0.0,0.0,0.0,0.0,0.0,0.0,0.0,0.0,0.0,0.0,0.0,0.0,0.0,0.0,0.0,0.0,0.0,0.0,0.0,0.0,0.0,0.0,0.0,0.0,0.0,0.0,0.0,0.0,0.0,0.0,0.0,0.0,0.0,0.0,0.0,0.0,0.0,0.0,0.0,0.0,0.0,0.0,0.0,0.0,0.0,0.0,-0.9263,-0.9361,-0.8857,-0.9263,-0.9762,-1.0261,-1.0466,-1.1074,-1.2314,-1.3215,0.0,0.0,0.0,0.0,0.0,0.0,0.0,0.0,0.0,0.0,0.0,0.0,0.0,0.0,0.0,0.0,0.0,0.0,0.0,0.0,0.0,0.0,0.0,0.0,0.0,0.0,0.0,0.0,0.0,0.0,0.0,0.0,0.0,0.0,0.0,0.0,0.0,0.0,0.0,0.0,0.0,0.0,0.0,0.0,0.0,0.0,0.0,0.0,0.0,0.0,0.0,0.0,0.0,0.0,0.0,0.0,0.0,0.0,0.0,0.0,0.0,0.0,0.0,0.0,0.0,0.0,0.0,0.0,0.0,0.0,0.0,0.0,0.0,0.0,0.0,0.0,0.0,0.0,0.0,0.0,0.0,0.0,0.0,0.0,0.0,0.0,0.0,0.0,0.0,0.0,0.0,0.0,0.0,0.0,0.0,0.0,0.0,0.0,0.0,0.0,0.0,0.0,-0.8857,-0.8857,-0.8811,-0.8857,-0.891,-0.8956,-0.951,-1.0167,-1.0922,-1.2696,0.0,0.0,0.0,0.0,0.0,0.0,0.0,0.0,0.0,0.0,0.0,0.0,0.0,0.0,0.0,0.0,0.0,0.0,0.0,0.0,0.0,0.0,0.0,0.0,0.0,0.0,0.0,0.0,0.0,0.0,0.0,0.0,0.0,0.0,0.0,0.0,0.0,0.0,0.0,0.0,0.0,0.0,0.0,0.0,0.0,0.0,0.0,0.0,0.0,0.0,0.0,0.0,0.0,0.0,0.0,0.0,0.0,0.0,0.0,0.0,0.0,0.0,0.0,0.0,0.0,0.0,0.0,0.0,0.0,0.0,0.0,0.0,0.0,0.0,0.0,0.0,0.0,0.0,0.0,0.0,0.0,0.0,0.0,0.0,0.0,0.0,0.0,0.0,0.0,0.0,0.0,0.0,0.0,0.0,0.0,0.0,0.0,0.0,0.0,0.0,0.0,0.0,-0.745,-0.7616,0.0,-0.8103,-0.8468,-0.9361,-0.9256,-0.9814,-1.1316,0.0,0.0,0.0,0.0,0.0,0.0,0.0,0.0,0.0,0.0,0.0,0.0,0.0,0.0,0.0,0.0,0.0,0.0,0.0,0.0,0.0,0.0,0.0,0.0,0.0,0.0,0.0,0.0,0.0,0.0,0.0,0.0,0.0,0.0,0.0,0.0,0.0,0.0,0.0,0.0,0.0,0.0,0.0,0.0,0.0,0.0,0.0,0.0,0.0,0.0,0.0,0.0,0.0,0.0,0.0,0.0,0.0,0.0,0.0,0.0,0.0,0.0,0.0,0.0,0.0,0.0,0.0,0.0,0.0,0.0,0.0,0.0,0.0,0.0,0.0,0.0,0.0,0.0,0.0,0.0,0.0,0.0,0.0,0.0,0.0,0.0,0.0,0.0,0.0,0.0,0.0,0.0,0.0,0.0,0.0,0.0,0.0,0.0,0.0,0.0,0.0,0.0,-0.6588,-0.6588,-0.6804,0.0,-0.7348,-0.7818,-0.9026,-0.8732,-0.934,-1.1366,0.0,0.0,0.0,0.0,0.0,0.0,0.0,0.0,0.0,0.0,0.0,0.0,0.0,0.0,0.0,0.0,0.0,0.0,0.0,0.0,0.0,0.0,0.0,0.0,0.0,0.0,0.0,0.0,0.0,0.0,0.0,0.0,0.0,0.0,0.0,0.0,0.0,0.0,0.0,0.0,0.0,0.0,0.0,0.0,0.0,0.0,0.0,0.0,0.0,0.0,0.0,0.0,0.0,0.0,0.0,0.0,0.0,0.0,0.0,0.0,0.0,0.0,0.0,0.0,0.0,0.0,0.0,0.0,0.0,0.0,0.0,0.0,0.0,0.0,0.0,0.0,0.0,0.0,0.0,0.0,0.0,0.0,0.0,0.0,0.0,0.0,0.0,0.0,0.0,0.0,0.0,0.0,0.0,0.0,0.0,0.0,0.0,0.0,0.0,0.0,0.0,0.0,-0.6588,-0.6588,-0.6588,-0.6588,-0.6588,-0.6912,-0.7616,-0.767,-0.8547,0.0,0.0,0.0,0.0,0.0,0.0,0.0,0.0,0.0,0.0,0.0,0.0,0.0,0.0,0.0,0.0,0.0,0.0,0.0,0.0,0.0,0.0,0.0,0.0,0.0,0.0,0.0,0.0,0.0,0.0,0.0,0.0,0.0,0.0,0.0,0.0,0.0,0.0,0.0,0.0,0.0,0.0,0.0,0.0,0.0,0.0,0.0,0.0,0.0,0.0,0.0,0.0,0.0,0.0,0.0,0.0,0.0,0.0,0.0,0.0,0.0,0.0,0.0,0.0,0.0,0.0,0.0,0.0,0.0,0.0,0.0,0.0,0.0,0.0,0.0,0.0,0.0,0.0,0.0,0.0,0.0,0.0,0.0,0.0,0.0,0.0,0.0,0.0,0.0,0.0,0.0,0.0,0.0,0.0,0.0,0.0,0.0,0.0,0.0,0.0,0.0,0.0,0.0,-0.5132,-0.5132,-0.512,-0.5093,-0.5538,-0.6145,-0.6858,-0.6912,-0.7593,-0.92,0.0,0.0,0.0,0.0,0.0,0.0,0.0,0.0,0.0,0.0,0.0,0.0,0.0,0.0,0.0,0.0,0.0,0.0,0.0,0.0,0.0,0.0,0.0,0.0,0.0,0.0,0.0,0.0,0.0,0.0,0.0,0.0,0.0,0.0,0.0,0.0,0.0,0.0,0.0,0.0,0.0,0.0,0.0,0.0,0.0,0.0,0.0,0.0,0.0,0.0,0.0,0.0,0.0,0.0,0.0,0.0,0.0,0.0,0.0,0.0,0.0,0.0,0.0,0.0,0.0,0.0,0.0,0.0,0.0,0.0,0.0,0.0,0.0,0.0,0.0,0.0,0.0,0.0,0.0,0.0,0.0,0.0,0.0,0.0,0.0,0.0,0.0,0.0,0.0,0.0,0.0,0.0,0.0,0.0,0.0,0.0,0.0,0.0,0.0,0.0,0.0,0.0,-0.3688,-0.3574,-0.3796,-0.4457,-0.4846,-0.5281,-0.5701,-0.5756,-0.6499,-0.814,0.0,0.0,0.0,0.0,0.0,0.0,0.0,0.0,0.0,0.0,0.0,0.0,0.0,0.0,0.0,0.0,0.0,0.0,0.0,0.0,0.0,0.0,0.0,0.0,0.0,0.0,0.0,0.0,0.0,0.0,0.0,0.0,0.0,0.0,0.0,0.0,0.0,0.0,0.0,0.0,0.0,0.0,0.0,0.0,0.0,0.0,0.0,0.0,0.0,0.0,0.0,0.0,0.0,0.0,0.0,0.0,0.0,0.0,0.0,0.0,0.0,0.0,0.0,0.0,0.0,0.0,0.0,0.0,0.0,0.0,0.0,0.0,0.0,0.0,0.0,0.0,0.0,0.0,0.0,0.0,0.0,0.0,0.0,0.0,0.0,0.0,0.0,0.0,0.0,0.0,0.0,0.0,0.0,0.0,0.0,0.0,0.0,0.0,0.0,0.0,0.0,0.0,-0.2399,-0.2063,-0.2514,-0.3928,-0.4209,-0.4307,-0.4268,-0.4433,-0.5295,-0.7175,0.0,0.0,0.0,0.0,0.0,0.0,0.0,0.0,0.0,0.0,0.0,0.0,0.0,0.0,0.0,0.0,0.0,0.0,0.0,0.0,0.0,0.0,0.0,0.0,0.0,0.0,0.0,0.0,0.0,0.0,0.0,0.0,0.0,0.0,0.0,0.0,0.0,0.0,0.0,0.0,0.0,0.0,0.0,0.0,0.0,0.0,0.0,0.0,0.0,0.0,0.0,0.0,0.0,0.0,0.0,0.0,0.0,0.0,0.0,0.0,0.6961,0.0,0.0,0.0,0.0,0.0,0.0,0.0,0.0,0.0,0.0,0.0,0.0,0.0,0.0,0.0,0.0,0.0,0.0,0.0,0.0,0.0,0.0,0.0,0.0,0.0,0.0,0.0,0.0,0.0,0.0,0.0,0.0,0.0,0.0,0.0,0.0,0.0,0.0,0.0,0.0,0.0,-0.2232,-0.1172,-0.0614,-0.0949,-0.2009,-0.2679,-0.2672,-0.3796,-0.4688,-0.5148,-0.5299,0.0,0.0,0.0,0.0,0.0,0.0,0.0,0.0,0.0,0.0,0.0,0.0,0.0,0.0,0.0,0.0,0.0,0.0,0.0,0.0,0.0,0.0,0.0,0.0,0.0,0.0,0.0,0.0,0.0,0.0,0.0,0.0,0.0,0.0,0.0,0.0,0.0,0.0,0.0,0.0,0.0,0.0,0.0,0.0,0.0,0.0,0.0,0.0,0.0,0.0,0.0,0.0,0.0,0.0,0.0,0.0,0.0,0.0,0.0,0.0,0.7128,0.0,0.0,0.0,0.0,0.0,0.0,0.0,0.0,0.0,0.0,0.0,0.0,0.0,0.0,0.0,0.0,0.0,0.0,0.0,0.0,0.0,0.0,0.0,0.0,0.0,0.0,0.0,0.0,0.0,0.0,0.0,0.0,0.0,0.0,0.0,0.0,0.0,0.0,0.0,0.0,0.0,-0.0056,0.0,0.0,-0.067,-0.1117,-0.1115,-0.1899,-0.2623,-0.3337,-0.3377,0.0,0.0,0.0,0.0,0.0,0.0,0.0,0.0,0.0,0.0,0.0,0.0,0.0,0.0,0.0,0.0,0.0,0.0,0.0,0.0,0.0,0.0,0.0,0.0,0.0,0.0,0.0,0.0,0.0,0.0,0.0,0.0,0.0,0.0,0.0,0.0,0.0,0.0,0.0,0.0,0.0,0.0,0.0,0.0,0.0,0.0,0.0,0.0,0.0,0.0,0.0,0.0,0.0,0.9159,0.9113,0.8956,0.8956,0.8903,0.8752,0.8156,0.7883,0.7883,0.7883,0.0,0.0,0.0,0.0,0.0,0.0,0.0,0.0,0.0,0.0,0.0,0.0,0.0,0.0,0.0,0.0,0.0,0.0,0.0,0.0,0.0,0.0,0.0,0.0,0.732,0.7326,0.7343,0.0,0.0,0.0,0.0,0.0,0.0,0.0,0.0,0.0,0.0,0.0,0.2777,0.153,0.067,0.0391,0.0168,0.0,0.0,0.0,-0.0502,-0.173,-0.1829,-0.2375,0.0,0.0,0.0,0.0,0.0,0.0,0.0,0.0,0.0,0.0,0.0,0.0,0.0,0.0,0.0,0.0,0.0,0.0,0.0,0.0,0.0,0.0,0.0,0.0,0.0,0.0,0.0,0.0,0.0,0.0,0.0,0.0,1.0764,0.9799,0.0,0.0,0.0,0.0,0.0,0.0,0.0,0.0,0.0,0.0,0.0,0.0,0.0,1.1186,1.1292,1.1186,1.0926,1.0517,1.0517,1.021,0.9666,0.9666,0.9361,0.8804,0.8699,0.0,0.8646,0.8646,0.0,0.0,0.0,0.0,0.0,0.0,0.0,0.0,0.0,0.0,0.0,0.0,0.0,0.0,0.0,0.0,0.0,0.0,0.0,0.0,0.0,0.0,1.0238,1.0238,1.0238,1.0238,0.0,0.8317,0.6534,0.6367,0.6312,0.0,0.0,0.0,0.0,0.0,0.0,0.0,0.4239,0.4027,0.3416,0.2063,0.0781,0.0,0.0,0.0,-0.0056,-0.028,-0.0279,-0.0389,-0.0607,-0.3366,0.0,0.0,0.0,0.0,0.0,0.0,0.0,0.0,0.0,0.0,0.0,0.0,0.0,0.0,0.0,0.0,0.0,0.0,0.0,0.0,0.0,0.0,0.0,0.0,0.0,0.0,0.0,0.0,0.0,1.1507,1.1661,1.0506,1.1039,1.1218,0.0,0.0,0.0,0.0,0.0,0.0,0.0,0.0,0.0,1.2255,1.1524,1.142,1.2061,1.142,1.1129,1.117,1.0912,1.0669,1.0364,1.0364,1.0218,0.9917,0.9917,0.9917,0.9917,0.951,0.9361,0.9413,0.0,0.0,0.0,0.0,0.9917,0.9969,1.0261,1.0167,1.0012,1.0618,0.0,0.0,0.0,0.0,0.0,0.0,0.0,0.0,0.0,0.0,1.0813,1.0813,1.0813,1.0813,1.0813,0.9828,0.8829,0.0,0.8047,0.7635,0.7256,0.0,0.0,0.0,0.0,0.5817,0.584,0.5056,0.4229,0.3553,0.2899,0.2178,0.1282,0.0503,0.0,0.0,0.0,0.0,0.0,-0.1276,-0.2941,0.0,0.0,0.0,0.0,0.0,0.0,0.0,0.0,0.0,0.0,0.0,0.0,0.0,0.0,0.0,0.0,0.0,0.0,0.0,0.0,0.0,0.0,0.0,0.0,0.0,0.0,0.0,0.0,1.2223,1.2461,1.1226,1.1688,1.1843,0.0,0.0,0.0,0.0,0.0,0.0,1.2608,1.2295,1.2391,1.3037,1.2045,1.1875,1.2767,1.1935,1.1618,1.1852,1.1514,1.1225,1.1065,1.1065,1.0965,1.0813,1.0813,1.0813,1.0762,1.0261,1.0064,1.0115,1.0618,1.0813,1.0813,1.0813,1.0813,1.0813,1.1015,1.1057,1.1099,1.1458,1.1648,1.1886,1.2385,0.0,0.0,0.0,0.0,1.1787,1.1787,1.1787,1.1738,1.1598,1.1557,1.1507,1.1375,1.1166,1.0847,0.0,0.96,0.9089,0.8495,0.0,0.0,0.0,0.0,0.6698,0.7083,0.5724,0.4758,0.4758,0.4577,0.4033,0.2901,0.1786,0.1004,0.0614,0.0224,0.0,0.0,0.0335,-0.0502,-0.2736,0.0,0.0,0.0,0.0,0.0,0.0,0.0,0.0,0.0,0.0,0.0,0.0,0.0,0.0,0.0,0.0,0.0,0.0,0.0,0.0,0.0,0.0,0.0,0.0,0.0,0.0,0.0,0.0,0.0,1.1904,1.3049,0.0,0.0,0.0,0.0,1.1814,1.1814,1.1814,1.1864,1.2501,1.3057,1.3467,1.3416,1.3375,1.3455,1.3375,1.3181,1.2812,1.2783,1.2452,1.1765,1.1765,1.1416,1.0813,1.0813,1.0813,1.0813,1.0762,1.0771,1.0762,1.0762,1.0813,1.0813,1.0813,1.0813,1.0914,1.1516,1.1688,1.1859,1.3215,1.4039,1.4514,1.456,1.456,0.0,0.0,1.4514,1.4503,1.4503,1.4503,1.4365,1.3815,1.3674,1.3494,1.291,1.2246,1.1566,0.0,1.0712,1.0661,1.0653,0.0,0.8901,0.9569,0.7919,0.6864,0.7574,0.6362,0.5433,0.5433,0.4904,0.448,0.4366,0.432,0.3641,0.2176,0.0781,0.0,0.0,0.1338,0.2007,0.1839,0.0498,0.0,0.0,0.0,0.0,0.0,0.0,0.0,0.0,0.0,0.0,0.0,0.0,0.0,0.0,0.0,0.0,0.0,0.0,0.0,0.0,0.0,0.0,0.0,0.0,0.0,0.0,0.0,0.0,1.2966,1.3864,0.0,1.3347,1.329,1.3176,1.2919,1.29,1.2776,1.252,1.2774,1.2949,1.3096,1.3105,1.3232,1.3506,1.3242,1.3164,1.3281,1.3008,1.2774,1.2501,1.2501,1.2353,1.2157,1.2157,1.2157,1.2157,1.2157,1.1882,1.1466,1.199,1.2157,1.2157,1.2157,1.2157,1.2206,1.2403,1.2764,1.3205,1.4086,1.4514,1.4698,1.4698,1.4698,1.4698,1.4698,1.4698,1.4698,1.4698,1.4698,1.4663,1.4422,1.4376,1.4329,1.4107,1.3852,1.3501,1.2831,1.2052,1.1466,1.1466,1.1048,1.0637,1.0466,0.9776,0.9259,0.9079,0.8159,0.741,0.6956,0.5878,0.5171,0.5171,0.475,0.4258,0.3688,0.3188,0.246,0.1451,0.1896,0.2681,0.3641,0.3181,0.2109,0.0,0.0,0.0,0.0,0.0,0.0,0.0,0.0,0.0,0.0,0.0,0.0,0.0,0.0,0.0,0.0,0.0,0.0,0.0,0.0,0.0,0.0,0.0,0.0,0.0,0.0,1.3922,1.3555,1.4268,1.4619,1.418,1.4004,1.3809,1.3525,1.3379,1.3263,1.321,1.319,1.319,1.319,1.334,1.3392,1.3291,1.3301,1.3301,1.3301,1.3154,1.3018,1.2881,1.2881,1.2881,1.2881,1.2881,1.2881,1.2881,1.2881,1.2608,1.2236,1.2715,1.2881,1.2929,1.3152,1.319,1.3238,1.3647,1.405,1.4503,1.5107,1.5287,1.5287,1.5287,1.5287,1.5287,1.5287,1.5287,1.5287,1.5287,1.5287,1.5254,1.5062,1.5005,1.4971,1.4744,1.4698,1.456,1.419,1.3226,1.2404,1.2227,1.1972,1.171,1.1396,1.1048,1.0608,1.012,0.9225,0.8429,0.7771,0.6578,0.576,0.5542,0.5117,0.4743,0.4529,0.4484,0.4033,0.3014,0.2959,0.3466,0.449,0.4487,0.3855,0.2502,0.0,0.0,0.0,0.0,0.0,0.0,0.0,0.0,0.0,0.0,0.0,0.0,0.0,0.0,0.0,0.0,0.0,0.0,0.0,0.0,0.0,0.0,0.0,1.2929,1.3594,1.3912,1.3574,1.4277,1.4629,1.4165,1.3809,1.3616,1.3596,1.3224,1.325,1.3821,1.3847,1.3847,1.3858,1.422,1.3967,1.3017,1.3772,1.3772,1.3017,1.338,1.3351,1.2998,1.2949,1.2939,1.2978,1.2929,1.2929,1.2929,1.2978,1.2929,1.2929,1.2929,1.2881,1.2968,1.3552,1.3768,1.3956,1.5174,1.5588,1.572,1.6281,1.6522,1.6522,1.6522,1.6522,1.6522,1.6522,1.6522,1.6522,1.6522,1.6522,1.6337,1.5776,1.5632,1.5454,1.488,1.4755,1.4744,1.4744,1.4283,1.3637,1.3017,1.2344,1.2009,1.2443,1.1593,0.0,1.0586,0.9525,0.8541,0.7824,0.7074,0.6367,0.5651,0.5538,0.5218,0.4625,0.4529,0.4532,0.4532,0.4532,0.4532,0.4536,0.4522,0.4522,0.4588,0.0,0.0,0.0,0.0,0.0,0.0,0.0,0.0,0.0,0.0,0.0,0.0,0.0,0.0,0.0,0.0,0.0,0.0,0.0,0.0,0.0,0.0,1.4021,1.3594,1.3621,1.375,1.3883,1.4453,1.4853,1.5039,1.5447,1.5564,1.5277,1.5615,1.5534,1.4877,1.4931,1.4958,1.4795,1.505,1.5257,1.5449,1.5662,1.5662,1.5449,1.4953,1.4763,1.4768,1.3771,1.3638,1.4201,1.3742,1.3552,1.36,1.4014,1.3978,1.3505,1.3065,1.2881,1.2929,1.3113,1.342,1.3956,1.5174,1.5588,1.572,1.6281,1.6522,1.6522,1.6522,1.6522,1.6522,1.6522,1.6522,1.6522,1.6522,1.6522,1.6479,1.6281,1.6238,1.6194,1.6064,1.602,1.5876,1.5466,1.5231,1.4767,1.3732,1.3035,1.2752,1.3173,1.2982,0.0,1.2009,1.1223,1.0317,0.9316,0.8137,0.7289,0.7122,0.614,0.5651,0.5987,0.5066,0.4739,0.5222,0.4739,0.4739,0.5222,0.5218,0.5492,0.0,0.0,0.0,0.0,0.0,0.0,0.0,0.0,0.0,0.0,0.0,0.0,0.0,0.0,0.0,0.0,0.0,0.0,0.0,0.0,0.0,0.0,1.445,1.4775,1.4547,1.4362,1.4202,1.4102,1.4572,1.519,1.5803,1.5869,1.605,1.6321,1.6284,1.6199,1.6065,1.6192,1.6218,1.6093,1.6386,1.6497,1.64,1.6757,1.6757,1.6412,1.6122,1.5796,1.5485,1.4708,1.4462,1.4698,1.4329,1.419,1.419,1.4571,1.4468,0.0,0.0,0.0,0.0,0.0,1.4422,1.505,1.5732,1.5964,1.6051,1.638,1.6637,1.6837,1.6837,1.6993,1.7105,1.6909,1.6837,1.6795,1.6552,1.6522,1.6522,1.6522,1.6522,1.6522,1.6522,1.6522,1.638,1.6051,1.5764,0.0,1.4329,1.3695,1.334,1.3488,1.3359,1.3049,1.2541,1.1973,1.1156,0.9932,0.9086,0.8349,0.7777,0.6902,0.0,0.0,0.0,0.5441,0.5487,0.4838,0.0,0.0,0.0,0.5869,0.6588,0.6912,0.0,0.0,0.7387,0.7812,0.0,0.0,0.0,0.0,0.0,0.0,0.0,0.0,0.0,0.0,0.0,0.0,0.0,0.0,0.0,0.0,1.5387,1.5408,1.5437,1.548,1.5174,1.4222,1.4788,1.5574,1.6437,1.5881,1.5964,1.7119,1.6258,1.6209,1.7408,0.0,0.0,0.0,0.0,1.7635,1.6903,1.7607,1.7642,1.6996,1.7167,1.6849,1.5976,1.5773,1.5479,1.5097,1.4948,1.4868,1.4914,1.4903,1.488,1.488,1.4744,1.4698,1.4789,1.5365,1.5952,1.6423,1.6479,0.0,0.0,1.6522,1.6909,1.7394,1.7229,1.7585,1.7907,1.7422,1.7312,1.7188,1.6795,1.6637,1.6595,1.6595,1.6552,1.6522,1.6522,1.6522,1.6522,1.6522,1.6051,1.5499,1.4926,1.4236,1.3745,1.3539,1.3193,1.2878,1.2617,1.2172,1.136,1.0072,0.0,0.0,0.7937,0.7723,0.7176,0.5973,0.6416,0.6367,0.5538,0.5003,0.5058,0.576,0.5756,0.6086,0.6858,0.7503,0.783,0.783,0.7883,0.7984,0.0,0.0,0.0,0.0,0.0,0.0,0.0,0.0,0.0,0.0,0.0,0.0,0.0,0.0,0.0,1.4588,1.5771,1.6332,1.5367,1.6588,1.6763,1.462,1.5329,1.6207,1.6664,1.7497,1.8084,1.8348,1.8738,1.8782,1.847,1.857,1.8583,1.8458,1.8655,1.9131,1.9846,2.0003,2.0224,2.0501,0.0,0.0,1.8943,1.7375,1.7023,1.7454,1.6513,1.6079,1.609,1.6146,1.6151,1.6064,1.5062,1.4698,1.4789,1.5365,1.5676,1.582,1.6324,1.6795,1.7076,1.6637,1.7146,1.7787,1.6909,1.7034,0.0,1.7353,1.7312,1.7394,1.7706,1.7463,1.7146,1.7146,1.6795,1.6522,1.6522,1.6522,1.6522,1.6522,1.6423,1.6151,1.5543,1.4503,1.3745,1.3539,1.3437,1.3367,1.3282,1.2753,1.1885,1.0744,1.0115,0.9458,0.8639,0.8049,0.783,0.815,0.7717,0.6902,0.5542,0.5928,0.6529,0.7283,0.7283,0.7664,0.8374,0.8533,0.8593,0.8586,0.9145,0.9695,0.0,0.0,0.0,0.0,0.0,0.0,0.0,0.0,0.0,0.0,0.0,1.632,0.0,0.0,1.6616,1.6305,1.7146,1.7571,1.6746,1.7408,1.7436,1.5866,1.6327,1.7027,1.7675,1.8061,1.8546,1.9178,1.9254,1.9377,1.9658,1.9818,1.993,2.0116,2.0229,2.0526,2.1066,2.1079,2.1217,2.1481,2.0575,2.0032,1.9786,1.8564,1.8054,1.8191,1.755,1.7174,1.688,1.6604,1.6522,1.6423,1.5832,1.5611,1.5656,1.592,1.6051,1.6095,1.638,1.6837,1.7271,1.6993,1.7626,1.8419,1.7867,1.8066,1.8458,1.8185,1.8106,1.8106,1.8106,1.7907,1.7626,1.7353,1.7118,1.6837,1.6552,1.6522,1.6522,1.6522,1.6522,1.6293,1.572,1.5084,1.4441,1.3754,1.3372,1.3193,1.3193,1.2884,1.2227,1.0939,1.0517,0.9917,0.891,0.8103,0.799,0.8752,0.7777,0.6961,0.6632,0.6583,0.6966,0.767,0.7723,0.8049,0.8804,0.8804,0.8956,0.9309,0.9969,1.0312,0.0,0.0,0.0,0.0,0.0,0.0,0.0,0.0,1.671,1.6823,1.7225,1.7389,1.6866,1.7873,1.8647,1.8169,1.8434,1.8572,1.8271,1.825,1.8132,1.7769,1.7665,1.7918,1.871,1.859,1.8846,1.9885,1.9523,1.9714,2.0803,2.0882,2.1029,2.1481,2.1493,2.1543,2.1644,2.1644,2.1707,2.1794,2.1255,2.069,2.0112,1.9585,1.9045,1.8505,1.8405,1.799,1.735,1.6886,1.6622,1.6522,1.6522,1.6522,1.6522,1.6637,1.668,1.668,1.6752,1.7146,1.7585,1.7504,1.8185,1.9006,1.8817,1.9132,1.9442,1.9006,1.8893,1.8817,1.8496,1.8341,1.8145,1.7585,1.7394,1.7146,1.6637,1.6522,1.6522,1.6522,1.6522,1.6331,1.582,1.5652,1.5154,1.3967,1.3372,1.3017,1.2929,1.2881,1.2363,1.0973,1.0813,1.0261,0.891,0.8262,0.8103,0.854,0.7616,0.7235,0.767,0.7289,0.7289,0.7883,0.7937,0.8262,0.9008,0.9008,0.9361,1.0012,1.0661,1.0712,1.6522,1.6522,1.6522,1.6522,1.6522,1.666,0.0,0.0,1.7426,1.7915,1.8066,1.8116,1.8009,1.8019,1.7993,1.7942,1.8382,1.8691,1.8643,1.9169,1.9743,2.0254,1.9407,1.8834,1.8946,1.9833,2.0448,2.0564,2.0961,2.1262,2.1393,2.1393,2.143,2.1493,2.1493,2.1732,2.2221,2.2221,2.2472,2.2877,2.2397,2.1845,2.128,2.0727,2.0162,1.9597,1.9133,1.8342,1.7375,1.7313,1.6986,1.6522,1.6522,1.6522,1.6552,1.7034,1.7188,1.7271,1.7747,1.8263,1.865,1.8185,1.8727,1.9442,1.8496,1.8574,1.8968,1.893,1.8893,1.9006,1.9406,1.9169,1.8688,1.8145,1.7666,1.7146,1.6637,1.6522,1.6522,1.6522,1.6522,1.6455,1.6242,1.5739,1.5001,1.3973,1.3721,1.3505,1.2978,1.2881,1.2363,1.0973,1.0813,1.0261,0.891,0.8699,0.8427,0.783,0.8262,0.8321,0.7723,0.8262,0.8593,0.8699,0.8699,0.9001,0.9666,0.9666,1.0012,1.0712,1.1366,1.1665,1.6522,1.6522,0.0,0.0,1.7024,1.7174,1.7739,1.7865,1.7928,1.8154,1.8455,1.8681,1.8681,1.8846,1.9027,0.0,1.9211,1.9359,1.9359,1.9592,1.9886,2.0137,2.0062,2.0112,2.0426,2.0878,2.1142,2.1142,2.1355,2.1631,2.1945,2.197,2.2121,2.2435,2.2447,2.256,2.2786,2.2786,2.2912,2.3065,2.2573,2.2184,2.1945,2.1066,2.0351,1.9773,1.9246,1.8769,1.8292,1.7652,1.7426,1.7438,1.7093,1.7157,1.7428,1.7008,1.7034,1.7353,1.7544,1.8185,1.8855,1.865,1.908,1.9603,1.9169,1.9447,1.987,1.9472,1.9649,1.9908,1.9743,1.9281,1.8765,1.8224,1.7706,1.7146,1.6637,1.6522,1.6522,1.6522,1.6785,1.701,1.6962,1.6598,1.6078,1.529,1.4307,1.3521,1.3292,1.3037,1.2363,1.0973,1.0466,0.9814,0.8857,0.8804,0.8646,0.8374,0.8646,0.8646,0.8374,0.8646,0.8804,0.8804,0.8804,0.8956,0.9211,0.9614,1.0167,1.0813,1.1466,1.203,1.6552,0.0,0.0,1.7036,1.7137,1.7287,1.7852,1.8091,1.8242,1.8405,1.8857,1.9246,1.9246,1.9547,1.9798,1.9798,1.9798,1.9798,1.9798,1.9798,1.9924,2.0225,2.0639,2.1167,2.187,2.1807,2.1719,2.1719,2.1857,2.2121,2.2523,2.2535,2.2723,2.3065,2.3078,2.3078,2.3078,2.3078,2.3078,2.3125,2.2736,2.2385,2.2046,2.0941,2.02,1.9786,1.9409,1.9158,1.897,1.8166,1.7978,1.815,1.7713,1.7827,1.81,1.7255,1.7271,1.7747,1.7907,1.8458,1.9132,1.9132,1.9369,1.969,1.969,2.0168,2.0617,2.0109,2.0333,2.0602,2.0094,1.9538,1.8968,1.8263,1.7787,1.7353,1.6637,1.6522,1.6559,1.6722,1.7099,1.7372,1.7227,1.7085,1.6768,1.609,1.4634,1.3643,1.3525,1.2976,1.2197,1.1166,1.0312,0.9614,0.9106,0.891,0.8804,0.8804,0.8804,0.8804,0.8804,0.8804,0.891,0.9061,0.891,0.9061,0.9614,0.9917,1.0517,1.1384,1.1882,1.2403,0.0,0.0,1.6522,1.6547,1.6547,1.6697,1.7275,1.7815,1.8355,1.8845,1.9409,1.9773,1.9773,1.9798,1.9798,1.9798,1.9798,1.9798,1.9798,1.9798,2.0213,2.1305,2.1455,2.1895,0.0,2.2598,2.2284,2.2284,2.2786,2.3027,2.3053,2.3053,2.3053,2.3078,2.3078,2.3078,2.3078,2.3078,2.3078,2.3078,2.3053,2.2548,2.1481,2.0338,1.9823,1.9798,1.9786,1.9497,1.8983,1.8945,1.8668,1.8188,1.8169,1.8196,1.8186,1.8099,1.838,1.893,1.9442,1.9639,1.969,1.969,1.969,1.969,1.969,2.0168,2.0722,2.0692,2.0692,2.0722,2.0692,2.0183,1.9406,1.8341,1.8106,1.7787,1.671,1.6522,1.6685,1.725,1.7375,1.7272,1.6899,1.6807,1.6504,1.5581,1.4658,1.3912,1.3555,1.2538,1.1814,1.1765,1.0568,0.9814,0.9762,0.9159,0.8804,0.8804,0.8804,0.8804,0.8804,0.8804,0.9113,0.9762,0.9106,0.9762,1.1715,1.1065,1.1484,1.2832,1.2881,1.2881,0.0,0.0,1.6609,1.6999,1.7087,1.7338,1.8254,1.8618,1.8894,1.9434,1.9409,1.9284,1.9284,1.9284,1.9171,1.8807,1.9346,1.9685,1.9334,1.9585,2.0087,2.0853,2.1267,0.0,0.0,0.0,0.0,2.3401,2.3238,2.3301,2.369,2.3339,2.3078,2.3078,2.3078,2.3078,2.3078,2.3078,2.3078,2.3125,2.2761,2.2008,2.0983,2.0552,2.0162,1.9798,1.9798,1.9698,1.951,1.9171,1.912,1.927,1.9301,1.9568,1.9956,2.0364,2.0587,2.0661,2.0064,2.0365,2.1021,2.1021,2.1021,2.1021,2.1021,2.1485,2.1829,2.0961,2.1036,2.1156,2.0273,1.9613,1.9004,1.8268,1.7852,1.7544,1.7175,1.7087,1.725,1.7815,1.8229,1.8277,1.7627,1.7429,1.6678,1.484,1.4262,1.3887,1.3184,1.2753,1.2197,1.1216,1.0712,1.0115,0.9211,0.891,0.8804,0.8804,0.8804,0.8804,0.8804,0.9211,0.9562,0.9814,1.0012,1.0466,1.1166,1.1366,1.1724,1.2187,1.2666,1.2881,0.0,1.6522,1.6609,1.6986,1.7074,1.7313,1.8229,1.8593,1.8832,1.9158,1.912,1.892,1.8769,1.8845,1.8795,1.8292,1.8945,1.9409,1.907,1.9472,2.0087,2.0865,2.1443,2.2083,0.0,0.0,0.0,2.3954,2.3464,2.3389,2.3966,2.3452,2.3078,2.3078,2.3078,2.3078,2.3078,2.3078,2.3078,2.3065,2.2372,2.1644,2.0941,2.0539,2.0162,1.9798,1.9798,1.9952,2.0131,1.9786,1.9973,2.0466,2.0529,2.0762,2.1189,2.1539,2.1844,2.1909,2.0906,2.1045,2.1695,2.1695,2.1695,2.1695,2.1695,2.1994,2.2143,2.1306,2.1365,2.15,2.0632,2.0177,1.9694,1.892,1.8511,1.817,1.7756,1.7677,1.784,1.8392,1.8733,1.8721,1.792,1.7246,1.6266,1.4572,1.4365,1.4014,1.3008,1.2666,1.2147,1.1266,1.0965,1.0364,0.9256,0.9159,0.9061,0.8804,0.8804,0.8804,0.8804,0.9211,0.9666,1.0167,1.0364,1.0821,1.1534,1.1724,1.1922,1.2187,1.2666,1.2881,1.6795,1.6522,1.6522,1.6522,1.6522,1.6672,1.725,1.779,1.8179,1.8191,1.8618,1.8832,0.0,0.0,1.8857,1.8329,1.8706,1.9008,1.8983,1.9497,2.0263,0.0,0.0,0.0,0.0,0.0,0.0,2.3991,0.0,2.3401,2.4004,2.3464,2.3078,2.3078,2.3078,2.3078,2.3078,2.3078,2.3053,2.3037,2.2052,2.1511,2.1368,2.0341,1.985,1.9798,1.985,2.0194,2.0795,2.0795,2.1161,2.1688,2.1751,2.1758,2.1729,2.1806,2.2188,2.2679,2.2009,2.1799,2.1799,2.1799,2.1799,2.1799,2.1799,2.1799,2.1784,2.1754,2.1739,2.1739,2.171,2.1685,2.1374,2.0174,1.9885,1.9574,1.8452,1.8242,1.8405,1.897,1.8971,1.8641,1.7773,1.6358,1.5264,1.4844,1.4785,1.4336,1.3105,1.2351,1.1868,1.1792,1.1191,1.0533,0.9814,0.9769,0.9458,0.8857,0.8804,0.8804,0.8804,0.8857,0.951,1.0762,1.0269,1.0939,1.2881,1.2187,1.2236,1.2881,1.2881,1.2881,1.668,1.6522,1.6522,1.6522,1.6522,1.6672,1.725,1.7488,1.7714,1.8129,1.8317,1.8493,0.0,0.0,0.0,1.8844,1.9258,0.0,1.9083,1.9849,0.0,0.0,0.0,2.2585,2.3288,2.3165,0.0,0.0,2.369,2.3565,2.4556,2.3616,2.3078,2.3078,2.3078,2.3078,2.3078,2.3078,2.2723,2.1907,2.2095,2.1504,2.0278,2.0938,2.0706,1.985,2.0346,2.0646,2.0795,2.0795,2.1161,2.1744,2.2235,2.2464,2.248,2.2947,2.3221,2.334,2.3176,2.3116,2.3116,2.3116,2.3116,2.3116,2.3116,2.3116,2.3011,2.2562,2.2428,2.2308,2.1814,2.1351,2.0864,2.0055,1.9554,1.9169,1.8855,1.8819,1.897,1.9497,1.8694,1.7867,1.7665,1.6358,1.5264,1.4844,1.4785,1.4551,1.3896,1.3642,1.3029,1.1722,1.1427,1.0701,0.918,0.9061,0.8956,0.8804,0.8804,0.8804,0.8804,0.9762,1.0466,1.0813,1.1642,1.2363,1.2881,1.2715,1.2725,1.2881,1.2881,1.2881,1.671,1.6522,1.6522,1.6522,1.6522,1.6672,1.725,1.7388,1.7539,1.8091,1.8204,0.0,0.0,0.0,0.0,0.0,0.0,0.0,1.9021,1.9748,2.0589,0.0,2.197,0.0,2.3439,2.3514,2.3966,0.0,2.3904,2.3566,2.4757,2.3753,2.3078,2.3078,2.3078,2.3078,2.3078,2.3078,2.2698,2.1845,2.2158,2.1626,2.0227,2.0963,2.0869,2.0258,0.0,2.114,2.1609,2.1609,2.1974,2.256,2.295,2.3098,2.3157,2.3465,2.3595,2.3595,2.3595,2.3595,2.3595,2.3595,2.3595,2.3595,2.3595,2.3415,2.3116,2.2813,2.2485,2.2172,2.1818,2.1454,2.1038,2.0433,2.0022,1.9709,1.9409,1.9572,1.9795,1.9932,1.8885,1.7857,1.7518,1.6331,1.5332,1.5098,1.5059,1.4971,1.4727,1.4083,1.321,1.2053,1.1684,1.0902,0.9389,0.9263,0.9106,0.8804,0.8804,0.8956,0.9211,0.9961,1.0669,1.1216,1.199,1.2559,1.2881,1.2881,1.2881,1.2881,1.2881,1.2881,1.6795,1.6522,1.6522,1.6522,1.6552,1.6721,1.7194,1.7447,1.7727,1.8118,0.0,0.0,1.8548,0.0,1.8995,1.8593,0.0,1.9133,1.9133,1.9648,2.0388,2.1368,2.2046,2.2799,2.3791,2.3954,2.4418,2.5423,2.4104,2.3715,2.4757,2.3753,2.3078,2.3078,2.3078,2.3078,2.3078,2.3002,2.2749,2.2196,2.2254,2.1769,2.0718,2.0866,2.0901,2.0764,2.0864,2.1533,2.2558,2.2644,2.3037,2.3595,2.3595,2.3655,2.3729,2.3729,2.3789,2.3864,2.3864,2.3804,2.3729,2.3625,2.3595,2.3595,2.3595,2.3221,2.2802,2.2802,2.2378,2.1917,2.183,2.1752,2.1568,2.093,2.0746,2.0523,2.0054,2.0313,2.0573,2.0151,1.9194,1.8145,1.7349,1.6224,1.541,1.541,1.541,1.541,1.541,1.4242,1.3186,1.2634,1.1982,1.1109,0.9895,0.9814,0.951,0.8857,0.8857,0.9159,0.9666,0.9814,1.0466,1.1665,1.1873,1.2236,1.2881,1.2881,1.2881,1.2881,1.2881,1.2881,1.6795,1.6522,1.6522,1.6522,1.6837,1.706,1.6721,1.7755,0.0,0.0,0.0,1.9795,2.028,1.9952,0.0,2.0175,0.0,0.0,0.0,0.0,2.1267,0.0,0.0,0.0,0.0,0.0,0.0,0.0,0.0,2.413,2.4795,2.3753,2.3078,2.3078,2.3078,2.3078,2.3078,2.2686,2.2184,2.1631,2.215,2.1802,2.0718,2.1807,2.1703,2.0779,2.1264,0.0,2.1894,2.2422,2.3001,2.3595,2.3595,2.3939,2.4448,2.4448,2.4792,2.5255,2.5255,2.4896,2.4358,2.3789,2.3595,2.3595,2.3595,2.3535,2.343,2.343,2.3344,2.3156,2.2671,2.2122,2.1568,2.093,2.0396,2.0079,2.0467,2.0655,2.0461,1.9686,1.8552,1.7622,1.7227,1.6224,1.541,1.541,1.541,1.541,1.541,1.5168,1.4487,1.3114,1.2379,1.1393,0.9918,0.9814,0.951,0.8857,0.9309,0.9413,0.9008,1.0064,1.0762,1.0965,1.2098,1.2774,1.2881,1.2881,1.2881,1.2881,1.2881,1.2881,1.7105,1.6909,1.6993,1.7271,1.7544,1.7585,1.7034,0.0,0.0,0.0,0.0,1.9749,2.0654,0.0,0.0,0.0,0.0,0.0,0.0,0.0,0.0,0.0,0.0,0.0,0.0,0.0,0.0,0.0,0.0,2.4243,2.4795,2.3753,2.294,2.2711,2.2927,2.2862,2.2284,2.2297,2.1895,2.1066,2.1661,2.1342,2.0278,2.1173,2.1302,2.0785,2.1328,2.1862,2.2249,2.2836,2.3302,2.3595,2.3595,2.4029,2.4582,2.4582,2.5046,2.5615,2.5615,2.5181,2.4522,2.4238,2.3894,2.3595,2.3595,2.3595,2.3595,2.3595,2.3377,2.2965,2.2346,2.1724,2.1144,2.0836,2.0729,2.0828,2.1405,2.1518,2.1243,2.0203,1.9215,1.8137,1.7093,1.6089,1.541,1.541,1.541,1.541,1.541,1.541,1.5051,1.409,1.3158,1.2249,1.1272,1.0327,0.9814,0.9865,0.9814,0.9969,1.0364,1.0965,1.1525,1.1891,1.2569,1.2881,1.2881,1.2881,1.2881,1.2881,1.2881,1.2881,1.7585,1.7463,1.7585,1.7987,1.8185,1.8145,1.7585,1.8246,0.0,0.0,0.0,2.0074,2.1046,0.0,0.0,0.0,0.0,0.0,0.0,0.0,0.0,0.0,0.0,0.0,0.0,0.0,0.0,0.0,0.0,0.0,2.4443,2.3514,2.2761,2.2322,2.2623,2.2372,2.1493,2.1794,2.1518,2.0731,2.1104,2.0903,2.0175,2.0514,2.0834,2.1154,2.1602,2.2201,2.2953,2.3478,2.3751,2.3804,2.3655,2.4029,2.4597,2.4746,2.5255,2.5809,2.5809,2.539,2.4761,2.4627,2.4163,2.3595,2.3595,2.3595,2.3581,2.3584,2.3214,2.2712,2.1904,2.1394,2.1093,2.0889,2.1179,2.1606,2.2046,2.2234,2.1999,2.0922,1.9821,1.8643,1.7264,1.6117,1.541,1.541,1.541,1.541,1.541,1.541,1.5254,1.4834,1.3773,1.2896,1.2407,1.0892,1.0269,1.0771,1.032,1.0466,1.1566,1.1715,1.208,1.2666,1.2822,1.2881,1.2881,1.2881,1.2881,1.2881,1.2881,1.2881,1.8027,1.8027,1.8027,1.8106,1.8458,1.8688,1.8145,0.0,0.0,0.0,2.1554,2.2395,2.2498,0.0,0.0,0.0,0.0,0.0,0.0,0.0,0.0,0.0,0.0,0.0,0.0,0.0,0.0,0.0,0.0,0.0,2.3253,2.2723,2.2359,2.2309,2.1882,2.1594,2.1493,2.1041,2.0819,2.0718,2.0769,2.0953,2.1317,2.092,2.1268,2.2259,2.2418,2.2916,0.0,2.4187,2.4469,2.4477,2.3849,2.4029,2.4657,2.53,2.5929,2.6497,2.6497,2.6078,2.542,2.4776,2.4163,2.3595,2.3595,2.3595,2.3584,2.3525,2.345,2.3164,2.1931,2.1917,2.2124,2.1559,2.1455,2.1506,2.1556,2.1958,2.2018,2.1128,1.9655,1.8433,1.7973,1.6517,1.541,1.541,1.541,1.541,1.541,1.541,1.5254,1.4834,1.3773,1.2769,1.1941,1.1133,1.0712,1.0813,1.0762,1.0762,1.0864,1.1466,1.1814,1.1913,1.2559,1.2881,1.2881,1.2881,1.2881,1.2881,1.2881,1.2881,1.8574,1.8574,1.865,1.8968,1.9207,1.9244,1.8688,0.0,0.0,2.0401,2.1243,2.2193,2.2649,2.2798,0.0,0.0,0.0,0.0,0.0,0.0,0.0,0.0,0.0,0.0,0.0,0.0,0.0,0.0,0.0,0.0,2.2159,2.2246,2.2008,2.1343,2.143,2.133,2.0991,2.0832,2.0718,2.0718,2.0313,2.0263,2.0464,2.025,2.0616,2.1457,2.1851,2.2428,0.0,2.3698,2.3926,2.3984,2.3699,2.4268,2.5211,2.5076,2.5689,2.6527,2.6138,2.5824,2.557,2.53,2.5031,2.4732,2.4343,2.388,2.3618,2.4019,2.3801,2.3239,2.2339,2.2195,2.2298,2.204,2.2234,2.2472,2.2472,2.2648,2.227,2.0644,1.959,1.8504,1.7113,1.6049,1.541,1.541,1.541,1.541,1.541,1.541,1.5156,1.4463,1.3959,1.3455,1.2868,1.1959,1.1575,1.2049,1.1625,1.1575,1.2049,1.2304,1.2452,1.2452,1.2764,1.2881,1.2881,1.2881,1.2881,1.2881,1.2881,1.2881,1.9095,1.9132,1.9244,1.9603,1.969,1.9603,0.0,0.0,2.0876,2.0528,2.1421,2.2423,2.2875,2.3504,2.3952,0.0,0.0,0.0,0.0,0.0,0.0,0.0,0.0,0.0,0.0,0.0,0.0,0.0,0.0,0.0,2.1493,2.1707,2.1468,2.0743,2.0878,2.0803,2.0413,2.0401,2.0401,2.0401,1.9999,1.9886,2.0049,1.9874,2.0246,2.1073,2.1685,2.2317,0.0,2.3598,2.3847,2.3879,2.3684,2.4178,2.4986,2.4717,2.5211,2.5974,2.5704,2.5615,2.5615,2.5615,2.5615,2.5555,2.5285,2.4675,2.4144,2.4419,2.3823,2.3017,2.2669,2.2337,2.2146,2.2472,2.2723,2.2937,2.304,2.3012,2.2404,2.0899,1.9755,1.8563,1.7057,1.6048,1.541,1.541,1.541,1.541,1.541,1.541,1.5078,1.4175,1.4194,1.4053,1.3379,1.2516,1.2267,1.2881,1.2187,1.2129,1.2881,1.2881,1.2881,1.2881,1.2881,1.2881,1.2881,1.2881,1.2881,1.2881,1.2881,1.2881,1.9566,1.969,1.969,1.969,1.969,1.969,0.0,0.0,2.1695,2.1695,2.2712,2.3595,2.3595,2.4163,2.4593,0.0,0.0,0.0,0.0,0.0,0.0,0.0,0.0,0.0,0.0,0.0,0.0,0.0,0.0,0.0,2.1493,2.0978,2.0731,2.0718,2.0112,1.9811,1.9811,1.9811,1.9811,1.9811,1.9798,2.01,2.0693,2.0062,2.045,2.1653,2.2351,2.309,0.0,2.4325,2.4582,2.4507,2.3864,2.361,2.3699,2.4373,2.4597,2.4686,2.539,2.5615,2.5615,2.5615,2.5615,2.5734,2.6378,2.6108,2.542,2.4647,2.3369,2.2422,2.2975,2.2309,2.1769,2.2862,2.2711,2.2472,2.2965,2.2711,2.2322,2.2251,2.0248,1.852,1.8452,1.6785,1.541,1.541,1.541,1.541,1.541,1.541,1.5078,1.4175,1.4521,1.4268,1.2998,1.2647,1.2591,1.2861,1.2187,1.2129,1.2881,1.2881,1.2881,1.2881,1.2881,1.2881,1.2881,1.2881,1.2881,1.2881,1.2881,1.2881,1.9639,1.969,1.969,1.969,1.969,1.969,1.969,0.0,2.1695,2.1695,2.2712,2.3595,2.3595,2.4163,2.4596,0.0,0.0,0.0,0.0,0.0,0.0,0.0,0.0,0.0,0.0,0.0,0.0,0.0,0.0,2.0338,2.0338,2.0175,2.0263,2.0706,2.0489,2.0441,2.0441,2.0441,2.0441,2.0388,1.9987,1.9899,2.0075,1.9886,2.0246,2.1073,2.1724,2.2395,2.3043,2.3689,2.3924,2.3909,2.3684,2.3879,2.4268,2.4029,2.4223,2.4552,2.4328,2.4537,2.4941,2.4941,2.5241,2.5644,2.5854,2.5416,2.4661,2.3879,2.3243,2.2912,2.3088,2.2874,2.2611,2.2573,2.2435,2.2359,2.2535,2.2435,2.2135,2.164,2.0391,1.9108,1.7973,1.6704,1.5752,1.5459,1.541,1.541,1.541,1.541,1.5195,1.4639,1.4961,1.458,1.3018,1.3061,1.3118,1.291,1.2666,1.2666,1.2881,1.2881,1.2881,1.2881,1.2881,1.2881,1.2881,1.2881,1.2881,1.2881,1.2881,1.2881,0.0,1.969,1.969,1.969,1.969,0.0,0.0,0.0,2.1769,2.2024,2.2877,2.3684,2.3939,2.4537,2.5076,2.533,0.0,0.0,0.0,0.0,0.0,0.0,0.0,0.0,0.0,0.0,0.0,0.0,0.0,1.9899,2.0112,1.9924,2.0075,2.0706,2.0504,2.0338,2.0338,2.0338,2.0338,2.0338,1.9974,1.9798,1.9798,1.9798,2.0156,2.0845,2.1424,2.21,0.0,2.3334,2.3595,2.3595,2.3595,2.3864,2.4178,2.3759,2.3864,2.4223,2.4044,2.4268,2.4627,2.4881,2.5131,2.5162,2.4659,2.4345,2.4002,2.3245,2.2891,2.2824,2.2824,2.2824,2.2736,2.2397,2.2309,2.2309,2.2309,2.2309,2.2064,2.126,2.0303,1.9188,1.7818,1.6759,1.6027,1.5693,1.5518,1.541,1.541,1.541,1.5254,1.4834,1.5156,1.4853,1.3467,1.374,1.3809,1.3379,1.3203,1.3125,1.3125,1.2969,1.2881,1.2881,1.2881,1.2881,1.2881,1.2881,1.2881,1.2881,1.2881,1.2881,0.0,0.0,0.0,0.0,0.0,0.0,0.0,0.0,0.0,0.0,2.3176,2.3789,2.4388,2.5136,2.5794,0.0,0.0,0.0,0.0,0.0,0.0,0.0,0.0,0.0,0.0,0.0,0.0,0.0,2.0112,2.0037,2.063,2.0087,2.0049,2.0643,2.0075,1.9798,1.9798,1.9849,1.9849,1.9798,1.9798,1.9798,1.9798,1.9798,2.0144,0.0,2.1424,2.2053,2.2694,2.3319,2.3595,2.3595,2.3595,2.3595,2.3595,2.3595,2.3595,2.3684,2.4328,2.4507,2.4612,2.5224,2.5011,2.4287,2.2958,2.3013,2.3368,2.2737,2.2411,2.2259,2.2297,2.2284,2.2259,2.2297,2.2284,2.2259,2.2297,2.2251,2.2005,2.1236,2.001,1.8841,1.8027,1.6869,1.6103,1.6125,1.5693,1.541,1.541,1.541,1.5264,1.4873,1.5176,1.5088,1.4233,1.457,1.46,1.4107,1.374,1.3506,1.3506,1.3105,1.2881,1.2881,1.291,1.291,1.2881,1.291,1.291,1.2881,1.2881,1.29,0.0,0.0,0.0,0.0,0.0,0.0,0.0,0.0,0.0,0.0,0.0,2.3655,2.3819,2.4807,2.5495,0.0,0.0,0.0,0.0,0.0,0.0,0.0,0.0,0.0,0.0,0.0,0.0,0.0,1.9874,1.9861,1.9999,1.9874,1.9861,1.9999,1.9874,1.9798,1.9798,2.0238,2.0238,1.9798,1.9798,1.9798,1.9798,1.9798,1.9901,2.0105,2.1232,2.1805,2.2039,2.3128,2.3595,2.3595,2.3595,2.3595,2.3595,2.3595,2.3595,2.3625,2.3789,2.3849,2.3776,2.3478,2.3293,2.2912,2.1627,2.1963,2.2697,2.2035,2.1764,2.1782,2.2196,2.1995,2.1782,2.2209,2.1995,2.1794,2.2221,2.1758,2.138,2.1616,2.0385,1.9051,1.8501,1.7405,1.6455,1.6174,1.5693,1.541,1.541,1.541,1.5371,1.5273,1.5352,1.5332,1.5127,1.4912,1.46,1.4107,1.374,1.3506,1.3506,1.3105,1.2881,1.2881,1.3193,1.3203,1.2881,1.3203,1.3193,1.2881,1.2881,1.3047,0.0,0.0,0.0,0.0,0.0,0.0,0.0,0.0,0.0,0.0,0.0,0.0,2.4462,0.0,0.0,0.0,0.0,0.0,0.0,0.0,0.0,0.0,0.0,0.0,0.0,0.0,0.0,2.02,1.9949,1.9798,1.9798,1.9798,1.9798,1.9798,1.9798,1.9798,1.9798,2.0112,2.0112,1.9798,1.9798,1.9798,1.9798,1.9798,1.9952,2.0295,2.0966,2.1424,2.1805,2.277,2.3201,2.3187,2.3508,2.3595,2.3595,2.3595,2.3595,2.3595,2.3595,2.3595,2.3465,2.2529,2.2239,2.2007,2.0733,2.0772,2.125,2.0901,2.0919,2.1179,2.1481,2.133,2.1255,2.1807,2.1707,2.1644,2.2196,2.1823,2.1398,2.1307,2.0204,1.9093,1.8461,1.7621,1.6953,1.6709,1.6123,1.5703,1.5703,1.5537,1.541,1.541,1.541,1.541,1.541,1.5205,1.4971,1.4736,1.4326,1.4092,1.4092,1.3682,1.3457,1.3457,1.3301,1.3203,1.3164,1.3203,1.3203,1.3164,1.3164,1.3389,0.0,0.0,0.0,0.0,0.0,0.0,0.0,0.0,0.0,0.0,0.0,0.0,0.0,0.0,0.0,0.0,0.0,0.0,0.0,0.0,0.0,0.0,0.0,0.0,0.0,0.0,2.068,2.0592,2.0075,1.9798,1.9798,1.9798,1.9798,1.9798,1.9798,1.9798,1.9798,1.9798,1.9798,1.9798,1.9798,1.9798,1.9798,1.9798,2.0105,2.0646,0.0,0.0,2.1615,2.2253,2.2603,2.274,2.3275,2.3508,2.3595,2.3595,2.3595,2.3595,2.3595,2.3595,2.3406,2.2132,2.1697,2.1459,2.0181,1.9798,1.9798,1.9798,2.0162,2.0605,2.0693,2.0655,2.069,2.1343,2.1493,2.1644,2.2196,2.2067,2.1628,2.0782,1.989,1.9044,1.8144,1.7666,1.7383,1.7383,1.6631,1.6125,1.6125,1.5684,1.541,1.541,1.541,1.541,1.541,1.541,1.541,1.541,1.5019,1.4756,1.4687,1.4326,1.4077,1.4077,1.3496,1.3311,1.3603,1.3311,1.332,1.3603,1.3696,1.3923,2.1039,2.0482,0.0,0.0,0.0,0.0,0.0,0.0,0.0,0.0,0.0,0.0,0.0,0.0,0.0,0.0,0.0,0.0,0.0,0.0,0.0,0.0,0.0,0.0,0.0,0.0,2.0517,1.9974,1.9849,1.9798,1.9798,1.9798,1.9798,1.9798,1.9798,1.9798,1.9798,1.9798,1.9798,1.9798,1.9798,1.9798,1.9798,1.9798,1.985,2.0003,0.0,2.0845,2.0979,2.1615,2.2193,2.2694,2.2785,2.3143,2.3595,2.3595,2.3595,2.3595,2.3595,2.3595,2.3406,2.2132,2.1697,2.1459,2.0181,1.9798,1.9798,1.9798,1.9861,2.0049,2.0592,2.03,2.02,2.1242,2.1493,2.1644,2.2196,2.2067,2.1628,2.0782,1.989,1.9044,1.8144,1.7666,1.7383,1.7383,1.6631,1.6125,1.6125,1.5684,1.541,1.541,1.541,1.541,1.541,1.541,1.541,1.541,1.5019,1.4619,1.4248,1.4116,1.4077,1.4077,1.4375,1.4346,1.398,1.4346,1.4336,1.4033,1.4634,1.4879,2.1043,2.0596,0.0,0.0,0.0,0.0,0.0,0.0,0.0,0.0,0.0,0.0,0.0,0.0,0.0,0.0,0.0,0.0,0.0,0.0,0.0,0.0,0.0,0.0,0.0,2.0552,2.0087,1.9823,1.9798,1.9798,1.9798,1.9798,1.9798,1.9798,1.9798,1.9798,1.9798,1.9798,1.9798,1.9798,1.9798,1.9798,1.9798,1.9798,1.9798,1.9798,0.0,2.0258,2.0346,2.128,2.1899,2.2239,2.2905,2.3377,2.3595,2.3595,2.3595,2.3595,2.3595,2.3595,2.3406,2.2132,2.1697,2.1459,2.0181,1.9798,1.9798,1.9798,1.9798,1.9861,2.0125,1.9999,2.0012,2.0853,2.128,2.1644,2.2196,2.2067,2.1753,2.1365,2.0204,1.9299,1.9365,1.8491,1.7915,1.836,1.7491,1.6777,1.6777,1.6182,1.5762,1.5762,1.5557,1.541,1.541,1.541,1.541,1.541,1.5234,1.5029,1.4834,1.4609,1.459,1.4824,1.457,1.4651,1.505,1.5009,1.5223,1.5691,1.5985,1.6245,2.115,2.0715,2.0438,0.0,0.0,0.0,0.0,0.0,0.0,0.0,0.0,0.0,0.0,0.0,0.0,0.0,0.0,0.0,0.0,0.0,0.0,0.0,0.0,0.0,2.123,2.0514,1.9949,1.9811,1.9798,1.9798,1.9798,1.9798,1.9798,1.9798,1.9798,1.9798,1.9798,1.9798,1.9798,1.9798,1.9798,1.9798,1.9798,1.9798,1.9798,1.9798,1.9798,1.9901,2.0093,2.1099,2.1663,2.2039,2.2995,2.3465,2.3595,2.3595,2.3595,2.3595,2.3595,2.3508,2.3187,2.2086,2.1615,2.128,2.0131,1.9798,1.9798,1.9798,1.9798,1.9798,1.9798,1.9798,1.9911,2.0351,2.0991,2.1606,2.202,2.2161,2.2137,2.1939,2.0846,2.0074,2.0526,1.9497,1.8854,1.9497,1.8541,1.769,1.769,1.6815,1.6182,1.6135,1.5762,1.5527,1.542,1.541,1.541,1.541,1.541,1.541,1.541,1.5107,1.5078,1.54,1.4766,1.4964,1.6048,1.569,1.6073,1.7137,1.7296,1.7489,2.1552,2.0927,2.0431,2.0893,0.0,0.0,0.0,0.0,0.0,0.0,0.0,0.0,0.0,0.0,0.0,0.0,0.0,0.0,0.0,0.0,0.0,0.0,0.0,0.0,2.0819,2.0706,2.0376,1.9849,1.9798,1.9798,1.9798,1.9798,1.9798,1.9798,1.9798,1.9798,1.9798,1.9798,1.9798,1.9798,1.9798,1.9798,1.9798,1.9798,1.9798,1.9798,1.9798,2.0144,2.0759,2.0845,2.1561,2.2649,2.274,2.3113,2.3595,2.3595,2.3595,2.3595,2.3595,2.3231,2.2649,2.1946,2.1342,2.0746,2.0003,1.9798,1.9798,1.9798,1.9798,1.9798,1.9798,1.9798,1.9811,1.9849,2.069,2.1493,2.1543,2.2326,2.2823,2.2063,2.1815,2.1491,2.0719,2.0526,2.0462,2.0526,1.934,1.8542,1.8542,1.7453,1.6523,1.6164,1.6096,1.585,1.5449,1.541,1.541,1.541,1.541,1.541,1.541,1.5381,1.5381,1.541,1.5352,1.5668,1.644,1.6398,1.6781,1.7577,1.8282,1.8251,2.2032,2.1568,0.0,2.1337,0.0,0.0,0.0,0.0,0.0,0.0,0.0,0.0,0.0,0.0,0.0,0.0,0.0,0.0,0.0,0.0,0.0,0.0,0.0,2.0501,2.0706,2.0338,2.0037,1.9823,1.9798,1.9798,1.9798,1.9798,1.9798,1.9798,1.9798,1.9798,1.9798,1.9798,1.9798,1.9798,1.9798,1.9798,1.9798,1.9798,1.9798,1.9798,1.9798,2.0207,2.0845,2.121,2.1866,2.274,2.3098,2.3421,2.3595,2.3595,2.3377,2.3054,2.3054,2.262,2.196,2.1342,2.0979,2.0646,2.0003,1.9798,1.9798,1.9798,1.9798,1.9798,1.9798,1.9798,1.9798,1.9798,2.0665,2.1493,2.1493,2.2347,2.3017,2.2702,2.2249,2.1939,2.2125,2.129,2.0782,2.1302,2.0497,1.9673,1.9101,1.8382,1.7607,1.6958,1.6808,1.6527,1.589,1.5966,1.5864,1.541,1.541,1.5584,1.6093,1.6093,1.6312,1.6743,1.6743,1.7135,1.7852,1.7852,1.8232,1.898,1.9254,1.9254,2.231,2.1974,0.0,0.0,0.0,0.0,0.0,0.0,0.0,0.0,0.0,0.0,0.0,0.0,0.0,0.0,0.0,0.0,0.0,0.0,0.0,0.0,2.0275,1.9962,2.0351,2.0037,1.9798,1.9798,1.9798,1.9798,1.9798,1.9798,1.9798,1.9798,1.9798,1.9798,1.9798,1.9798,1.9798,1.9798,1.9798,1.9798,1.9798,1.9798,1.9798,1.9798,1.9798,2.0207,2.0845,2.1424,2.21,2.274,2.3377,2.3363,2.3039,2.3231,2.2905,2.2392,2.2392,2.196,2.1342,2.093,2.0646,2.0396,1.9952,1.9798,1.9798,1.9798,1.9798,1.9798,1.9798,1.9936,2.0075,2.0075,2.0928,2.1744,2.1744,2.2472,2.3078,2.3078,2.2628,2.2445,2.3017,2.2175,2.1604,2.2187,2.1553,2.0782,2.0204,1.9598,1.8838,1.7885,1.7441,1.7015,1.6477,1.6686,1.6641,1.614,1.6083,1.6197,1.6492,1.6708,1.7079,1.7578,1.7578,1.7961,1.8715,1.8715,1.9097,1.9798,1.9798,1.9798,2.231,0.0,0.0,0.0,0.0,0.0,0.0,0.0,0.0,0.0,0.0,0.0,0.0,0.0,0.0,0.0,0.0,0.0,0.0,0.0,0.0,1.9798,1.9798,1.9798,1.9798,1.9798,1.9798,1.9798,1.9798,1.9798,1.9798,1.9798,1.9798,1.9798,1.9798,1.9798,1.9798,1.9798,1.9798,1.9798,1.9798,1.9798,1.9798,1.9798,1.9798,1.9798,1.9798,2.0207,2.0845,2.1424,2.21,2.274,2.3334,2.2786,2.1805,2.2452,2.2253,2.1697,2.1697,2.1293,2.0795,2.0795,2.0346,1.9798,1.9798,1.9798,1.9798,1.9798,1.9798,1.9798,1.9798,2.0238,2.0718,2.0718,2.1506,2.2309,2.2309,2.2749,2.3078,2.3078,2.3078,2.3078,2.3078,2.3078,2.3078,2.3078,2.2445,2.1877,2.1877,2.1175,2.0081,1.8786,1.7798,1.7263,1.7263,1.7486,1.7633,1.7578,1.7633,1.7302,1.6539,1.7191,1.7633,1.7633,1.7633,1.795,1.8715,1.8715,1.9097,1.9798,1.9798,1.9798,2.2936,0.0,0.0,0.0,0.0,0.0,0.0,0.0,0.0,0.0,0.0,0.0,0.0,0.0,0.0,0.0,0.0,0.0,0.0,0.0,1.9798,1.9798,1.9798,1.9798,1.9798,1.9798,1.9798,1.9798,1.9798,1.9798,1.9798,1.9798,1.9798,1.9798,1.9798,1.9798,1.9798,1.9798,1.9798,1.9798,1.9798,1.9798,1.9798,1.9798,1.9798,1.9798,1.9798,2.0207,2.0845,2.1424,2.1805,2.1993,2.2179,2.2025,2.1697,2.1899,2.1582,2.1077,2.1077,2.0633,2.0105,2.0105,1.9952,1.9798,1.9798,1.9798,1.9798,1.9798,1.9798,1.9798,1.9798,2.0238,2.0718,2.0718,2.1506,2.2309,2.2309,2.2749,2.3078,2.3078,2.3078,2.3078,2.3078,2.3078,2.3078,2.3078,2.2884,2.2567,2.1939,2.1175,2.047,2.0059,1.9918,1.9644,1.9171,1.9046,1.8788,1.8284,1.832,1.8286,1.807,1.8286,1.8608,1.915,1.915,1.9267,1.9475,1.9475,1.9592,1.9798,1.9798,1.9798,0.0,0.0,0.0,0.0,0.0,0.0,0.0,0.0,0.0,0.0,0.0,0.0,0.0,0.0,0.0,0.0,0.0,0.0,0.0,0.0,1.9798,1.9798,1.9798,1.9798,1.9798,1.9798,1.9798,1.9798,1.9798,1.9798,1.9798,1.9798,1.9798,1.9798,1.9798,1.9798,1.9798,1.9798,1.9798,1.9798,1.9798,1.9798,1.9798,1.9798,1.9798,1.9798,1.9798,2.0207,2.0845,2.121,2.1342,2.139,2.1615,2.1363,2.0988,2.1245,2.0966,2.0396,2.0396,2.0156,1.9798,1.9798,1.9798,1.9798,1.9798,1.9798,1.9798,1.9798,1.9798,1.9798,1.9798,2.0238,2.0769,2.0995,2.1669,2.2372,2.2585,2.2899,2.3078,2.3078,2.3078,2.3078,2.3078,2.3078,2.3078,2.3078,2.3078,2.2944,2.2445,2.1616,2.1101,2.1101,2.1073,2.0817,2.0392,2.0175,1.9867,1.9412,1.9444,1.9478,1.9478,1.9478,1.9801,2.0464,2.0476,2.0476,2.0476,2.0476,2.0476,2.0476,2.0476,2.0476,0.0,0.0,0.0,0.0,0.0,0.0,0.0,0.0,0.0,0.0,0.0,0.0,0.0,0.0,0.0,0.0,0.0,0.0,0.0,0.0,1.9786,1.9736,1.9773,1.9798,1.9798,1.9798,1.9798,1.9798,1.9798,1.9798,1.9798,1.9798,1.9798,1.9798,1.9798,1.9798,1.9798,1.9798,1.9798,1.9798,1.9798,1.9798,1.9798,1.9798,1.9798,1.9798,1.9798,2.0207,2.0795,2.0795,2.0845,2.093,2.1438,2.0904,1.9952,2.0497,2.0295,1.9798,1.9798,1.9798,1.9798,1.9748,1.9761,1.9798,1.9748,1.9761,1.9798,1.9798,1.9798,1.9798,1.9798,2.0188,2.0794,2.1343,2.1907,2.246,2.2952,2.3078,2.3078,2.3078,2.3078,2.3078,2.3078,2.3078,2.3078,2.3078,2.3078,2.3078,2.3078,2.2445,2.2002,2.2002,2.1498,2.12,2.12,2.1001,2.0869,2.0869,2.0819,2.0819,2.0869,2.0819,2.0978,2.1481,2.1493,2.1493,2.1493,2.1493,2.1493,2.1493,2.1493,2.1493,0.0,0.0,0.0,0.0,0.0,0.0,0.0,0.0,0.0,0.0,0.0,0.0,0.0,0.0,0.0,0.0,0.0,0.0,0.0,0.0,1.9648,1.9246,1.9547,1.9798,1.9798,1.9798,1.9798,1.9798,1.9798,1.9798,1.9798,1.9798,1.9798,1.9798,1.9798,1.9798,1.9798,1.9798,1.9798,1.9798,1.9798,1.9798,1.9798,1.9798,1.9798,1.9798,1.9798,2.0207,2.0795,2.0795,2.1064,2.1472,2.1113,2.0845,2.056,2.0156,1.9901,1.9798,1.9798,1.9798,1.9736,1.9334,1.9472,1.9723,1.9321,1.9472,1.9798,1.9798,1.9798,1.9798,1.9798,1.9899,2.0238,2.1255,2.1907,2.246,2.2952,2.3078,2.3078,2.3078,2.3078,2.3078,2.3078,2.3078,2.3078,2.3078,2.3078,2.3078,2.3078,2.2944,2.2823,2.2823,2.2712,2.2637,2.2637,2.2218,2.1958,2.1958,2.1556,2.1506,2.1945,2.1543,2.1368,2.1493,2.1493,2.1493,2.1493,2.1493,2.1493,2.1493,2.1493,2.1493,0.0,0.0,0.0,0.0,0.0,0.0,0.0,0.0,0.0,0.0,0.0,0.0,0.0,0.0,0.0,0.0,0.0,0.0,0.0,0.0,1.9422,1.9397,1.9635,1.9798,1.9798,1.9798,1.9798,1.9798,1.9798,1.9798,1.9798,1.9798,1.9798,1.9798,1.9798,1.9798,1.9798,1.9798,1.9798,1.9798,1.9798,1.9798,1.9798,1.9798,1.9798,1.9798,2.0144,2.0497,2.0795,2.1113,2.1438,2.1663,2.1028,2.0795,2.0696,2.0055,1.9798,1.9798,1.9798,1.9635,1.9384,1.912,1.9032,1.8982,1.8719,1.9007,1.9434,1.9434,1.961,1.9798,1.9798,1.9798,2.0087,2.1217,2.1707,2.2133,2.2902,2.3078,2.3078,2.3078,2.3078,2.3078,2.3078,2.3078,2.3078,2.3078,2.3078,2.3078,2.3078,2.3078,2.3078,2.3078,2.3078,2.3078,2.3078,2.2636,2.2309,2.2309,2.2046,2.202,2.2297,2.2284,2.2284,2.2284,2.2284,2.2284,2.2284,2.2284,2.2284,2.2284,2.2284,2.2284,0.0,0.0,0.0,0.0,0.0,0.0,0.0,0.0,0.0,0.0,0.0,0.0,0.0,0.0,0.0,0.0,0.0,0.0,0.0,0.0,1.9133,1.9623,1.9748,1.9798,1.9798,1.9798,1.9798,1.9798,1.9798,1.9798,1.9798,1.9798,1.9798,1.9798,1.9798,1.9798,1.9798,1.9798,1.9798,1.9798,1.9798,1.9798,1.9798,1.9798,1.985,2.0003,2.0683,2.1028,2.1175,2.1677,2.1946,2.1946,2.1259,2.0944,2.0881,2.0093,1.9748,1.966,1.966,1.9321,1.8869,1.8769,1.8505,1.8204,1.8204,1.8593,1.8995,1.9083,1.9472,1.9798,1.9798,1.9798,2.0062,2.1104,2.1418,2.1794,2.2899,2.3078,2.3078,2.3078,2.3078,2.3078,2.3078,2.3078,2.3078,2.3078,2.3078,2.3078,2.3078,2.3078,2.3078,2.3078,2.3078,2.3078,2.3078,2.2711,2.2447,2.2447,2.2447,2.2447,2.2447,2.2827,2.3078,2.3078,2.3078,2.3078,2.3078,2.3078,2.3078,2.3078,2.3078,2.3078,0.0,0.0,0.0,0.0,0.0,0.0,0.0,0.0,0.0,0.0,0.0,0.0,0.0,0.0,0.0,0.0,0.0,0.0,0.0,1.8983,1.9008,1.912,1.9522,1.9798,1.9798,1.9798,1.9798,1.9798,1.9798,1.9798,1.9798,1.9798,1.9798,1.9798,1.9798,1.9798,1.9798,1.9798,1.9798,1.9798,1.9798,1.9798,1.9798,1.9798,2.0105,2.0696,2.1293,2.1913,2.2466,2.2558,2.286,2.3216,2.2039,2.1568,2.1424,2.0232,1.9522,1.9133,1.9133,1.8781,1.8242,1.7752,1.7877,1.8204,1.8204,1.8593,1.912,1.9572,1.9748,1.9798,1.9798,1.9798,1.9962,2.0668,2.1142,2.1794,2.2899,2.3078,2.3078,2.3078,2.3078,2.3078,2.3078,2.3078,2.3078,2.3078,2.3078,2.3078,2.3078,2.3078,2.3078,2.3078,2.3078,2.3078,2.3078,2.3002,2.2965,2.2965,2.2965,2.2965,2.2965,2.3027,2.3078,2.3078,2.3078,2.3078,2.3078,2.3078,2.3078,2.3078,2.3078,2.3078,0.0,0.0,0.0,0.0,0.0,0.0,0.0,0.0,0.0,0.0,0.0,0.0,0.0,0.0,0.0,0.0,0.0,0.0,0.0,1.8983,1.9083,1.9422,1.966,1.9798,1.9798,1.9798,1.9798,1.9798,1.9798,1.9798,1.9798,1.9798,1.9798,1.9798,1.9798,1.9798,1.9798,1.9798,1.9798,1.9798,1.9798,1.9798,1.9798,2.0207,2.0308,2.0308,2.093,2.1534,2.2146,2.2558,2.2844,2.3009,2.2086,2.1315,2.0657,2.0029,1.9271,1.8606,1.892,1.8468,1.7702,1.7463,1.7325,1.7325,1.7652,1.8129,1.8681,1.9221,1.9572,1.9798,1.9798,1.9798,1.9949,2.058,2.1091,2.1707,2.2498,2.2912,2.3078,2.3078,2.3078,2.3078,2.3078,2.3078,2.3078,2.3078,2.3078,2.3078,2.3078,2.3078,2.3078,2.3078,2.3078,2.3078,2.3078,2.3078,2.3078,2.3078,2.3078,2.3078,2.3078,2.3078,2.3078,2.3078,2.3078,2.3078,2.3078,2.3078,2.3078,2.3078,2.3078,2.3078,0.0,0.0,0.0,0.0,0.0,0.0,0.0,0.0,0.0,0.0,0.0,0.0,0.0,0.0,0.0,0.0,0.0,0.0,0.0,1.912,1.9221,1.9748,1.9798,1.9798,1.9798,1.9798,1.9798,1.9798,1.9798,1.9798,1.9798,1.9798,1.9798,1.9798,1.9798,1.9798,1.9798,1.9798,1.9798,1.9798,1.9798,1.9736,1.961,2.0102,2.0052,1.9661,2.0631,2.1403,2.1993,2.2326,2.2565,2.2634,2.1778,2.0853,1.9991,1.9698,1.892,1.8053,1.8468,1.7978,1.7162,1.7162,1.6873,1.666,1.7375,1.7877,1.8342,1.9032,1.9497,1.9798,1.9798,1.9798,1.9911,2.0338,2.0978,2.1681,2.2372,2.2849,2.3078,2.3078,2.3078,2.3078,2.3078,2.3078,2.3078,2.3078,2.3078,2.3078,2.3078,2.3078,2.3078,2.3078,2.3078,2.3185,2.3365,2.3424,2.3471,2.3636,2.3695,2.359,2.3424,2.3424,2.3305,2.3078,2.3078,2.3078,2.3078,2.3078,2.3078,2.3078,2.3305,2.3424,0.0,0.0,0.0,0.0,0.0,0.0,0.0,0.0,0.0,0.0,0.0,0.0,0.0,0.0,0.0,0.0,0.0,0.0,1.9698,1.9334,1.9221,1.9748,1.9798,1.9798,1.9798,1.9798,1.9798,1.9798,1.9798,1.9798,1.9798,1.9798,1.9798,1.9798,1.9798,1.9798,1.9798,1.9798,1.9798,1.9798,1.9798,1.9547,1.9021,1.907,1.907,1.9145,2.0906,2.2053,2.2606,2.2002,2.2117,2.2591,2.1346,2.0514,1.9903,1.9291,1.8367,1.7438,1.7451,1.7074,1.6559,1.6559,1.6547,1.6722,1.7827,1.8179,1.843,1.9459,1.9786,1.9798,1.9798,1.9798,1.9811,1.9836,2.069,2.1782,2.2802,2.3053,2.3078,2.3078,2.3078,2.3078,2.3078,2.3078,2.3078,2.3078,2.3078,2.3078,2.3078,2.3078,2.3078,2.3078,2.3078,2.3424,2.4176,2.4234,2.4509,2.5231,2.5287,2.4951,2.4292,2.4234,2.3884,2.3138,2.3078,2.3078,2.3078,2.3078,2.3078,2.3138,2.3884,2.4234,0.0,0.0,0.0,0.0,0.0,0.0,0.0,0.0,0.0,0.0,0.0,0.0,0.0,0.0,0.0,0.0,0.0,0.0,1.9773,1.9635,1.9597,1.9773,1.9798,1.9798,1.9798,1.9798,1.9798,1.9798,1.9798,1.9798,1.9798,1.9798,1.9798,1.9798,1.9798,1.9798,1.9798,1.9798,1.9798,1.9798,1.9459,1.9208,1.897,1.8656,1.8694,1.9045,1.969,2.0337,2.0972,2.1119,2.0865,2.0439,2.1139,2.0107,1.8413,1.8854,1.8091,1.6886,1.725,1.6999,1.6522,1.6522,1.6522,1.666,1.7438,1.7928,1.8355,1.9095,1.9547,1.9798,1.9798,1.9798,1.9987,2.0715,2.1468,2.2221,2.2915,2.3078,2.3078,2.3078,2.3078,2.3078,2.3078,2.3078,2.3245,2.3767,2.3884,2.4047,2.4496,2.4163,2.3884,2.3884,2.3424,2.3424,2.4234,2.4292,2.4624,2.5342,2.5398,2.5287,2.5007,2.5007,2.4894,2.461,2.4553,2.4323,2.3884,2.3884,2.4105,2.461,2.4894,2.5007,0.0,0.0,0.0,0.0,0.0,0.0,0.0,0.0,0.0,0.0,0.0,0.0,0.0,0.0,0.0,0.0,0.0,0.0,1.9798,1.9798,1.9798,1.9798,1.9798,1.9798,1.9798,1.9798,1.9798,1.9798,1.9798,0.0,1.9798,1.9798,1.9798,1.9798,1.9635,1.9623,1.9798,1.9447,1.9359,1.9535,1.9007,1.874,1.8729,1.8185,1.821,1.8729,1.8314,1.8862,2.0006,2.0178,1.9886,1.9441,2.0216,1.9336,1.7721,1.8251,1.7639,1.6572,1.6961,1.6835,1.6522,1.6522,1.6647,1.6886,1.7262,1.7903,1.8555,1.892,1.9397,1.9798,1.9798,1.9798,2.0087,2.1217,2.1982,2.261,2.3318,2.3305,2.3198,2.3424,2.3305,2.3245,2.3754,2.3649,2.3767,2.4567,2.4681,2.4851,2.5342,2.4951,2.4681,2.4681,2.4221,2.4208,2.4951,2.5063,2.5342,2.6108,2.6162,2.6054,2.5783,2.5783,2.5673,2.5398,2.5398,2.5287,2.5063,2.4794,2.4894,2.5398,2.5673,2.5892,0.0,0.0,0.0,0.0,0.0,0.0,0.0,0.0,0.0,0.0,0.0,0.0,0.0,0.0,0.0,0.0,0.0,0.0,1.985,1.9798,1.9798,1.9798,1.9798,1.9798,1.9798,1.9798,1.9798,1.9798,1.9798,1.9798,1.9798,1.9798,1.985,1.985,1.9346,1.9321,1.9812,1.878,1.8516,1.8995,1.849,1.8214,1.8249,1.7677,1.7721,1.8209,1.7089,1.7856,1.994,1.9291,1.9329,1.9704,1.8639,1.8222,1.8109,1.7587,1.7024,1.6522,1.6522,1.6522,1.6522,1.6522,1.6898,1.735,1.735,1.8129,1.8958,1.8958,1.9384,1.9798,1.9798,1.9862,2.0152,2.1272,2.2117,2.2976,2.4099,2.3708,2.3424,2.4176,2.3708,2.3636,2.5119,2.4794,2.4567,2.5342,2.5453,2.5453,2.5453,2.5453,2.5453,2.5453,2.5398,2.5673,2.6457,2.651,2.6826,2.756,2.7625,2.7306,2.6563,2.651,2.6176,2.5453,2.5453,2.5837,2.651,2.5783,2.5453,2.5508,2.6176,2.693,2.5486,0.0,0.0,0.0,0.0,0.0,0.0,0.0,0.0,0.0,0.0,0.0,0.0,0.0,0.0,0.0,0.0,0.0,2.0446,2.0105,1.9798,1.9798,1.9798,1.9798,1.9798,1.9798,1.9798,0.0,1.9798,1.9798,1.9798,2.0258,2.0733,2.1183,2.0597,2.0382,2.053,1.9758,1.9418,1.9579,1.9007,1.8933,1.9394,1.8872,1.8913,1.9394,1.91,1.906,1.9201,1.9123,1.8669,1.8093,1.9049,1.8677,1.7531,1.7435,1.7024,1.6522,1.6522,1.6522,1.6522,1.6522,1.6622,1.676,1.676,1.7539,1.843,1.843,1.9095,1.9901,2.0396,2.0809,2.1407,2.2736,2.3485,2.4096,2.49,2.4951,2.4838,2.5063,2.4894,2.4894,2.5342,2.5231,2.5342,2.6068,2.6176,2.639,2.6916,2.6549,2.6176,2.6176,2.5728,2.5673,2.6457,2.651,2.6826,2.756,2.7625,2.7524,2.7306,2.7306,2.7188,2.7019,2.6967,2.7086,2.7306,2.6549,2.6443,2.7019,2.7188,2.7408,0.0,0.0,0.0,0.0,0.0,0.0,2.4642,2.4807,2.4777,0.0,2.343,0.0,0.0,0.0,0.0,0.0,0.0,2.0706,2.1113,2.0633,2.0295,2.0557,2.0131,1.9901,2.0207,1.9952,1.9901,2.0207,2.0194,2.0346,2.0557,2.0953,2.1342,2.1697,2.0896,2.0547,2.0809,1.9649,1.9223,1.9414,1.8838,1.8892,1.9473,1.8946,1.8987,1.9487,1.9239,1.8948,1.859,1.8913,1.845,1.7693,1.8251,1.7978,1.7269,1.7104,1.681,1.6522,1.6522,1.6522,1.6522,1.6522,1.6685,1.6917,1.7183,1.7867,1.8591,1.8853,1.9577,2.0346,2.1015,2.1417,2.187,2.2949,2.3668,2.4348,2.5247,2.5657,2.5902,2.5849,2.5618,2.5618,2.6215,2.6054,2.6122,2.6878,2.693,2.7086,2.756,2.7203,2.693,2.693,2.6587,2.6481,2.693,2.693,2.7137,2.7575,2.7625,2.7625,2.7625,2.7625,2.7625,2.7625,2.7625,2.7625,2.7625,2.7152,2.7203,2.7625,2.7625,2.7625,0.0,0.0,0.0,0.0,0.0,0.0,2.3595,2.3954,2.4059,2.1829,2.2293,0.0,0.0,0.0,0.0,0.0,0.0,2.1969,2.1805,2.121,2.0979,2.152,2.0521,2.0055,2.0646,2.0194,2.0156,2.0746,2.0845,2.1161,2.1758,2.1805,2.1852,2.1885,2.0829,2.045,2.1021,1.9266,1.8639,1.9072,1.8556,1.8577,1.9084,1.8609,1.8648,1.9084,1.8609,1.8319,1.8224,1.865,1.8535,1.8027,1.7034,1.6909,1.7229,1.671,1.6522,1.6522,1.6522,1.6522,1.6522,1.6522,1.6861,1.7422,1.7996,1.8564,1.919,1.9956,2.0545,2.1028,2.1663,2.1805,2.1957,2.2644,2.3345,2.4119,2.5257,2.6105,2.6604,2.6504,2.6011,2.6054,2.7357,2.7034,2.6826,2.7509,2.7625,2.7625,2.7625,2.7625,2.7625,2.7625,2.7625,2.7625,2.7625,2.7625,2.7625,2.7625,2.7625,2.7625,2.7625,2.7625,2.7625,2.7625,2.7625,2.7625,2.7625,2.7625,2.7625,2.7625,2.7625,2.7625,0.0,0.0,0.0,0.0,0.0,0.0,2.5585,2.5615,2.542,0.0,2.5644,0.0,0.0,0.0,0.0,0.0,0.0,2.3653,2.2661,2.1513,2.0845,2.0979,2.0295,1.985,2.0003,2.0346,2.0646,2.0795,2.1245,2.1819,2.2452,2.2498,2.2725,2.3216,2.2536,2.2212,2.2302,2.0902,2.0253,2.0356,1.9693,1.9738,2.0347,2.0233,2.0271,2.0347,2.0233,1.9628,1.8727,1.838,1.8185,1.8066,1.7867,1.7585,1.7229,1.671,1.6522,1.6522,1.6522,1.6522,1.6522,1.6522,1.6597,1.6773,1.7403,1.8293,1.941,2.0941,2.1424,2.1663,2.2346,2.2498,2.2793,2.3934,2.4325,2.4654,2.5426,2.6117,2.6583,2.6604,2.6885,2.724,2.756,2.7458,2.7408,2.7575,2.7625,2.7625,2.7625,2.7625,2.7625,2.7625,2.7625,2.7625,2.7625,2.7625,2.7625,2.7625,2.7625,2.7625,2.7625,2.7625,2.7625,2.7625,2.7625,2.7625,2.7625,2.7625,2.7625,2.7625,2.7625,2.7625,0.0,0.0,0.0,2.4058,0.0,0.0,0.0,2.536,2.542,2.4777,0.0,0.0,0.0,0.0,0.0,0.0,2.4777,2.409,2.4128,2.2757,2.1846,2.2146,2.1328,2.0904,2.1197,2.1245,2.1403,2.1704,2.2285,2.2801,2.3143,2.3143,2.329,2.3595,2.2996,2.2724,2.2724,2.138,2.0722,2.0707,2.0019,1.9869,2.0198,2.0198,2.0198,2.0198,1.9908,1.9476,1.8855,1.8341,1.8106,1.8066,1.7827,1.7394,1.6909,1.6909,1.671,1.6559,1.6848,1.6948,1.6948,1.6948,1.7137,1.7536,1.8464,1.9768,2.1087,2.1931,2.2193,2.2346,2.2965,2.3143,2.3319,2.394,2.4118,2.4298,2.4971,2.563,2.6198,2.6527,2.7126,2.7625,2.7625,2.7625,2.7625,2.7625,2.7625,2.7625,2.7625,2.7625,2.7625,2.7625,2.7625,2.7625,2.7625,2.7625,2.7625,2.7625,2.7625,2.7625,2.7625,2.7625,2.776,2.8042,2.8352,2.8496,2.8496,2.8496,2.8174,2.7625,2.791,2.8042,0.0,0.0,0.0,0.0,0.0,2.4702,0.0,0.0,0.0,0.0,0.0,0.0,0.0,0.0,0.0,0.0,0.0,0.0,0.0,2.4143,0.0,2.3733,2.2566,2.1941,2.2623,2.233,2.232,2.283,2.3452,2.3744,2.361,2.3595,2.3595,2.3595,2.3116,2.2847,2.2847,2.156,2.0902,2.0902,2.0079,1.969,1.969,1.969,1.969,1.969,1.9132,1.8893,1.8855,1.8341,1.8027,1.7907,1.7463,1.7034,1.668,1.7034,1.6879,1.6584,1.7049,1.7212,1.7237,1.735,1.7907,1.8802,2.0078,2.148,2.274,2.283,2.2875,2.2965,2.3465,2.3595,2.3595,2.3595,2.3595,2.3789,2.4433,2.5151,2.5809,2.6467,2.7126,2.7625,2.7625,2.7625,2.7625,2.7625,2.7625,2.7625,2.7625,2.7625,2.7625,2.7625,2.7625,2.7625,2.7625,2.7625,2.7625,2.7625,2.771,2.776,2.776,2.7894,2.8174,2.8638,2.9134,2.9406,2.9406,2.9406,2.8904,2.7944,2.8463,2.8685,0.0,0.0,0.0,0.0,2.2458,0.0,0.0,0.0,0.0,0.0,0.0,0.0,0.0,0.0,0.0,0.0,0.0,0.0,2.5585,2.488,2.4428,2.4549,2.2856,2.1965,2.263,2.3183,2.3484,2.3509,2.4119,2.4238,2.3625,2.3595,2.3595,2.3595,2.3535,2.349,2.349,2.2233,2.159,2.1575,2.0288,1.969,1.969,1.969,1.969,1.969,1.9132,1.8893,1.8855,1.8341,1.7827,1.7394,1.7312,1.7271,1.7146,1.6752,1.6552,1.6522,1.6597,1.6609,1.6697,1.7212,1.8472,2.002,2.1294,2.2191,2.2785,2.3334,2.3508,2.3508,2.3595,2.3595,2.3595,2.3595,2.3595,2.3789,2.4433,2.5151,2.5809,2.6467,2.7126,2.7625,2.7625,2.7625,2.7625,2.7625,2.7625,2.7625,2.7625,2.7625,2.7625,2.7625,2.7625,2.7625,2.7625,2.7625,2.7625,2.7625,2.8091,2.8383,2.8383,2.8904,2.9225,2.9316,2.9361,2.9406,2.9406,2.9406,2.9316,2.918,2.9271,2.9316,0.0,0.0,0.0,0.0,0.0,0.0,2.4792,0.0,2.6797,0.0,0.0,0.0,0.0,0.0,0.0,0.0,2.6288,0.0,0.0,0.0,2.4775,0.0,0.0,0.0,2.38,2.4034,2.4044,2.364,2.4238,2.4328,2.364,2.3595,2.3595,2.3595,2.3595,2.3595,2.3595,2.2712,2.2069,2.168,2.0737,2.0079,1.969,1.969,1.969,1.969,1.9132,1.8893,1.8855,1.8341,1.7987,1.7747,1.7435,1.7118,1.6837,1.6909,1.6969,1.7074,1.7388,1.7964,1.8676,1.9595,2.0429,2.1285,2.2101,2.2761,2.329,2.3508,2.3595,2.3595,2.3595,2.3595,2.3595,2.3595,2.3595,2.3684,2.3969,2.4866,2.5689,2.5974,2.6856,2.7625,2.7625,2.7625,2.7625,2.7625,2.7625,2.7625,2.7625,2.7625,2.7625,2.7625,2.7625,2.776,2.8091,2.814,2.8271,2.8622,2.8857,2.9012,2.9012,2.9585,2.9935,2.9935,3.0705,3.0891,3.0435,3.0891,3.0874,3.0435,3.0081,2.9935,2.3642,0.0,0.0,0.0,0.0,0.0,0.0,0.0,0.0,0.0,0.0,0.0,0.0,0.0,0.0,0.0,0.0,0.0,0.0,0.0,0.0,0.0,0.0,0.0,0.0,2.5061,2.4807,2.3939,2.4522,2.4522,2.3655,2.3595,2.3595,2.3595,2.3595,2.3595,2.3595,2.2802,2.2173,2.168,2.0842,2.0168,1.969,1.969,1.969,1.969,1.9132,1.8968,1.908,1.838,1.8106,1.8066,1.7666,1.7209,1.6791,1.7196,1.735,1.7463,1.8016,1.9008,2.018,2.137,2.1906,2.2236,2.2789,2.3246,2.3595,2.3595,2.3595,2.3595,2.3595,2.3595,2.3595,2.3595,2.3595,2.3655,2.3834,2.4792,2.5659,2.5839,2.6797,2.7625,2.7625,2.7625,2.7625,2.7625,2.7625,2.7625,2.7625,2.7625,2.766,2.781,2.786,2.8091,2.8685,2.8732,2.8996,2.9629,2.9629,2.9717,2.9908,3.0293,3.0559,3.0559,3.1681,3.1918,3.119,3.1918,3.1901,3.119,3.074,3.0559,0.0,0.0,0.0,2.3378,0.0,0.0,0.0,0.0,2.5674,0.0,0.0,0.0,0.0,0.0,0.0,0.0,0.0,0.0,0.0,0.0,0.0,0.0,0.0,0.0,0.0,2.6153,2.5989,2.4642,2.5211,2.5001,2.367,2.3595,2.3595,2.3595,2.3595,2.3595,2.3595,2.2353,2.1724,2.168,2.0348,1.9705,1.969,1.969,1.969,1.969,1.9132,1.9207,1.9603,1.8535,1.8106,1.8106,1.8066,1.7794,1.735,1.7395,1.7408,1.7463,1.8016,1.9008,2.0221,2.1465,2.2235,2.2815,2.3406,2.3595,2.3595,2.3595,2.3595,2.3595,2.3595,2.3595,2.3595,2.3595,2.3595,2.3789,2.4403,2.5136,2.5794,2.6437,2.7111,2.7625,2.7625,2.7625,2.7625,2.7625,2.7625,2.7625,2.7625,2.7625,2.781,2.8415,2.8463,2.8748,2.9316,2.9361,2.9629,3.0208,3.0251,3.0518,3.1112,3.1151,3.119,3.119,3.1901,3.1918,3.119,3.1918,3.1901,3.119,3.119,3.119,0.0,0.0,2.3243,2.3969,0.0,0.0,0.0,0.0,0.0,0.0,0.0,0.0,0.0,0.0,0.0,0.0,0.0,0.0,0.0,0.0,0.0,0.0,0.0,0.0,0.0,0.0,2.5106,2.4612,2.4418,2.4088,2.3625,2.3595,2.3595,2.3595,2.3595,2.3595,2.3595,2.2772,2.2128,2.168,2.0797,2.0124,1.969,1.969,1.969,1.969,1.953,1.953,1.969,1.9332,1.8968,1.8616,1.8615,1.8352,1.793,1.793,1.815,1.8687,2.0038,2.1068,2.1911,2.2776,2.3156,2.3334,2.3551,2.3595,2.3595,2.3595,2.3595,2.3699,2.4163,2.3939,2.3714,2.4178,2.3924,2.3789,2.4433,2.5151,2.5809,2.6467,2.7126,2.7625,2.7625,2.7944,2.8042,2.766,2.7959,2.8189,2.8189,2.8543,2.8857,2.9088,2.9104,2.9537,3.0631,3.1087,3.12,3.0912,3.0878,3.1194,3.1901,3.1444,3.1844,3.3154,3.3429,3.3346,3.2878,3.3576,3.3314,3.2056,3.2056,3.175,2.5205,2.4643,0.0,2.4632,2.4356,0.0,2.4477,0.0,0.0,0.0,0.0,0.0,0.0,0.0,0.0,0.0,0.0,0.0,0.0,2.6961,0.0,0.0,0.0,0.0,0.0,0.0,2.5196,2.4029,2.3954,2.3759,2.3295,2.3266,2.337,2.3595,2.3595,2.3595,2.3595,2.2981,2.2338,2.168,2.1036,2.0348,1.969,1.969,1.969,1.969,1.969,1.969,1.969,1.9479,1.9338,1.9243,1.8975,1.8868,1.8829,1.8572,1.8982,1.9881,2.1492,2.2346,2.2785,2.3421,2.3595,2.3595,2.3595,2.3595,2.3595,2.3595,2.3595,2.3699,2.4148,2.3924,2.3714,2.4163,2.4118,2.4088,2.4492,2.55,2.6426,2.6851,2.7618,2.8255,2.8255,2.8543,2.8606,2.7993,2.8415,2.8826,2.8826,2.9134,2.9496,2.9717,2.9944,3.0533,3.1632,3.2092,3.2087,3.1613,3.1343,3.1749,3.2935,3.2269,3.2814,3.4839,3.4556,3.4479,3.4552,3.4411,3.388,3.2924,3.2641,3.2196]}]]